GFSSGP_500_spd_000.txt.gz
Wind_Speed
26 25 17 18 18 25 27 27 21 29 28 28 28 31 30 20 20 25 25 18 21 25 23 23 19 16 14 9 8 7 7 7 3 3 6 8 10 9 8 8 8 9 9 10 11 12 14 15 13
23 21 19 15 13 24 23 26 27 26 34 32 33 30 21 23 27 25 29 28 27 26 25 19 15 13 10 9 9 8 7 4 3 3 5 5 5 5 6 7 7 8 9 10 10 10 12 13 15
21 27 26 22 21 26 30 25 26 24 23 23 11 19 27 29 32 28 28 29 25 23 22 14 11 9 8 7 4 3 4 5 3 2 0 2 4 6 7 8 9 10 11 13 14 15 14 15 16
19 23 21 25 33 27 23 28 29 27 28 17 12 18 22 30 30 29 28 23 18 17 11 10 8 6 5 3 3 4 4 2 2 4 5 6 7 8 10 12 13 13 13 14 14 16 16 16 15
11 14 21 25 26 32 24 20 23 22 15 14 19 24 30 27 27 27 27 22 16 12 10 7 4 4 4 4 4 3 2 3 5 7 8 11 12 12 13 15 17 18 18 19 18 18 18 18 17
14 20 23 21 15 19 19 20 18 12 10 17 25 24 22 25 16 16 17 13 12 11 7 6 7 5 4 3 2 2 4 7 9 11 12 13 14 14 16 18 19 21 22 23 22 24 24 25 25
24 29 27 25 19 17 19 18 22 13 16 23 24 20 23 13 12 14 13 13 12 9 8 9 7 5 4 3 5 6 9 11 11 13 13 16 18 19 22 23 25 25 26 26 25 25 25 25 25
21 22 26 19 18 13 10 18 22 23 22 19 10 13 8 7 7 9 11 11 12 9 9 8 6 5 7 9 11 11 12 14 14 16 18 20 22 24 26 27 26 24 25 25 24 25 26 26 24
22 24 24 24 27 28 15 15 18 21 18 10 11 6 4 5 5 9 10 10 9 9 8 7 7 10 11 11 12 13 14 15 18 20 21 23 25 26 26 25 25 25 25 28 29 30 33 33 31
23 19 24 17 21 23 10 9 18 17 15 9 11 7 7 4 7 8 8 6 7 7 10 11 12 13 10 10 13 15 17 18 20 21 22 23 24 26 27 27 28 28 30 32 34 35 35 36 35
13 13 9 15 9 8 11 17 16 11 6 5 4 6 5 4 6 6 6 8 9 10 14 15 13 13 12 13 16 17 20 25 24 25 26 26 27 29 30 30 31 32 35 36 37 37 35 34 34
16 12 6 12 9 11 15 10 5 4 3 6 6 4 5 4 5 5 7 7 8 8 15 16 17 16 17 18 21 22 23 24 27 28 28 29 31 33 33 33 35 36 36 36 36 35 33 31 29
5 13 12 15 14 12 8 6 5 7 6 6 7 6 4 4 5 6 5 7 10 11 17 21 19 19 19 20 23 22 26 29 27 27 28 28 35 37 38 40 41 39 37 36 35 33 31 30 28
11 11 16 21 15 7 6 4 4 4 2 5 9 8 7 6 3 5 6 9 13 11 14 16 20 22 7 26 28 33 34 31 32 30 30 36 39 38 41 43 44 41 40 38 37 36 35 33 34
12 9 14 14 11 9 8 7 5 3 1 2 6 7 4 6 7 8 12 14 15 17 19 20 20 20 25 24 28 35 33 34 37 38 42 43 45 43 44 41 41 41 41 42 45 44 42 41 39
17 17 16 13 11 9 5 2 4 6 5 3 1 5 6 7 8 10 11 15 17 24 28 32 31 27 31 31 33 35 38 42 41 40 45 51 47 47 40 41 41 43 45 45 47 49 50 51 51
15 19 11 11 7 2 2 1 11 5 5 1 6 9 10 12 14 16 16 19 21 24 30 34 30 36 35 40 39 43 41 41 37 46 50 50 51 50 48 48 48 47 48 50 52 53 55 57 57
14 12 8 9 5 6 10 9 5 1 1 5 9 11 16 19 21 21 20 22 26 29 29 31 36 40 40 44 45 44 42 40 43 48 48 53 51 50 50 51 52 54 56 57 58 59 62 65 65
5 3 6 7 3 7 13 13 13 7 7 8 11 13 16 19 21 21 22 27 29 28 33 40 41 43 49 47 40 39 39 41 49 49 51 50 50 51 54 56 59 60 62 64 65 68 70 71 73
10 8 8 7 4 9 17 14 14 15 13 11 11 10 16 21 22 24 26 27 25 35 40 41 43 46 45 44 42 40 45 48 48 48 52 55 56 58 60 63 66 68 71 73 74 75 75 77 78
17 15 12 7 4 9 12 13 15 16 16 11 8 12 18 21 20 19 24 28 35 38 40 42 43 44 43 42 45 48 45 46 48 52 55 58 60 63 66 69 72 74 77 79 81 82 82 82 82
10 19 20 13 10 14 16 18 21 23 21 20 19 15 17 23 16 20 28 34 37 38 40 42 45 46 46 45 44 45 46 49 51 54 57 61 64 68 71 74 77 80 82 84 84 85 84 84 84
12 14 16 17 15 15 20 24 26 27 26 23 19 16 16 27 25 30 38 38 38 37 39 39 40 42 43 42 44 45 48 50 53 58 62 65 69 73 75 78 80 81 83 82 81 82 84 85 87
11 12 14 16 16 16 21 24 28 28 26 26 25 26 31 34 33 34 37 40 39 42 36 36 39 39 39 41 43 44 48 53 57 61 65 69 72 76 78 81 84 85 80 79 79 80 82 83 85
11 12 14 14 15 16 18 22 27 30 33 31 30 32 33 35 39 35 40 41 41 31 29 33 36 39 40 40 42 48 53 57 61 66 71 74 81 84 84 83 83 82 83 83 84 84 85 85 85
5 5 6 8 9 13 16 22 25 29 31 34 37 29 30 33 38 45 43 40 35 29 28 28 31 34 39 46 53 58 63 66 71 74 76 82 84 87 87 86 85 85 86 87 87 87 84 82 83
2 2 3 5 9 14 19 23 27 29 31 32 30 29 39 43 43 29 36 32 32 31 33 35 38 43 50 56 63 66 69 74 78 81 84 85 86 87 86 89 90 89 89 87 82 78 79 76 75
2 3 4 5 5 11 15 18 23 26 31 34 37 37 39 34 29 33 31 31 33 38 40 43 48 53 58 64 68 71 75 79 83 86 88 87 85 85 87 89 88 82 77 67 66 73 75 67 65
4 5 6 11 11 12 15 17 20 25 29 31 29 28 29 29 36 35 35 39 42 45 46 49 54 59 64 67 69 74 79 83 84 86 85 84 86 87 88 82 79 70 61 65 72 70 65 51 47
3 6 9 10 12 14 16 18 23 26 29 30 30 31 30 32 38 40 41 44 46 48 51 55 59 64 67 69 73 79 83 86 88 88 87 88 89 88 82 73 70 57 61 66 70 71 51 47 45

GFSSGP_500_spd_003.txt.gz
Wind_Speed
18 25 29 28 27 19 20 33 31 29 29 25 22 21 22 24 26 20 19 23 26 24 22 22 24 25 20 16 10 11 10 9 4 1 1 0 2 4 5 7 10 11 13 14 15 15 17 18 18
9 17 16 16 20 20 24 21 23 26 26 24 19 24 26 28 29 24 22 28 30 30 27 26 25 22 17 11 10 10 9 4 3 4 3 4 5 7 8 10 11 12 14 16 17 18 19 19 19
11 15 14 22 16 16 24 27 26 23 28 29 31 22 18 29 24 21 26 36 33 32 29 24 20 15 11 8 6 5 4 4 5 5 8 9 10 11 12 13 14 16 16 17 18 20 21 20 22
12 12 15 21 24 24 29 34 30 33 35 19 35 24 27 15 21 27 34 35 33 31 19 16 14 8 5 4 3 4 4 5 6 9 11 13 14 16 17 17 18 20 20 21 22 23 24 23 25
11 11 22 26 29 22 29 28 34 29 31 29 22 10 10 18 25 34 35 34 32 26 18 14 8 5 5 6 6 6 6 7 9 11 14 16 18 19 19 20 21 23 25 25 26 27 27 27 28
13 10 20 33 35 27 27 24 15 15 14 14 16 16 20 23 22 26 29 27 21 16 12 10 8 8 8 7 7 7 8 10 12 13 16 17 19 19 20 22 24 28 29 30 28 27 26 27 27
11 18 22 21 20 24 30 26 19 19 16 16 19 23 20 22 24 21 18 15 14 12 11 10 11 10 8 7 9 9 11 12 14 16 18 19 21 23 25 28 30 32 32 28 25 25 25 26 26
17 23 22 19 19 17 23 28 20 16 18 18 17 17 18 18 18 14 15 13 11 12 10 11 11 9 9 10 10 12 15 15 16 19 20 22 24 26 29 29 28 27 28 29 28 29 29 30 31
22 23 23 23 19 17 14 16 11 9 9 14 14 17 10 9 5 5 10 12 12 11 11 12 10 9 12 12 13 14 17 18 21 25 24 24 26 27 28 27 27 28 29 31 32 35 37 38 36
28 24 20 21 18 20 14 13 7 12 9 12 13 14 10 9 6 7 9 10 9 10 11 11 12 13 13 13 15 18 21 22 24 26 26 26 26 29 29 29 29 29 30 33 36 37 37 37 37
23 25 29 28 24 26 14 2 14 8 1 4 9 12 11 9 8 7 6 4 8 10 11 12 12 11 14 16 19 21 23 22 24 25 29 30 29 29 28 32 33 32 33 36 37 37 31 28 31
23 25 11 5 8 4 6 7 10 1 2 5 6 7 8 7 6 5 6 5 6 11 12 11 14 15 20 20 20 23 27 24 25 29 30 29 30 29 31 37 36 35 35 36 32 32 31 30 29
17 14 8 7 4 7 9 7 9 6 6 4 5 6 8 8 7 6 5 4 7 12 14 15 16 19 22 26 20 25 31 25 33 33 27 33 35 32 35 39 37 36 33 30 30 31 31 31 31
18 9 9 13 11 9 6 12 11 12 11 9 9 5 6 6 4 6 5 6 7 8 11 14 13 18 13 18 22 20 23 29 32 33 35 37 39 40 38 38 35 34 34 34 34 35 35 35 35
13 11 10 12 16 9 10 12 11 10 11 13 14 11 7 6 6 8 10 9 7 11 15 18 20 25 25 22 25 27 31 31 36 41 38 37 37 38 42 38 35 37 38 39 40 42 44 46 44
10 8 12 12 10 10 8 7 10 10 9 9 10 9 7 5 5 9 12 11 12 15 19 22 25 27 20 22 27 28 41 41 40 38 36 39 40 46 43 39 39 40 42 43 43 46 48 49 50
16 19 13 11 12 12 10 5 6 5 8 6 5 7 7 7 9 13 14 16 19 19 24 26 21 19 29 19 30 36 42 41 37 38 40 45 45 49 44 42 43 46 46 48 49 50 52 54 56
18 16 15 13 10 9 9 8 6 6 7 5 7 8 8 11 13 14 14 14 21 26 24 26 30 31 35 36 40 43 44 32 39 43 46 49 48 48 48 48 49 49 51 54 56 57 60 62 63
21 24 12 14 10 6 3 0 1 3 5 7 9 11 11 12 16 17 16 20 21 21 27 32 36 39 41 44 44 44 37 45 36 47 45 48 48 46 47 50 54 58 60 61 62 65 66 67 69
12 20 11 7 3 6 3 4 6 5 5 5 8 9 11 16 19 19 18 20 23 27 29 33 39 43 45 44 45 42 42 42 47 50 50 50 51 53 56 59 62 65 67 69 72 75 75 75 77
7 10 9 7 5 8 9 12 11 11 9 7 6 10 15 19 19 18 19 22 29 32 35 38 38 41 45 45 44 45 47 46 47 49 50 52 55 59 62 65 69 72 75 76 79 81 81 81 81
13 15 15 14 14 15 17 19 18 18 18 16 14 15 16 19 19 21 30 32 35 37 40 42 43 47 48 46 44 45 44 45 47 49 53 58 62 65 69 72 75 77 79 80 81 83 85 84 84
11 16 17 18 19 23 24 24 22 23 21 19 18 18 23 19 24 33 36 37 38 38 42 45 47 43 40 39 40 41 43 44 49 55 59 62 65 68 71 75 78 80 83 85 85 85 84 85 85
12 14 17 20 23 27 27 28 28 26 22 21 20 23 23 28 31 32 34 39 39 43 44 44 41 40 38 39 39 40 44 48 52 56 60 62 66 70 78 82 84 87 88 88 88 89 89 89 89
14 15 17 20 22 25 26 26 27 24 23 26 30 29 27 28 33 30 33 45 46 43 36 35 32 32 34 37 39 43 48 52 57 60 64 69 76 83 85 86 88 89 89 89 90 90 91 92 88
14 14 15 14 14 16 18 21 22 24 27 30 30 31 28 26 31 37 44 41 35 34 29 29 33 37 40 44 47 51 57 62 65 69 73 78 81 85 88 90 92 93 94 95 95 95 91 84 79
8 9 9 11 13 14 15 16 20 20 21 22 24 24 25 31 30 34 31 34 35 30 32 37 40 42 45 49 54 58 62 64 68 72 77 82 86 90 92 95 95 96 95 96 92 84 77 73 71
7 4 3 4 6 5 6 7 11 12 15 16 18 20 24 26 29 31 35 38 38 39 43 46 49 51 53 56 60 63 66 70 75 79 83 86 89 93 94 94 94 95 93 84 78 73 68 66 64
6 5 1 2 3 5 8 9 12 14 17 19 19 21 24 29 33 37 41 43 45 47 50 53 54 56 58 61 64 66 70 75 80 84 86 89 92 94 93 95 95 90 80 71 68 69 62 60 63
3 2 2 4 7 9 12 13 16 18 20 23 24 25 27 31 34 38 43 47 46 51 52 54 56 59 62 65 66 69 75 79 83 87 89 91 93 94 95 97 88 75 69 64 59 59 57 57 66

GFSSGP_500_spd_006.txt.gz
Wind_Speed
19 23 25 26 25 28 29 29 29 30 32 34 27 28 30 22 26 25 22 14 16 19 22 24 28 30 27 25 17 13 9 8 5 3 3 2 4 5 7 8 10 12 14 15 16 17 19 20 21
16 17 22 20 20 15 23 25 29 30 30 28 30 31 28 23 23 26 23 17 16 20 24 28 28 27 23 17 14 11 9 6 5 5 5 6 7 8 10 13 14 16 17 19 20 21 22 23 23
15 14 18 15 8 10 22 22 25 25 35 31 29 30 27 15 20 31 15 14 20 25 26 25 23 19 16 12 11 7 6 6 6 7 8 10 12 13 16 18 19 20 22 23 25 26 27 27 27
16 13 13 14 12 19 19 24 23 22 21 29 25 34 20 20 23 20 17 21 25 26 26 19 20 17 10 9 8 6 5 6 7 9 11 13 16 18 20 22 23 24 25 27 29 31 31 30 29
16 12 16 19 20 22 21 22 30 23 24 30 24 22 42 19 17 17 20 24 24 26 23 19 16 9 8 7 7 7 6 8 10 11 13 15 18 21 22 23 24 26 28 30 31 30 29 28 27
15 13 11 22 28 25 20 21 28 25 25 22 20 26 20 9 14 14 14 22 24 21 17 14 10 8 8 7 8 8 11 11 12 13 15 18 20 21 24 27 28 30 32 31 29 25 25 26 27
15 14 18 27 28 27 21 22 27 23 19 6 13 16 14 15 19 18 16 18 16 12 12 9 7 10 8 8 10 12 13 14 14 17 19 20 22 25 29 31 30 32 30 29 28 26 27 28 29
16 17 18 16 22 21 29 18 13 22 11 10 11 13 13 13 14 10 12 12 11 9 9 8 10 9 9 11 12 14 16 17 18 19 21 23 26 29 31 32 32 30 30 31 32 30 30 32 34
19 18 20 22 17 19 22 25 13 8 3 4 9 13 10 9 12 7 6 9 9 8 7 7 8 9 10 12 15 17 17 18 19 20 23 26 28 31 33 33 32 30 29 31 32 32 33 35 35
19 22 19 14 14 18 15 14 11 9 4 6 9 13 8 8 7 1 1 5 6 6 5 6 8 10 11 14 17 17 17 19 19 20 23 26 27 31 33 33 34 30 35 33 33 34 35 34 33
22 24 20 16 16 11 8 9 10 8 3 4 10 8 10 8 6 4 4 4 4 3 5 8 9 11 14 16 19 21 22 23 23 25 25 28 31 32 33 35 37 34 36 37 36 34 33 30 26
26 22 21 18 15 14 1 10 5 2 4 5 5 8 10 9 8 7 4 3 4 5 5 7 11 15 18 21 21 24 24 25 26 26 29 33 33 34 34 38 38 38 42 36 31 29 30 28 27
24 21 18 10 4 4 3 5 8 4 6 7 6 8 8 8 6 4 3 4 5 7 9 13 17 19 20 20 19 18 20 22 22 25 28 30 32 34 38 38 38 37 38 33 30 29 30 30 30
16 11 7 5 5 0 3 7 5 8 6 6 8 7 8 5 3 3 2 2 7 10 14 16 19 21 23 23 26 26 27 26 21 24 29 33 36 37 34 37 38 38 38 36 34 33 34 36 37
18 13 11 6 9 7 7 9 13 9 9 10 12 10 7 2 2 4 4 5 10 14 16 18 21 23 26 30 16 24 25 18 27 33 36 30 31 31 36 39 40 41 39 39 37 36 37 39 40
9 6 5 10 10 14 9 11 10 8 10 10 13 13 6 4 6 8 5 9 12 14 18 20 20 18 18 19 15 21 22 32 32 37 32 26 35 39 42 44 41 41 39 39 40 41 43 45 47
12 12 10 11 16 14 13 10 7 12 10 8 11 8 4 6 9 11 10 11 14 18 19 22 17 18 26 22 34 34 38 38 35 32 29 41 44 43 47 43 44 44 44 45 48 49 51 54 54
10 15 12 11 13 13 12 9 8 8 10 10 9 5 6 9 11 13 15 16 16 19 23 22 22 24 24 33 41 45 43 43 38 38 41 42 48 52 51 49 49 50 53 53 55 57 59 61 62
20 16 15 14 17 17 13 9 7 5 4 6 9 8 8 12 12 14 17 20 21 19 22 26 30 30 36 43 51 50 48 42 39 41 47 53 52 48 48 50 54 56 58 60 63 66 68 70 72
23 20 16 19 17 13 6 6 4 2 2 3 6 7 8 12 15 17 20 18 19 24 28 29 34 39 43 47 50 49 48 48 49 47 45 45 46 47 51 55 58 61 63 66 70 73 76 78 80
19 23 18 11 8 8 5 7 5 3 6 7 9 10 14 18 17 17 18 20 29 33 37 37 39 41 43 47 46 41 40 41 42 42 43 43 48 53 57 61 63 65 68 71 75 77 80 83 84
21 19 19 12 14 13 13 13 11 12 12 13 14 15 18 18 19 22 21 26 30 35 34 39 40 45 46 45 43 42 41 41 41 42 46 50 54 59 61 62 64 68 74 76 79 81 86 90 93
18 16 13 15 16 18 19 19 18 17 18 19 20 21 22 22 23 25 32 35 36 32 38 40 49 48 45 45 44 42 42 44 47 49 53 56 57 58 61 66 71 76 81 83 85 90 94 96 95
13 15 14 16 18 21 18 21 20 21 21 22 21 22 25 28 26 26 33 39 39 40 43 47 39 40 41 38 39 42 44 47 48 52 56 59 61 65 70 75 82 86 87 90 92 95 96 96 95
15 15 16 19 20 21 21 25 23 22 19 20 23 26 28 30 28 24 29 37 39 42 42 37 41 38 39 41 45 47 49 52 55 58 61 63 66 72 77 81 85 86 89 93 97 97 100 101 100
16 16 17 18 20 20 20 17 14 14 16 19 21 23 23 22 21 22 28 32 36 38 39 41 39 41 46 49 51 51 51 53 57 60 63 67 72 77 80 84 89 92 95 99 100 100 98 94 86
14 14 12 12 14 15 14 7 5 3 6 7 9 11 15 17 20 23 27 32 36 35 36 39 42 41 44 47 49 51 55 58 60 63 67 72 76 80 84 90 94 98 102 101 102 101 97 79 73
11 9 8 7 8 6 2 1 4 2 5 7 10 13 17 19 22 25 27 29 32 35 39 42 47 50 53 54 55 58 60 62 64 69 73 76 82 87 91 94 97 99 102 102 99 84 74 67 63
9 7 6 4 4 4 3 4 7 9 11 13 16 19 21 24 26 30 32 35 37 40 44 47 51 54 57 58 59 61 64 66 70 74 76 82 86 89 93 94 97 100 99 91 76 65 60 58 51
8 7 7 7 7 8 9 7 11 14 17 19 21 24 27 30 34 36 39 42 43 46 49 51 54 56 59 60 62 64 67 70 74 76 81 85 87 90 93 98 99 99 88 72 60 55 45 40 40

GFSSGP_500_spd_009.txt.gz
Wind_Speed
25 23 25 26 28 26 29 29 26 25 31 35 35 30 33 32 34 34 32 33 30 14 16 16 17 21 21 23 22 16 11 8 7 6 6 3 2 4 7 9 11 13 15 17 20 22 23 24 22
20 20 20 21 23 25 26 27 20 22 30 33 39 33 33 36 38 39 31 31 17 9 12 17 15 17 18 17 15 11 10 8 7 7 6 5 6 8 11 13 15 17 19 21 23 25 26 26 25
17 16 17 18 19 21 22 20 18 22 24 26 23 36 35 35 28 27 25 16 18 9 15 12 17 16 15 14 10 8 7 7 7 8 9 10 10 13 16 18 20 21 22 24 26 28 29 28 25
17 16 17 15 14 19 20 19 13 20 26 27 31 21 28 33 39 17 21 8 9 12 15 14 14 15 14 10 8 7 5 7 10 11 10 11 14 17 19 21 22 23 25 29 31 31 31 28 24
17 16 13 15 19 23 23 21 16 18 15 6 21 23 32 36 32 19 8 9 9 13 16 15 14 12 9 7 5 6 8 9 10 11 11 15 17 19 21 23 24 28 31 31 32 30 28 25 24
17 14 14 18 25 22 21 14 14 23 25 25 20 21 18 23 16 4 7 5 11 14 16 14 10 8 7 5 6 7 7 9 10 13 16 18 20 23 24 25 28 30 30 31 31 30 29 27 26
17 16 14 18 23 19 19 18 16 20 23 14 11 8 10 15 16 10 9 8 9 10 12 9 9 8 8 7 7 6 8 12 15 17 19 22 24 25 27 28 29 30 32 33 32 30 30 30 30
18 16 15 21 20 25 25 22 15 7 8 18 2 5 9 10 9 9 7 8 7 7 8 8 8 8 7 4 5 9 14 17 18 19 21 23 26 27 27 27 28 30 30 32 30 30 33 32 32
17 18 16 19 18 22 30 19 13 4 2 17 2 5 4 5 5 4 4 7 8 8 7 7 6 4 4 6 10 14 15 17 18 21 24 25 27 28 27 29 32 33 31 33 32 35 37 36 35
19 20 16 15 20 14 13 21 23 4 4 2 3 2 4 6 5 2 4 5 7 7 6 5 4 5 7 10 13 14 17 19 25 26 25 26 29 30 29 30 33 32 34 35 35 38 41 36 35
21 22 16 17 10 10 4 7 12 10 3 3 4 5 9 7 4 4 5 7 7 7 6 4 4 6 10 13 15 18 21 24 28 28 27 27 28 30 33 33 34 33 35 34 34 37 37 34 30
21 18 14 11 19 12 9 15 11 7 3 4 3 7 9 6 5 5 6 6 7 4 2 3 7 11 14 17 21 25 28 30 32 33 24 25 28 30 33 33 34 35 33 34 37 35 33 31 30
19 17 14 14 5 12 10 6 7 1 4 6 6 6 6 5 6 6 5 4 3 2 5 6 10 13 19 21 24 26 28 29 29 27 23 27 28 29 31 33 33 29 32 37 40 40 37 36 35
16 6 6 7 7 10 5 4 2 9 7 5 3 3 4 3 1 2 3 4 4 7 9 11 13 16 19 23 26 31 32 30 29 27 23 29 25 25 29 29 30 32 39 40 44 42 39 37 35
16 10 6 3 4 4 2 2 12 9 6 4 5 5 4 4 4 5 6 7 8 9 13 15 16 17 21 20 18 28 30 31 11 20 27 26 25 25 31 32 37 37 42 44 45 42 39 38 40
11 6 7 7 8 11 7 8 11 6 4 4 5 7 7 7 7 6 7 10 11 13 16 17 21 20 17 20 21 32 21 28 35 36 31 32 46 37 34 42 40 45 48 48 46 43 44 47 48
5 8 6 8 9 13 9 10 9 7 4 6 8 11 10 11 11 8 8 11 14 16 18 21 22 18 19 21 28 33 37 42 43 41 38 32 36 40 44 49 50 47 46 46 46 48 50 52 54
8 5 8 7 12 13 12 10 9 7 7 9 12 12 13 13 12 11 11 13 14 18 20 20 19 22 25 27 37 43 44 44 46 47 43 45 49 47 44 45 45 44 47 50 52 53 55 58 60
5 13 14 13 12 13 10 8 7 8 9 12 13 12 12 14 14 15 15 18 19 18 19 23 25 32 37 38 41 44 45 49 52 49 43 40 41 43 44 44 46 49 52 56 57 59 62 65 68
16 18 12 13 13 13 11 11 7 8 6 7 6 9 11 12 13 16 18 17 19 18 23 29 34 36 39 43 45 49 51 49 47 44 42 42 42 42 44 49 53 57 60 59 60 63 65 69 71
22 18 13 10 7 9 10 9 5 3 3 5 7 10 13 14 16 15 18 20 22 24 29 34 38 33 36 41 46 49 46 44 41 41 42 45 48 50 53 57 60 62 60 61 64 68 70 75 78
19 20 19 14 13 11 10 10 6 6 7 10 13 14 15 15 12 15 18 22 22 32 33 37 40 40 45 49 45 44 46 44 45 47 49 51 53 55 58 60 60 61 64 69 72 74 79 85 88
18 17 18 22 22 16 13 12 8 9 11 14 15 15 15 16 17 21 22 24 25 29 35 39 42 42 42 41 45 43 42 43 46 48 51 53 55 57 60 61 63 68 72 75 80 84 88 91 95
18 18 17 17 18 16 13 16 11 13 16 15 14 14 15 16 19 22 24 24 26 30 34 33 35 38 41 43 43 44 46 50 53 55 55 56 58 60 62 66 70 74 77 81 85 89 93 97 100
18 16 15 16 17 15 13 19 15 15 13 12 13 12 13 16 17 19 22 23 24 28 30 33 36 40 42 44 46 49 51 52 53 56 57 59 61 64 68 72 75 79 83 87 92 95 98 102 102
18 17 17 17 17 16 17 11 11 9 9 9 9 8 9 11 13 15 18 22 25 28 31 33 36 40 43 46 49 51 53 55 56 58 60 62 65 69 72 75 78 83 86 90 95 101 104 104 101
18 18 17 16 13 11 10 6 6 6 7 4 4 6 8 11 13 16 20 24 27 30 33 36 39 42 46 49 52 55 58 58 59 61 62 65 68 71 74 79 83 87 90 95 102 104 102 92 81
16 12 11 8 7 5 2 3 3 4 4 5 7 9 11 14 15 19 22 26 28 31 33 37 41 45 47 50 55 57 58 61 61 61 64 67 71 74 79 82 85 89 95 101 104 99 88 75 62
11 10 9 7 5 5 4 4 7 7 7 9 12 14 15 18 20 24 27 30 33 36 40 45 48 51 53 53 55 58 60 60 60 62 66 70 74 78 81 86 89 94 100 103 98 83 67 53 42
11 10 9 8 9 9 9 8 9 12 13 14 16 18 20 23 25 28 32 35 38 41 45 49 50 52 54 54 59 62 61 61 62 65 69 73 77 82 86 89 93 99 100 94 78 61 46 37 35

GFSSGP_500_spd_012.txt.gz
Wind_Speed
29 27 25 25 24 26 29 32 35 35 32 31 31 34 34 35 34 36 35 35 36 34 34 19 15 14 15 16 17 16 14 10 9 11 11 9 6 6 6 8 10 14 16 18 19 22 24 25 25
26 26 25 23 23 24 19 31 31 33 31 30 31 35 34 37 38 40 39 43 37 36 39 13 11 12 14 13 13 13 10 8 9 11 11 9 9 8 9 12 14 17 19 21 22 24 26 27 26
25 23 24 20 19 17 16 28 29 29 29 25 27 34 35 36 37 37 37 41 35 35 23 8 9 12 12 12 12 10 7 6 9 10 11 11 11 11 13 15 18 20 22 23 25 26 25 24 22
21 21 20 19 17 23 28 29 26 24 25 23 25 26 40 42 40 36 35 30 31 29 17 13 6 11 13 13 9 7 7 8 8 9 9 10 12 14 16 18 19 22 24 25 25 25 25 22 21
21 18 18 15 20 26 26 28 20 19 22 21 30 27 38 33 33 27 26 12 18 13 7 4 9 9 10 8 7 7 8 7 6 7 9 13 15 17 19 20 22 24 26 25 26 28 29 27 25
18 16 14 12 20 21 24 26 17 19 22 24 14 15 10 14 21 25 27 26 27 2 1 7 9 7 8 8 8 8 6 7 7 10 13 16 18 20 22 23 26 26 25 26 30 29 29 26 27
20 17 18 19 19 23 26 25 20 20 28 25 21 10 3 6 9 4 6 7 7 3 7 11 9 9 9 9 9 8 8 9 10 14 16 19 22 22 23 26 27 26 26 27 30 29 28 24 29
19 16 15 19 19 19 24 23 27 24 14 11 3 5 5 7 6 7 6 6 5 4 11 10 9 11 12 11 9 10 10 13 14 17 20 23 23 23 25 27 30 30 28 29 27 28 26 31 33
19 16 16 18 18 20 23 23 24 19 9 5 5 6 4 7 4 3 5 6 8 11 11 10 9 11 10 10 11 11 13 15 18 20 24 23 25 27 29 29 31 30 30 29 26 30 32 36 37
19 18 20 17 17 17 23 23 15 13 9 4 7 5 3 1 3 7 8 10 11 10 9 10 10 9 10 10 11 14 18 18 22 25 29 29 30 32 31 31 32 32 32 29 31 30 30 34 37
21 20 18 15 16 12 9 26 7 5 3 3 3 8 8 4 5 7 10 10 11 12 11 9 7 8 10 11 13 16 20 23 27 30 32 33 35 32 32 33 33 31 32 33 33 29 32 37 38
19 16 19 17 14 15 10 13 8 8 7 6 5 9 8 5 5 6 7 8 9 9 8 8 9 8 8 12 14 17 22 26 30 33 33 34 30 27 34 36 33 31 30 31 30 31 34 36 39
18 17 12 9 4 5 17 8 3 8 8 8 7 5 6 4 4 6 6 6 7 7 8 7 6 8 11 15 19 21 25 29 33 34 31 34 33 26 17 25 29 32 29 34 34 37 39 42 43
19 16 13 7 12 12 7 4 4 10 9 10 6 5 5 4 3 4 5 6 7 6 7 7 8 11 14 18 22 23 22 36 30 28 33 29 30 21 27 27 41 37 38 37 40 41 43 43 45
18 12 6 3 5 9 4 2 8 11 7 6 3 3 7 7 5 6 7 8 8 9 10 11 12 15 17 18 19 21 24 31 24 19 24 33 29 34 35 45 42 40 39 46 47 47 48 47 45
18 14 9 5 5 10 6 4 10 7 5 2 2 4 5 6 7 8 8 9 8 10 13 14 18 20 21 20 23 34 24 37 36 34 34 34 38 40 34 36 39 46 49 50 48 45 43 43 43
14 6 5 5 10 13 10 9 10 7 6 4 6 6 7 9 10 9 8 9 11 14 16 17 19 20 21 25 29 37 36 39 43 43 42 39 39 39 40 43 44 45 47 47 45 45 45 47 49
5 7 6 5 9 12 12 10 9 7 7 8 9 9 10 13 13 13 12 12 15 17 19 21 22 24 27 32 36 37 42 45 44 46 45 41 38 39 40 42 44 46 48 48 48 51 54 56 56
9 13 10 8 9 12 12 11 8 7 8 11 11 11 13 13 14 14 14 17 19 22 23 22 21 27 30 36 38 39 42 45 50 47 44 42 40 40 42 44 47 50 52 54 57 59 61 60 61
7 15 11 10 12 13 12 10 7 9 10 10 10 13 15 14 12 13 16 18 19 20 19 21 25 30 35 39 41 43 45 48 46 47 46 44 45 48 52 54 56 57 58 60 59 57 58 62 66
8 16 10 4 5 7 11 10 11 9 9 8 9 10 12 13 13 13 16 18 19 23 23 26 30 34 35 40 40 42 45 45 46 48 48 48 50 52 55 56 56 56 56 58 60 63 66 69 72
11 19 15 10 9 6 8 10 12 11 9 10 13 14 14 15 14 15 18 19 21 23 24 27 30 30 32 34 34 36 40 44 48 50 51 54 54 55 56 57 58 59 60 63 67 69 72 74 79
15 13 17 13 15 15 13 15 19 15 12 13 16 17 17 15 15 17 19 21 20 18 18 19 22 25 29 31 35 39 42 45 48 51 54 56 57 58 59 58 58 61 64 67 70 74 78 82 85
17 12 15 17 19 20 22 20 18 15 15 18 19 18 16 15 17 17 17 14 13 15 18 20 23 27 31 35 39 43 45 49 52 54 57 58 58 59 60 60 62 65 68 72 76 80 84 88 92
14 13 15 17 18 18 17 21 17 16 17 20 19 17 15 15 14 13 12 13 15 18 21 24 27 31 36 40 43 46 49 52 52 54 57 58 59 60 61 63 66 69 73 77 82 86 90 92 96
20 16 18 19 17 16 16 17 15 15 17 17 16 13 11 10 10 13 15 16 19 23 25 27 30 34 37 41 44 47 50 52 53 56 58 61 62 62 62 65 69 74 77 81 86 89 93 98 103
17 18 17 19 18 17 13 10 13 13 13 11 8 8 9 11 13 15 17 21 24 27 29 31 34 37 40 43 46 48 54 54 57 58 62 63 62 62 64 68 73 76 81 85 88 94 100 104 102
20 18 18 16 13 11 5 5 6 6 6 8 10 11 13 15 17 19 22 25 28 31 33 34 38 41 43 46 49 53 56 58 58 61 63 61 62 64 68 72 76 80 84 89 95 101 104 93 78
18 15 13 13 10 7 6 7 9 11 12 12 14 16 18 20 21 24 27 30 32 35 37 38 41 45 48 51 53 56 59 59 60 62 62 62 64 68 71 76 79 84 87 93 102 104 86 73 62
15 14 13 13 11 10 11 10 13 13 15 17 19 20 23 25 27 30 33 36 39 41 42 43 46 48 52 55 57 59 60 60 61 62 62 65 68 72 76 79 84 87 94 101 94 79 70 60 49

GFSSGP_500_spd_015.txt.gz
Wind_Speed
29 27 27 28 29 30 28 16 29 30 36 34 34 34 37 38 34 33 37 40 32 37 41 39 33 30 21 18 18 17 15 14 13 10 13 12 10 8 7 6 9 11 14 15 17 18 20 22 22
28 25 25 27 26 17 12 17 28 33 31 37 33 34 35 35 35 37 36 37 33 36 43 44 35 40 18 16 17 15 14 13 10 10 13 13 11 10 8 9 11 14 16 18 20 20 22 23 22
25 23 24 25 22 15 13 15 35 36 36 35 33 34 34 34 34 33 37 39 37 40 45 46 38 24 17 16 15 15 12 12 10 12 14 14 14 11 10 12 14 17 18 19 20 21 22 22 21
23 22 24 23 14 12 25 21 28 29 34 35 34 34 27 31 33 33 37 38 40 44 44 40 38 17 14 15 15 14 12 12 11 14 15 14 12 11 14 15 17 20 22 23 23 22 25 25 24
24 22 21 17 14 19 34 27 17 26 23 29 33 32 33 33 37 32 35 38 42 37 40 37 17 19 17 15 16 12 12 11 11 12 12 12 13 15 16 18 21 22 23 25 23 22 27 26 27
24 21 18 11 14 29 25 21 24 29 27 24 21 23 28 26 26 35 27 30 41 34 33 29 19 18 13 14 9 10 10 9 9 9 10 14 16 19 21 22 23 26 26 27 28 26 27 28 27
23 18 15 11 12 20 26 29 17 23 27 22 14 16 19 22 20 11 21 17 12 13 26 15 18 14 9 7 7 8 8 6 7 10 14 17 20 23 24 27 27 27 27 32 28 26 26 27 26
24 20 15 15 25 33 28 24 30 27 31 26 24 22 15 13 12 15 22 19 30 23 11 8 8 8 7 6 5 7 7 8 10 15 18 21 23 26 28 31 30 29 28 30 28 28 28 29 30
22 16 10 15 23 33 26 27 27 28 32 28 7 17 6 3 5 8 9 8 11 9 4 4 5 3 3 5 7 7 10 12 14 17 19 23 26 30 32 34 35 32 32 32 31 30 29 32 32
20 12 9 24 26 10 21 20 17 10 12 24 24 9 11 6 5 8 8 7 6 4 2 3 3 4 6 8 8 9 9 12 16 19 22 27 28 29 33 35 32 35 34 34 36 34 31 32 34
19 15 15 17 8 22 17 15 15 16 18 13 11 12 9 5 4 5 8 8 6 5 5 4 4 6 6 7 8 10 13 16 19 22 26 28 27 28 31 36 29 37 37 35 32 33 30 34 36
18 22 18 19 22 15 12 9 5 15 1 12 6 7 8 4 4 4 3 3 4 4 5 5 7 7 7 8 10 14 17 21 23 26 31 32 27 29 33 32 30 26 30 31 31 32 39 43 41
21 17 20 21 16 7 9 5 7 8 7 7 9 7 6 5 3 3 4 3 2 3 4 7 8 7 9 11 15 19 22 24 26 29 32 30 25 28 33 33 35 29 38 36 45 46 43 41 40
15 17 16 11 11 19 11 7 6 8 4 4 7 4 2 3 3 2 2 2 3 5 7 8 8 9 12 15 19 21 25 29 24 27 20 23 28 29 34 37 43 44 42 46 51 45 45 46 50
18 19 17 9 10 10 9 4 8 9 6 3 3 3 5 5 4 6 6 5 5 7 8 10 12 13 15 17 20 23 27 21 26 35 41 46 33 32 31 40 40 40 36 41 44 49 52 51 47
17 9 11 2 8 7 13 10 9 8 6 5 4 3 3 5 6 7 6 5 7 8 10 13 15 18 19 20 21 24 32 39 38 39 39 41 44 40 32 35 35 39 41 42 44 45 46 46 47
16 10 10 9 10 9 12 15 8 7 7 5 4 4 4 7 7 8 6 7 9 11 13 16 19 20 22 20 24 27 34 39 38 41 44 47 44 41 42 40 40 40 42 44 45 47 50 52 51
12 6 9 7 9 12 8 15 11 8 7 7 6 6 6 7 9 10 10 10 12 15 17 20 24 24 22 24 29 33 37 42 44 45 46 45 44 42 42 41 42 45 49 52 54 55 55 55 56
6 6 7 11 7 12 11 11 8 9 8 7 8 8 10 12 11 12 12 14 17 20 22 22 24 22 25 29 33 36 38 37 35 40 44 45 46 46 47 49 52 53 53 56 56 55 55 56 56
7 8 13 10 7 10 12 10 7 7 9 10 11 12 12 12 13 13 14 17 19 21 25 24 26 28 31 33 35 33 32 33 36 38 41 43 46 49 51 51 53 55 56 57 57 58 56 56 58
6 9 11 4 2 7 10 13 9 8 10 10 11 12 11 11 13 16 18 19 20 24 25 26 26 28 30 29 28 28 30 34 37 39 42 45 48 51 53 56 57 57 57 57 57 58 58 59 61
10 11 6 11 3 5 10 11 21 12 12 9 10 13 16 17 19 21 22 21 25 27 27 23 21 21 22 24 27 30 34 38 41 45 48 51 52 53 55 58 58 59 58 58 58 60 61 65 68
17 2 14 12 8 12 10 14 28 10 16 16 15 17 20 22 24 24 22 24 27 23 17 17 18 21 24 27 30 33 36 40 43 47 51 53 55 56 58 61 61 61 60 61 61 63 68 72 75
10 9 8 10 8 16 13 15 14 16 21 27 23 24 24 25 25 25 26 25 20 16 17 19 21 23 27 30 33 36 40 44 47 50 50 54 57 58 60 62 63 63 63 63 66 70 73 77 82
13 10 7 9 15 14 16 20 16 17 16 26 27 28 28 27 26 26 23 18 17 16 19 23 25 28 31 35 37 41 45 49 50 51 56 59 60 61 62 64 65 65 66 69 72 76 80 83 86
10 10 12 14 11 11 18 21 16 24 29 27 27 28 24 23 21 18 18 18 19 22 25 27 30 33 36 39 42 45 48 51 53 56 60 61 63 63 63 65 66 66 69 73 76 81 85 88 92
14 18 19 19 18 19 20 17 21 19 23 24 20 17 16 16 16 17 19 22 24 28 31 33 36 39 41 44 47 49 51 53 54 57 60 63 64 64 65 66 67 68 72 76 81 86 88 93 102
18 18 16 19 21 19 6 13 12 13 11 10 10 12 15 17 21 22 25 28 31 34 37 39 42 44 47 50 53 55 56 57 58 60 62 64 65 65 66 66 67 72 76 81 85 87 93 103 93
18 19 18 19 17 14 11 6 13 11 11 13 15 17 20 23 25 27 30 33 36 39 42 45 48 50 53 55 58 60 60 60 59 61 63 65 64 65 65 67 71 76 81 84 86 92 101 92 83
19 18 18 18 18 15 13 12 13 15 17 17 19 21 23 25 29 32 34 37 41 44 47 49 52 54 56 58 60 60 61 61 62 63 64 64 65 64 67 69 74 78 82 85 90 96 99 82 73

GFSSGP_500_spd_018.txt.gz
Wind_Speed
27 29 29 30 29 29 26 25 16 25 31 25 35 40 33 31 32 33 32 40 38 37 37 43 42 40 40 37 32 30 27 22 20 16 13 19 18 14 11 8 7 9 10 12 13 15 16 17 17
27 28 26 27 29 26 18 10 35 35 28 30 33 38 37 34 35 38 39 41 34 39 40 39 39 43 40 40 38 33 25 20 20 15 15 20 18 13 10 9 10 11 13 15 15 16 17 17 19
25 26 25 23 24 22 12 28 36 28 29 31 36 37 38 37 37 37 34 37 38 39 37 40 43 44 42 40 39 28 23 18 17 16 15 18 15 12 9 12 13 15 17 18 18 19 18 19 20
24 23 22 24 22 8 7 31 19 27 32 33 34 35 35 35 36 35 31 31 29 34 42 46 47 49 48 43 34 26 18 15 15 13 12 14 12 10 12 15 16 18 21 22 22 22 22 23 22
24 23 22 20 14 15 17 32 38 33 34 21 23 23 32 34 36 30 30 31 34 35 37 47 50 54 43 39 25 22 10 11 9 8 9 10 10 12 14 17 20 21 24 26 26 26 27 27 26
26 23 21 12 4 8 24 38 37 34 30 25 22 29 30 34 32 29 34 33 33 35 30 34 39 33 31 27 21 12 4 6 6 7 7 8 12 15 17 20 23 25 27 28 27 27 28 25 25
25 22 16 13 15 16 26 35 38 25 29 23 31 24 5 20 24 25 22 28 28 33 35 37 25 23 20 14 14 10 4 5 5 6 13 11 13 17 20 21 24 27 29 30 30 31 29 27 27
26 22 21 19 11 30 23 12 21 21 28 27 28 27 25 8 12 16 17 25 33 37 12 22 14 10 8 6 10 6 3 5 7 8 9 12 15 18 20 25 26 29 31 29 30 32 33 33 34
29 25 18 2 15 34 35 35 18 26 24 29 33 35 34 19 11 17 18 3 6 28 37 11 5 2 8 11 8 3 4 4 7 10 13 14 18 22 26 28 28 30 31 29 29 31 32 32 32
25 16 10 23 30 31 23 25 20 25 29 23 22 4 6 16 16 14 16 19 13 11 9 4 11 14 13 7 3 4 6 8 10 13 16 18 22 25 27 29 26 30 28 25 28 28 28 26 29
23 20 6 28 23 34 11 16 22 16 18 13 15 9 14 8 9 14 12 4 7 11 11 10 8 4 2 3 3 5 8 11 15 17 18 19 26 26 28 24 26 32 34 28 24 36 33 31 33
21 20 4 9 3 4 3 19 5 12 11 16 23 17 14 11 10 9 9 6 4 3 4 4 2 2 2 3 5 7 10 14 17 20 20 23 17 24 33 27 28 34 32 30 41 46 45 36 40
20 16 21 19 18 9 14 10 5 8 5 12 12 13 10 9 8 7 6 5 4 2 1 2 4 5 4 6 8 12 15 17 29 25 21 13 22 35 31 30 31 31 35 38 47 47 47 41 41
18 13 18 22 19 13 17 11 8 7 6 9 9 13 7 5 4 4 5 4 3 1 3 5 6 8 8 10 14 16 18 18 13 32 21 30 30 29 33 33 30 30 32 33 33 35 40 43 48
20 21 15 18 13 14 8 10 8 4 2 4 5 5 4 3 4 6 6 5 3 3 5 8 10 11 12 15 17 18 20 20 25 30 28 31 32 34 33 32 33 33 33 34 34 37 38 40 40
16 17 16 8 11 7 10 5 1 9 4 2 4 4 5 4 2 2 4 3 4 5 7 7 11 13 16 18 20 22 22 25 30 34 34 29 29 31 33 35 36 37 38 39 40 42 44 47 48
17 9 9 5 11 7 8 8 4 6 5 2 5 2 1 1 0 3 5 5 8 7 11 14 16 17 20 23 24 25 27 31 34 32 31 31 32 35 37 38 39 41 41 42 45 46 47 48 49
8 10 6 2 2 7 3 12 6 8 8 1 7 4 2 0 2 3 6 8 11 12 14 18 20 21 21 25 26 27 31 33 28 26 30 34 39 41 42 42 42 44 46 50 53 55 55 53 52
11 8 6 9 6 10 9 13 10 11 7 7 6 9 3 1 3 5 7 11 14 17 17 21 22 20 23 27 29 29 30 23 25 30 33 36 39 41 43 46 49 51 53 54 55 57 58 54 52
3 2 12 15 11 11 12 14 9 6 6 5 8 4 7 6 6 7 10 14 17 22 20 23 24 27 27 27 26 25 23 25 28 32 35 38 42 43 45 47 49 52 55 57 58 59 59 55 53
4 9 14 9 5 9 16 14 17 7 8 7 5 8 9 9 8 12 14 17 20 23 23 25 28 27 23 21 21 23 25 29 32 36 38 42 45 47 48 50 52 55 57 58 59 60 59 57 57
12 14 14 12 3 3 10 10 15 24 9 10 10 10 13 18 15 16 21 22 23 25 28 29 22 20 20 22 25 28 31 35 37 39 43 47 49 50 52 53 56 59 61 61 61 62 59 59 61
8 18 12 5 13 17 23 16 22 22 15 14 13 14 19 23 24 23 25 25 26 28 27 20 18 19 23 26 28 33 36 40 43 46 49 51 54 56 56 60 62 63 64 64 63 62 60 62 65
8 4 5 11 11 17 11 12 22 19 24 19 19 17 21 27 30 30 29 28 28 25 20 19 20 24 27 30 34 38 41 45 47 50 52 54 56 56 56 62 62 65 65 64 64 62 64 68 70
12 6 3 12 15 8 6 20 17 21 16 22 15 15 22 30 32 33 29 26 21 20 21 22 25 29 32 35 39 43 46 48 51 54 56 58 60 60 61 63 64 65 64 64 62 64 66 71 76
3 15 11 17 19 10 16 13 11 19 25 30 33 32 23 27 28 25 19 17 19 22 24 28 32 35 38 41 45 48 51 53 55 57 59 61 62 59 60 63 65 64 62 60 62 65 70 74 79
11 12 16 18 15 10 14 14 14 19 22 22 31 25 21 19 16 16 18 22 23 27 30 34 38 41 43 47 50 53 55 57 58 59 61 61 61 60 62 64 66 64 62 63 67 70 73 78 84
13 15 12 16 18 16 8 2 15 22 14 15 16 12 13 15 17 21 24 26 29 32 35 39 43 46 47 51 53 56 58 59 60 61 61 60 59 61 64 66 65 62 64 67 71 75 77 82 88
14 16 16 18 19 16 11 10 15 21 15 13 16 17 18 20 24 25 28 31 34 36 39 43 47 49 49 52 55 58 60 61 61 61 60 58 60 62 64 64 62 63 67 70 75 79 78 84 92
18 14 15 20 18 18 14 14 19 16 17 18 19 22 25 27 29 31 32 35 39 42 45 46 50 52 53 55 57 59 60 61 62 60 58 59 61 62 63 62 63 66 69 73 80 82 81 89 96

GFSSGP_500_spd_021.txt.gz
Wind_Speed
28 30 32 32 30 28 23 21 15 20 20 24 31 29 33 31 29 33 30 31 34 36 37 25 33 35 39 41 44 37 38 38 26 25 20 17 20 21 18 13 10 9 9 11 13 14 15 14 13
28 28 29 30 28 25 24 9 11 13 20 26 24 24 33 34 33 35 33 35 36 41 45 37 31 38 44 41 40 39 37 36 33 26 21 17 22 21 17 13 11 11 13 13 15 16 17 17 17
25 27 27 26 24 25 14 11 13 20 19 33 27 30 29 35 34 33 32 34 37 40 42 37 42 44 42 41 43 41 40 41 31 24 19 15 18 18 15 12 14 14 15 16 18 20 21 19 20
25 26 24 23 19 8 16 11 12 18 24 24 32 31 32 32 35 35 41 35 34 37 36 39 39 37 46 47 46 38 36 31 26 21 13 12 17 18 14 15 14 16 18 20 22 22 23 24 25
24 24 23 21 11 15 9 14 22 22 26 25 28 31 31 21 26 30 32 31 30 33 31 31 35 41 49 50 42 37 32 26 22 8 9 13 16 14 15 14 15 19 20 21 23 24 25 24 24
24 25 22 12 14 8 12 15 22 27 29 26 32 26 33 30 29 24 23 24 29 23 29 29 23 24 50 45 38 31 21 21 7 10 10 9 10 10 11 15 17 20 22 24 25 25 25 25 26
23 25 21 21 14 9 28 26 29 30 33 28 30 31 36 31 30 19 20 23 29 24 26 36 27 25 27 24 25 17 13 11 9 8 5 4 8 9 14 19 20 23 26 30 30 31 27 26 27
24 27 22 24 13 19 23 28 29 31 16 21 25 29 30 30 22 9 17 27 23 21 30 40 33 25 23 16 10 9 15 9 5 2 5 9 8 15 16 20 23 25 28 28 30 31 25 25 27
27 29 20 21 9 15 20 26 26 30 16 22 24 30 29 25 16 11 13 18 21 33 33 42 22 24 8 10 11 16 6 5 4 5 9 12 11 15 18 21 25 27 28 24 26 29 18 26 26
19 20 16 15 13 18 21 23 29 32 29 20 16 20 26 26 17 13 23 13 12 30 28 11 7 14 21 24 18 11 8 6 5 7 10 13 14 16 19 17 20 20 22 28 32 35 29 27 29
21 18 14 4 15 20 16 24 18 15 28 15 14 8 10 11 8 12 9 4 17 12 9 19 20 19 14 11 7 6 5 2 8 11 15 18 17 16 17 21 30 22 25 27 27 29 33 33 40
25 16 4 8 5 17 13 6 12 11 14 9 6 14 9 11 7 8 4 10 10 8 10 11 13 11 8 7 3 2 3 3 8 8 12 13 15 15 27 25 25 26 26 23 26 29 33 37 36
15 10 7 15 16 14 4 3 6 6 6 3 5 2 6 6 6 5 6 3 4 7 8 9 9 6 4 3 3 4 6 8 11 9 18 18 16 21 22 25 23 23 24 24 25 26 28 31 35
9 16 5 7 22 16 11 5 10 4 10 9 3 5 8 11 10 9 4 4 1 2 5 6 5 5 4 3 5 7 9 11 12 15 19 23 21 18 18 19 20 23 26 27 28 29 31 34 36
18 21 7 8 17 10 15 11 6 8 10 8 6 5 6 5 5 9 11 7 2 2 2 4 4 4 6 8 9 12 13 15 17 21 22 18 16 17 19 22 26 28 30 31 32 33 36 38 39
15 13 10 12 14 5 2 6 8 9 5 3 4 4 8 6 5 5 6 3 2 4 4 6 7 9 11 13 15 18 16 18 20 24 17 16 20 23 25 27 30 32 34 36 38 40 41 44 46
17 17 15 10 14 3 5 5 5 6 3 13 9 2 2 4 3 4 5 5 2 4 6 8 11 15 19 16 18 19 21 24 25 18 18 21 24 27 31 33 35 38 39 40 42 44 47 49 49
12 12 17 8 5 7 1 4 6 8 10 7 7 5 4 4 2 2 2 4 2 5 6 11 16 18 20 17 19 22 21 21 19 19 23 27 30 34 36 37 38 41 42 44 46 48 49 52 52
12 6 3 6 1 5 9 3 10 9 8 7 3 1 2 8 2 3 4 8 4 6 15 15 16 17 22 21 21 19 18 18 21 24 28 33 36 39 41 42 43 46 48 49 50 51 53 55 55
12 8 4 9 11 4 9 12 2 4 8 9 7 5 2 2 4 6 9 11 11 13 16 14 17 22 23 18 16 17 19 22 25 29 34 38 40 43 45 46 48 51 53 54 55 55 57 58 57
4 5 16 10 10 9 15 14 9 5 6 12 10 4 2 3 4 7 11 18 19 20 21 19 23 21 16 16 19 21 24 27 30 34 38 42 45 48 51 52 54 56 59 57 56 58 58 58 58
3 9 14 10 6 5 7 11 21 23 15 9 17 12 12 5 4 9 15 22 24 25 23 25 23 18 17 20 23 25 29 31 35 38 41 44 47 50 53 56 59 61 61 61 60 59 60 60 57
3 10 9 8 5 8 15 16 23 25 16 14 12 13 19 18 15 14 16 21 25 26 24 23 20 19 20 24 27 31 35 38 41 45 47 50 52 55 58 59 61 61 62 61 60 60 62 59 56
5 1 11 15 17 17 11 16 12 12 19 13 16 17 19 22 23 23 21 22 21 21 19 17 19 20 24 29 33 36 39 42 46 50 52 55 58 59 59 60 61 62 61 59 59 62 60 57 58
11 12 14 13 17 15 18 20 6 8 11 13 17 12 17 22 22 22 22 17 15 14 17 19 20 24 29 34 38 42 45 49 51 54 56 57 58 59 60 60 60 60 58 58 62 60 58 60 62
9 13 16 15 15 17 21 16 12 8 9 13 14 13 15 16 17 15 12 11 13 17 21 24 26 30 33 38 43 47 50 52 54 55 57 58 59 61 61 60 59 59 59 61 60 59 61 64 66
13 13 14 18 19 12 7 11 15 13 14 19 16 14 10 8 8 8 10 13 17 22 26 29 31 34 37 41 46 50 52 53 55 57 58 59 59 61 59 58 59 60 61 60 59 62 65 69 73
12 14 17 18 19 13 7 11 12 12 13 16 16 8 9 11 13 14 17 19 21 27 31 35 37 39 41 43 48 50 52 53 56 56 57 59 60 58 57 59 61 62 60 61 64 69 76 80 83
16 17 18 18 19 16 8 14 13 14 18 20 19 17 16 16 19 22 24 26 28 30 34 38 42 45 46 45 49 52 53 55 56 56 58 58 56 57 59 61 61 62 63 65 70 74 81 86 90
17 13 15 17 15 20 12 11 18 17 20 20 21 24 22 23 24 27 30 31 33 36 39 43 47 50 49 48 50 53 54 56 55 55 57 55 57 60 59 59 62 62 66 68 72 78 80 85 85

GFSSGP_500_spd_024.txt.gz
Wind_Speed
27 28 29 30 29 34 33 28 24 26 23 23 23 19 19 22 25 25 28 32 34 34 37 35 32 33 27 30 30 32 35 36 39 32 32 24 23 21 21 17 14 12 12 12 13 15 17 19 17
24 27 27 28 30 31 27 17 16 19 24 22 22 23 23 27 32 33 32 37 38 38 39 39 37 31 37 38 36 37 37 38 37 33 32 28 21 20 21 17 15 13 15 14 15 17 20 21 20
22 26 27 26 28 30 17 14 18 20 20 22 24 28 28 30 29 29 34 40 39 39 40 41 37 36 36 35 39 39 38 38 37 32 34 28 17 18 20 16 16 18 15 15 17 18 19 18 20
23 25 27 27 26 14 15 19 21 24 25 25 27 26 32 34 28 30 28 37 43 45 43 39 38 37 34 36 37 37 39 41 36 38 36 20 15 15 18 20 21 16 15 17 19 21 22 22 21
23 23 24 25 11 10 25 26 23 20 22 21 18 21 27 30 32 28 25 29 35 41 37 30 36 32 31 35 42 41 40 37 34 37 18 6 9 14 19 19 16 16 19 21 22 25 27 28 27
23 26 23 14 15 23 23 17 18 20 23 22 20 23 29 34 33 35 33 33 34 34 36 35 33 29 27 41 46 45 38 36 31 17 10 10 14 16 14 13 15 19 23 24 27 30 31 31 30
23 21 16 16 18 19 31 23 20 17 22 21 24 30 29 31 32 29 30 29 33 36 30 37 38 23 34 37 32 30 28 19 10 9 8 9 9 9 10 15 17 22 25 27 28 28 28 27 28
24 24 21 20 24 23 26 18 14 15 22 24 23 27 28 26 27 27 30 23 31 32 26 36 40 22 28 28 23 17 9 16 11 10 6 6 6 12 13 18 20 20 21 25 27 22 26 29 27
24 19 22 20 31 18 17 14 13 15 18 26 19 21 25 27 30 27 23 18 15 22 38 17 36 40 28 19 14 12 17 15 12 9 8 9 12 15 20 19 19 20 20 20 20 22 25 26 25
12 20 23 26 28 19 13 10 11 16 19 23 21 21 21 21 19 13 16 19 24 27 28 28 27 23 15 12 18 17 14 12 8 6 9 12 13 15 16 13 14 19 22 21 23 23 26 28 29
9 20 25 24 21 17 14 12 18 12 13 11 20 19 21 20 20 21 21 21 17 18 32 28 16 8 11 18 17 16 10 5 5 8 10 4 6 9 15 20 23 22 23 22 23 23 24 26 30
13 22 21 18 15 12 15 18 13 10 8 5 14 10 15 12 16 15 7 2 4 12 16 14 15 10 14 12 11 9 7 8 6 5 8 8 13 14 16 17 18 15 14 16 18 21 24 27 30
20 19 10 15 15 5 2 9 4 8 5 10 10 4 8 14 16 10 3 9 14 14 16 17 16 15 13 11 8 6 5 3 6 7 8 13 15 16 11 10 14 16 19 23 26 28 30 31 32
19 17 7 8 10 7 10 6 5 6 8 12 8 7 7 4 6 10 10 13 13 13 13 12 13 12 9 6 4 0 4 5 6 8 12 15 12 8 10 14 19 23 25 27 28 29 31 32 34
20 11 6 6 1 3 9 7 4 8 11 8 6 4 6 6 2 2 8 10 10 9 8 8 7 6 4 3 2 4 6 7 9 12 16 11 9 12 15 20 23 25 27 28 30 32 34 36 37
13 11 15 2 3 3 9 6 5 6 4 7 4 4 8 7 5 0 5 7 9 9 8 6 4 5 5 5 4 6 8 11 15 16 12 9 14 17 19 23 26 29 30 32 34 37 39 40 40
12 17 6 2 5 8 9 5 6 7 8 3 3 2 6 4 7 3 4 5 5 5 4 3 4 7 7 8 8 10 12 15 16 12 11 14 19 22 25 28 33 35 37 38 40 41 44 47 46
15 14 7 8 5 2 2 4 8 6 6 7 7 5 2 6 6 6 3 3 4 4 5 8 9 9 10 14 14 14 14 13 11 12 16 19 23 27 31 34 37 39 41 43 46 48 51 52 50
16 21 17 15 10 3 4 2 4 6 4 4 5 4 5 2 2 6 6 5 5 7 10 13 11 14 15 17 13 10 10 12 14 18 22 26 29 32 37 39 42 44 47 50 52 52 53 53 52
10 11 8 12 8 7 8 9 2 3 2 6 4 4 7 6 4 3 6 6 5 9 9 8 10 16 16 12 10 12 15 17 21 25 29 32 36 39 42 45 48 50 53 54 56 57 56 56 54
14 16 11 8 5 2 11 11 6 5 3 2 3 3 4 7 1 3 2 4 6 10 13 6 13 12 11 11 12 16 19 23 27 30 33 37 39 42 46 49 52 54 55 56 58 58 57 54 53
11 13 14 11 11 12 9 15 7 7 8 8 5 3 4 5 3 8 8 11 12 11 12 11 15 10 10 14 17 21 25 29 32 35 38 41 44 47 49 52 54 57 58 59 59 58 55 54 54
3 8 13 11 13 14 9 11 13 15 17 14 12 10 3 2 2 6 8 11 14 15 14 12 9 12 14 17 22 26 30 34 37 40 43 46 48 50 52 55 58 58 59 59 58 56 55 56 57
8 5 11 12 15 18 16 19 16 15 4 4 7 10 11 10 8 8 8 10 11 14 15 11 14 16 19 22 27 32 36 39 42 45 48 51 52 55 57 59 59 59 60 59 57 57 58 59 57
14 9 13 16 21 23 21 20 10 12 10 4 5 13 7 7 8 11 9 8 8 9 12 12 16 20 25 28 32 37 41 45 48 51 53 56 57 59 60 60 58 61 60 57 60 61 60 59 60
16 14 17 21 22 19 14 23 14 6 6 8 5 11 8 8 8 5 4 4 8 13 15 17 20 25 29 33 38 42 45 48 51 53 55 57 59 59 60 58 62 61 59 60 62 61 62 63 62
14 11 15 22 23 18 16 14 14 9 8 6 4 4 4 2 4 4 6 8 13 18 21 22 25 30 34 38 42 45 49 51 52 53 55 56 57 59 61 59 59 59 62 62 60 63 66 66 68
14 18 16 18 21 17 14 16 16 15 11 9 6 5 6 7 10 9 10 12 17 23 26 29 32 35 39 42 45 46 48 51 53 54 56 57 57 59 58 56 58 62 62 62 64 65 66 69 71
22 19 18 17 20 17 15 16 17 16 17 17 12 10 11 12 14 14 14 16 21 27 32 35 38 41 42 41 42 44 48 50 53 54 55 55 55 54 55 59 62 62 63 65 67 67 70 74 80
19 15 18 22 21 22 19 15 16 20 22 22 18 14 14 15 17 18 19 22 28 31 34 37 40 40 41 39 41 45 49 53 53 52 51 51 51 56 59 61 62 63 66 68 70 72 76 82 83

GFSSGP_500_spd_027.txt.gz
Wind_Speed
22 25 30 31 29 30 33 30 26 23 30 26 25 27 29 21 21 26 25 25 28 30 30 33 33 33 32 26 27 30 33 32 31 33 33 29 26 26 18 18 18 15 14 15 16 16 16 17 18
24 25 30 31 30 30 24 18 23 22 27 27 27 30 30 23 22 24 29 32 33 36 37 38 39 38 34 32 28 36 34 31 33 32 32 27 26 21 16 18 20 17 18 18 17 17 18 19 19
23 26 29 33 34 23 14 12 13 22 26 28 25 25 25 22 22 26 30 31 32 36 41 42 39 33 31 31 32 33 32 32 34 32 31 25 26 22 17 19 20 21 20 21 18 20 22 23 22
23 25 28 31 24 18 11 19 18 22 26 23 25 26 28 23 27 26 28 31 33 32 36 40 41 37 35 36 37 34 31 32 31 32 30 26 23 15 16 18 20 19 21 21 22 24 24 24 26
22 24 26 25 17 13 17 22 25 28 26 27 23 22 26 28 31 32 32 31 31 35 38 41 39 33 32 36 34 33 31 33 34 34 32 26 15 19 16 18 14 19 22 21 23 25 28 31 30
18 20 21 18 13 17 23 29 28 28 28 26 25 23 23 25 25 30 34 36 36 43 43 45 35 33 33 30 32 30 32 38 37 36 30 10 8 9 12 16 19 18 20 21 23 29 30 30 28
15 17 13 17 22 25 28 29 29 28 24 25 22 24 26 29 28 31 36 37 38 38 46 35 38 32 35 25 30 30 38 45 37 26 11 10 12 14 14 13 14 17 21 24 22 22 20 23 25
13 14 20 23 22 23 23 27 26 19 25 25 22 21 26 25 29 32 34 32 24 28 29 39 40 46 40 28 31 37 37 30 16 15 12 11 12 10 7 7 14 20 24 25 21 19 20 24 25
15 21 19 20 20 22 10 20 23 19 16 17 19 22 20 19 22 25 28 29 26 23 35 39 45 46 40 36 30 28 29 19 16 13 10 4 4 5 9 14 22 24 17 19 21 23 23 24 26
18 23 19 19 19 17 11 14 16 14 14 18 20 21 19 18 22 22 22 21 17 17 23 31 27 19 26 20 24 22 18 20 15 11 8 8 11 13 16 16 17 19 23 23 19 18 20 21 22
16 24 24 22 17 15 20 14 16 15 18 17 17 18 22 19 21 23 23 16 19 18 25 17 21 29 26 15 22 22 16 11 8 6 7 7 6 5 9 13 18 20 17 15 16 20 22 24 26
15 21 27 20 17 16 16 19 17 17 15 13 14 11 16 22 19 23 17 10 18 7 15 15 10 9 6 15 18 13 11 11 8 5 8 6 7 9 12 13 14 10 14 18 21 23 25 27 30
13 11 21 13 14 15 8 18 16 17 8 14 10 6 13 23 12 7 11 17 13 15 19 18 17 15 16 12 12 10 8 9 8 5 4 8 12 14 11 7 9 13 17 22 25 27 29 31 33
9 10 10 15 20 6 1 2 8 6 2 4 8 7 6 14 18 17 14 17 17 19 19 18 16 13 13 9 8 6 4 3 3 5 7 10 11 9 9 10 14 18 22 26 29 32 34 36 37
11 20 9 5 12 1 3 3 6 2 8 9 9 10 5 12 14 13 14 16 14 13 12 14 13 10 9 6 6 3 2 2 4 6 9 11 6 8 12 16 21 24 27 32 35 37 39 40 41
18 15 6 1 3 4 8 13 9 5 3 9 9 8 6 10 14 14 11 12 11 11 10 9 6 5 2 2 1 3 3 6 8 9 12 7 8 13 18 22 26 29 32 36 39 40 42 43 45
20 15 4 4 6 9 8 12 13 10 3 5 9 3 5 7 11 12 12 11 9 7 6 3 3 1 3 3 2 6 8 9 8 7 8 10 13 19 24 27 30 33 36 39 41 43 45 47 48
14 12 13 8 9 7 8 8 11 9 9 10 6 6 6 7 10 12 12 12 10 10 8 5 3 1 1 6 7 5 4 3 4 7 11 14 19 24 28 31 34 38 41 42 44 47 49 49 50
16 16 13 13 12 10 11 5 9 7 5 6 6 10 10 7 5 7 9 9 8 5 1 2 3 1 4 6 3 2 3 6 8 13 17 21 24 28 31 35 39 42 45 47 49 51 51 52 51
12 13 16 13 4 3 6 5 3 5 7 5 4 6 7 6 4 5 5 4 4 3 1 1 2 4 4 4 5 5 7 10 14 18 22 26 29 33 37 41 45 48 49 51 51 51 52 53 52
16 18 18 13 5 2 1 2 5 8 6 3 2 5 3 5 8 6 4 4 5 5 3 2 5 7 5 9 9 9 14 17 22 26 30 33 36 40 44 46 48 49 51 53 54 53 53 55 53
14 13 14 13 10 8 4 3 9 10 7 2 5 5 1 4 5 5 4 3 7 8 5 6 8 11 9 12 14 15 19 24 30 33 35 37 41 45 47 48 50 51 53 53 54 53 56 54 53
14 15 13 12 13 10 10 8 12 11 8 6 7 3 7 13 8 7 7 6 8 9 5 6 10 13 12 14 18 18 24 30 35 38 39 43 46 49 51 53 54 55 53 55 55 56 56 55 57
10 12 15 17 14 15 17 16 12 9 6 8 10 11 6 10 9 7 5 7 9 12 7 11 11 13 12 17 21 24 30 36 39 41 44 47 50 51 53 54 54 56 56 55 56 57 57 60 62
14 14 13 19 19 17 20 21 16 17 15 9 9 10 8 9 10 9 6 8 8 9 8 7 11 17 19 22 25 29 36 41 43 45 48 49 50 51 51 51 55 56 57 59 58 59 62 64 64
22 18 19 19 20 22 22 13 7 18 9 16 12 7 8 10 10 7 8 7 8 9 9 11 14 20 24 28 31 35 40 45 47 49 49 51 51 50 48 51 59 58 58 58 60 63 65 65 66
17 18 19 22 22 24 20 15 12 8 14 11 12 7 8 8 7 6 6 8 11 13 11 16 20 24 28 33 37 42 45 45 48 50 51 51 51 50 50 55 57 58 59 61 63 65 66 69 73
17 20 24 24 22 22 17 17 14 13 18 17 17 12 10 8 7 7 8 12 16 15 18 22 25 29 34 38 42 45 44 47 50 51 50 52 52 52 53 55 56 58 60 62 64 67 70 74 76
18 26 26 25 27 21 18 17 15 16 16 18 18 15 13 12 11 12 13 17 17 19 23 27 32 36 40 42 42 44 43 46 49 51 53 55 53 53 53 55 57 59 62 64 68 71 75 76 80
26 14 26 27 23 22 21 15 15 18 18 20 19 18 15 14 15 17 19 19 21 25 28 31 33 36 39 43 41 40 44 45 47 51 56 53 52 53 55 57 58 61 65 69 73 76 78 79 84

GFSSGP_500_spd_030.txt.gz
Wind_Speed
21 22 24 30 31 32 28 23 27 29 34 25 26 29 25 23 26 24 25 26 24 23 26 26 27 29 30 31 30 27 27 25 26 27 28 25 24 19 21 16 11 12 14 12 15 17 17 17 21
19 21 25 29 31 30 23 20 22 27 29 32 25 28 29 27 27 24 25 26 25 27 27 28 30 31 33 34 30 27 27 27 29 30 26 28 25 22 22 16 13 14 15 14 17 19 20 20 22
18 19 24 27 31 26 20 16 18 23 29 31 34 31 30 32 31 33 28 27 29 29 30 31 31 29 29 29 26 25 27 27 27 26 28 25 26 25 25 19 13 16 16 17 18 20 21 23 24
16 18 21 24 27 26 23 21 18 22 29 29 33 29 25 27 31 33 30 30 31 32 31 30 29 29 29 27 24 32 32 28 27 28 32 25 27 26 24 14 14 14 19 18 19 20 22 24 25
12 16 17 19 22 23 20 20 23 23 28 28 28 28 29 25 27 30 32 32 32 30 27 29 32 36 30 29 26 25 28 27 28 28 29 30 32 23 16 12 10 14 17 13 20 21 21 25 28
11 13 12 15 21 17 18 24 24 28 27 27 27 27 25 25 25 28 32 34 33 31 33 35 32 33 33 41 21 29 29 27 29 29 37 34 33 12 6 7 15 15 16 20 19 20 27 27 26
8 8 9 14 18 21 22 26 28 30 28 24 24 25 26 26 28 28 29 31 31 32 35 38 35 41 50 43 38 31 33 31 30 32 39 30 11 7 7 12 14 16 15 14 17 23 28 30 24
6 9 14 19 19 17 21 23 24 24 21 23 22 28 29 33 30 25 28 32 29 30 33 26 45 48 52 44 42 31 30 32 33 32 21 13 8 10 13 11 10 8 13 20 24 26 23 25 24
6 16 15 16 16 16 15 7 10 16 15 19 25 25 32 27 28 29 27 27 29 28 26 40 43 45 47 42 42 33 38 32 27 10 13 10 9 9 6 8 13 16 19 23 20 21 19 17 17
14 16 14 14 10 10 14 3 6 11 17 13 20 23 26 26 24 24 23 27 27 27 26 27 40 41 44 45 43 44 29 25 18 20 15 14 7 8 10 14 18 18 18 19 16 11 14 17 21
20 18 17 12 12 9 7 13 10 14 18 19 21 25 24 24 27 27 21 22 20 17 21 23 27 30 34 32 25 32 26 14 15 14 11 8 13 15 11 9 14 17 18 12 13 15 18 22 25
18 20 14 8 11 10 9 16 15 13 17 21 25 25 22 25 22 24 16 16 17 22 5 15 3 15 18 20 20 20 15 15 11 11 10 10 10 9 10 14 13 8 10 12 17 21 24 26 29
9 13 15 13 10 8 9 12 14 18 21 21 18 20 16 16 21 21 17 6 11 20 20 23 22 21 15 17 17 16 15 13 12 10 8 11 12 10 9 5 6 10 13 18 21 25 29 32 35
5 6 7 11 11 12 10 9 11 12 19 10 7 4 12 15 21 24 19 22 20 22 20 21 20 18 16 15 14 12 14 12 10 9 6 10 9 8 6 7 10 15 19 22 26 30 34 36 39
7 7 0 4 8 14 11 4 4 7 13 13 17 16 17 22 20 18 22 24 22 19 17 17 15 13 10 10 11 10 10 12 10 6 7 9 8 6 8 12 15 20 24 28 31 34 37 40 42
10 12 7 4 6 10 3 9 10 9 10 13 11 15 15 16 18 18 18 21 22 19 16 16 14 11 7 5 7 8 7 9 7 6 7 7 9 11 13 16 21 25 30 33 35 39 42 44 46
15 12 9 6 2 12 9 8 11 12 9 9 12 12 12 15 17 18 17 16 17 17 13 11 8 8 7 4 3 6 7 5 6 7 5 8 11 13 17 21 26 30 34 38 40 43 45 47 48
13 18 10 7 7 16 12 8 9 11 9 6 7 10 9 10 12 13 14 13 12 12 8 5 6 5 3 5 5 6 6 6 6 5 8 10 14 19 23 27 31 35 38 41 43 46 48 49 51
15 16 12 13 8 10 13 10 8 8 7 6 5 11 6 6 5 6 9 9 11 11 8 7 8 5 4 7 5 5 6 5 6 8 12 16 20 24 28 32 35 39 42 44 46 48 50 51 51
14 11 9 11 11 5 10 12 11 9 11 9 5 5 10 8 7 7 8 7 6 5 4 6 9 4 5 4 5 6 6 9 11 13 17 21 26 29 32 35 38 42 46 48 48 48 49 49 49
12 11 13 13 10 7 5 8 11 12 12 8 6 6 4 6 10 11 10 9 7 4 5 6 9 8 7 9 8 11 13 16 18 18 22 26 31 34 37 40 44 46 46 46 46 48 49 48 51
13 16 16 17 13 7 5 6 9 15 15 5 9 9 6 8 10 9 9 8 9 7 7 8 11 9 10 12 11 13 16 19 21 21 28 33 36 40 43 44 45 47 47 48 45 48 52 54 53
17 19 17 16 15 9 8 7 7 13 10 7 11 11 14 15 13 10 9 8 10 11 11 12 16 14 11 13 13 14 18 22 24 27 36 39 42 45 47 45 48 46 45 42 41 58 58 56 55
16 17 17 16 16 14 10 7 7 7 8 7 11 12 14 16 16 16 16 16 17 16 13 17 24 7 7 12 16 17 22 25 28 32 39 43 46 47 46 47 47 48 43 45 52 58 57 57 59
18 12 16 19 19 17 16 14 6 13 16 13 13 15 14 15 19 19 19 20 21 16 12 13 13 14 12 16 19 24 28 30 34 38 44 46 46 47 46 45 48 51 50 51 54 55 57 59 61
24 23 18 18 18 19 21 17 8 10 12 7 14 13 12 11 16 19 22 22 19 13 9 9 15 14 16 20 24 27 33 37 40 45 43 42 46 48 48 50 52 51 51 52 55 57 59 61 64
21 20 19 20 19 23 23 20 13 13 11 16 9 11 13 16 16 15 15 12 11 10 10 14 17 17 19 23 29 34 38 42 40 39 43 48 47 47 51 54 53 53 52 54 56 58 62 65 69
19 18 20 22 24 25 24 22 15 16 13 13 15 16 17 16 15 14 13 12 12 12 14 18 18 22 26 30 34 39 42 40 40 45 42 44 46 53 54 56 54 52 53 56 59 62 66 72 74
20 21 22 24 31 29 21 19 14 15 16 17 20 21 19 17 18 16 16 16 18 17 20 23 25 28 31 36 39 40 37 37 42 39 41 51 53 55 58 57 56 55 55 58 62 66 69 73 77
25 24 25 25 25 29 24 13 15 16 17 19 21 19 20 20 20 20 19 20 22 23 26 29 29 31 35 38 40 40 38 40 45 50 49 53 55 57 58 57 55 54 57 62 66 68 75 76 78

GFSSGP_500_spd_033.txt.gz
Wind_Speed
19 18 21 23 24 30 30 25 26 30 36 32 30 32 27 23 24 21 19 19 18 22 23 22 22 23 24 24 25 22 21 21 20 18 22 22 19 15 15 12 13 9 13 17 16 14 14 14 16
17 17 18 20 22 27 24 25 25 26 29 34 25 28 27 21 27 26 25 24 24 25 26 27 27 26 24 23 23 23 20 19 20 23 25 22 19 15 17 13 12 13 16 18 16 14 16 16 17
16 17 16 16 20 22 21 20 22 21 27 27 32 26 26 36 29 15 24 25 24 26 30 29 31 28 25 20 21 22 21 19 18 23 22 22 20 19 18 17 14 14 17 18 18 16 17 19 19
15 14 13 12 13 18 22 19 19 19 25 29 27 31 29 25 33 32 29 29 30 29 29 32 32 29 25 23 24 23 23 23 25 25 23 23 19 20 23 22 16 14 16 17 20 17 18 19 18
14 12 8 7 12 17 22 21 21 20 27 30 30 30 28 31 28 28 32 33 34 31 30 32 29 27 25 28 31 26 19 24 26 21 20 22 18 23 23 21 17 18 16 18 14 16 19 18 19
13 8 4 6 10 16 16 17 18 22 26 27 27 28 30 30 28 27 26 31 31 30 31 29 27 30 32 27 35 36 22 29 22 19 22 23 23 29 19 18 19 17 12 12 14 18 17 19 22
10 3 4 10 16 14 15 18 22 22 26 24 25 26 25 26 29 30 29 29 30 28 27 29 28 30 33 41 45 45 27 33 28 24 24 24 27 23 11 12 7 8 11 12 14 15 20 22 20
4 4 9 12 14 16 16 18 14 15 18 24 25 25 26 28 29 28 30 28 28 30 28 30 27 35 48 38 49 39 38 32 29 32 28 22 13 13 11 8 9 9 9 11 15 20 20 19 16
2 11 10 12 13 12 9 7 8 11 13 17 24 26 25 27 29 31 33 31 31 30 31 29 28 39 46 38 46 39 38 40 34 34 26 17 17 13 10 10 9 11 12 16 18 18 14 11 12
11 12 11 12 9 6 2 9 7 8 11 18 11 14 23 26 26 28 32 29 29 30 24 24 29 46 40 41 49 45 47 44 34 26 18 15 12 11 10 12 11 14 17 16 15 10 11 14 17
14 11 10 11 6 2 1 7 9 11 9 15 17 16 17 21 26 29 30 26 28 28 21 26 28 38 43 49 45 38 32 31 29 25 21 21 17 15 13 15 15 16 17 16 10 10 14 17 20
11 10 10 8 2 4 5 7 13 14 11 12 21 21 25 26 28 29 31 26 22 21 22 22 29 30 36 34 35 35 34 21 14 20 18 13 11 14 12 12 14 17 13 9 11 16 18 22 24
5 13 11 9 5 3 6 9 12 15 16 20 24 22 21 20 24 26 19 19 17 9 15 18 15 14 11 20 19 21 28 24 19 16 15 14 12 12 14 15 10 8 10 12 16 20 23 27 29
4 4 7 6 5 9 8 13 16 16 11 17 24 21 16 18 23 20 21 21 26 23 24 25 23 25 24 20 17 17 18 16 15 15 14 14 13 15 14 11 9 11 14 17 21 24 28 31 34
8 6 7 8 9 10 3 11 10 4 8 9 13 15 15 23 26 21 24 24 25 24 25 25 22 22 20 18 14 15 15 15 14 13 13 11 11 10 12 13 11 13 18 21 26 29 32 36 39
10 8 1 7 9 9 8 8 10 9 11 14 15 21 18 14 19 18 20 20 21 20 19 18 17 17 15 14 13 12 13 14 14 12 10 12 11 9 10 11 14 18 22 26 30 33 37 39 42
12 9 6 4 2 12 8 12 14 12 11 9 12 11 16 15 19 19 17 18 19 18 16 15 14 13 10 11 14 13 13 13 15 12 12 11 10 10 13 15 19 24 27 31 35 38 41 43 45
11 12 7 1 3 8 11 9 9 9 11 12 12 14 12 12 14 15 15 14 15 14 12 10 10 11 10 8 8 10 12 11 12 10 9 7 10 12 15 20 23 28 32 36 38 42 45 47 48
10 7 11 8 5 15 12 11 9 6 7 11 11 13 12 11 11 12 13 12 11 10 8 8 9 7 7 7 6 7 9 9 8 8 9 10 12 16 20 25 29 33 36 39 42 44 47 48 48
11 7 8 10 8 10 10 8 6 8 7 8 7 8 9 10 10 10 11 11 12 10 8 7 9 10 8 8 7 9 10 10 13 15 13 13 16 20 24 29 33 36 41 42 43 45 45 46 48
12 13 11 12 7 8 11 10 8 11 9 7 6 5 3 5 8 12 15 14 14 13 13 12 16 16 14 14 12 11 13 15 16 18 18 22 23 23 29 32 37 41 43 44 45 45 43 48 52
7 14 13 12 12 10 8 11 12 13 11 7 3 5 6 7 9 10 11 11 12 12 12 16 19 18 13 12 11 11 10 13 18 21 21 23 30 30 35 37 41 44 45 43 45 46 47 46 53
14 12 14 15 14 11 7 4 7 15 13 8 10 9 9 13 15 14 14 13 14 15 14 15 16 16 15 14 14 11 11 16 17 21 24 27 32 34 38 40 46 47 43 44 46 50 52 50 50
17 14 15 16 15 14 11 7 5 11 14 11 12 15 17 19 19 19 19 18 19 18 16 17 19 18 21 20 17 14 15 19 21 24 26 32 34 39 42 43 48 43 44 50 53 54 54 52 52
16 15 17 20 21 17 13 10 2 10 16 15 15 17 21 23 25 24 23 22 24 23 19 19 22 20 20 23 16 15 18 20 24 28 31 32 36 38 42 47 46 47 50 53 57 58 56 55 54
18 19 18 15 14 14 17 14 10 15 13 13 18 15 18 18 18 23 25 26 27 24 20 20 21 20 21 12 10 16 21 26 29 32 32 31 35 42 46 45 43 49 56 57 59 56 57 55 55
22 24 22 20 21 19 17 17 13 16 14 10 11 15 19 17 18 19 25 25 26 24 20 19 19 20 22 21 21 24 27 30 32 33 33 33 38 42 44 47 51 59 57 57 57 56 58 57 61
26 25 22 22 21 21 20 17 13 14 16 14 16 17 14 16 17 14 17 17 17 17 18 17 20 21 23 25 28 30 32 33 34 34 36 36 38 46 52 56 58 59 59 59 58 57 59 61 66
30 26 24 23 21 20 23 20 14 15 18 16 19 19 18 19 19 18 17 16 18 20 21 22 24 24 28 31 32 33 35 37 37 39 38 40 44 53 57 55 53 56 60 61 58 57 62 65 70
31 29 26 21 18 24 21 14 15 14 17 19 20 23 23 23 23 22 21 21 21 22 24 26 26 28 33 32 35 35 36 39 40 41 40 49 51 55 55 54 56 58 60 59 56 59 65 69 70

GFSSGP_500_spd_036.txt.gz
Wind_Speed
21 19 15 15 18 23 23 21 27 27 35 42 40 38 29 34 28 36 36 39 37 38 30 25 25 24 24 25 24 22 22 22 17 17 18 17 15 14 12 12 11 12 13 13 14 15 16 13 12
19 17 14 14 14 17 12 24 21 25 26 36 38 35 34 29 26 25 29 32 27 31 29 25 25 26 27 28 26 23 16 17 17 15 19 17 18 16 13 13 12 13 15 15 15 16 17 12 13
18 16 13 13 13 11 15 19 22 21 22 28 34 32 28 32 33 30 31 23 18 19 23 25 27 29 31 31 27 21 15 14 17 17 17 16 18 16 15 16 15 15 16 16 17 17 15 13 16
15 14 11 10 9 16 20 19 18 19 21 26 28 35 42 27 27 29 30 15 16 20 23 25 29 32 34 33 24 19 20 15 17 18 19 20 18 16 15 21 19 19 19 17 17 15 15 14 16
12 12 8 6 10 13 19 18 16 18 23 25 29 27 37 28 26 23 21 20 22 26 27 28 28 31 30 26 24 25 22 26 20 19 21 20 16 14 18 22 23 20 20 17 14 12 12 15 15
9 8 2 4 8 12 14 17 17 18 20 24 27 31 28 30 27 27 25 22 25 27 28 29 30 27 23 25 27 28 29 21 22 25 22 19 17 17 19 21 23 21 16 13 14 14 15 14 16
5 4 5 9 9 12 13 15 17 19 22 23 25 29 30 29 29 26 25 25 25 25 29 29 25 28 28 30 35 32 29 37 25 26 24 21 20 21 21 22 17 13 12 11 9 13 13 14 16
4 2 7 12 12 11 7 9 14 20 21 25 27 26 27 27 26 29 31 30 27 31 28 28 24 27 27 32 38 34 36 32 36 28 27 29 23 24 23 18 14 11 9 11 11 12 16 16 15
2 4 7 11 13 14 10 6 10 11 14 22 24 28 26 26 26 28 28 28 29 31 30 29 27 30 30 37 38 43 46 43 38 31 32 32 28 23 17 15 13 11 11 12 10 13 14 10 10
3 6 7 9 5 4 2 6 10 11 14 13 17 19 23 25 27 25 24 29 32 33 33 33 33 31 38 35 38 49 39 53 35 33 39 34 24 18 16 15 14 12 11 12 12 14 11 11 13
6 8 8 6 5 2 2 6 12 13 6 8 14 17 14 15 19 22 23 25 28 33 33 33 33 32 39 38 48 42 33 41 45 37 37 26 22 17 15 13 12 11 12 12 15 14 10 14 18
5 7 6 3 4 3 5 9 6 16 15 13 16 20 23 26 25 25 26 28 28 31 32 34 33 29 30 27 39 43 52 53 45 34 27 22 18 15 15 15 13 12 13 15 11 11 15 18 22
2 8 8 7 3 4 7 9 9 13 16 19 18 21 22 23 28 27 27 27 29 32 33 31 32 27 24 36 28 35 46 30 22 22 16 19 16 14 15 12 12 13 9 10 13 16 19 22 25
2 5 9 8 8 7 10 13 13 15 19 18 17 15 19 21 19 19 22 22 22 27 30 24 29 26 29 23 22 27 34 31 21 21 17 14 13 14 13 15 15 11 11 14 16 20 23 26 30
8 6 6 7 10 11 11 9 8 4 1 5 3 5 20 19 15 17 21 21 19 17 26 24 24 22 22 21 21 22 22 19 20 17 16 16 16 13 16 15 13 12 14 17 21 24 28 31 34
10 7 7 14 13 7 5 4 2 5 6 12 12 19 19 23 25 21 22 20 18 18 20 25 24 27 22 21 18 16 14 16 13 15 14 15 14 12 11 13 13 14 18 21 25 29 33 35 38
12 5 2 7 3 10 10 8 4 2 3 3 10 15 15 14 17 17 18 19 19 18 15 16 16 17 15 13 11 10 9 9 12 13 13 14 13 13 11 12 14 17 21 25 29 33 36 39 41
12 6 2 5 4 7 9 9 8 3 4 3 5 7 9 12 15 13 13 14 13 12 11 10 11 15 14 13 12 13 14 13 15 16 16 14 13 12 11 15 17 20 25 28 32 35 39 41 43
19 10 8 8 5 7 10 6 5 6 6 7 4 6 9 10 11 11 11 11 11 10 9 10 11 12 12 12 12 15 15 16 18 16 14 12 13 13 15 18 21 25 29 31 35 38 40 42 41
20 13 7 9 5 7 8 9 7 7 4 5 9 5 7 9 10 12 13 13 12 12 11 11 13 12 13 13 12 12 13 15 15 15 14 15 18 18 19 21 25 28 33 33 37 40 42 40 44
20 15 11 9 6 11 10 11 8 9 5 4 10 8 5 6 9 11 12 13 14 12 11 11 13 13 11 10 9 10 14 14 16 16 16 20 23 25 28 29 35 37 38 39 42 41 41 43 47
9 19 16 14 10 7 7 6 13 11 10 5 4 8 7 8 8 10 12 12 13 13 12 12 13 15 14 13 14 14 16 17 19 19 19 21 23 23 25 31 36 39 42 42 45 43 44 47 52
10 13 19 17 12 11 8 7 16 13 13 10 10 10 10 9 11 12 12 13 14 15 16 17 18 19 20 21 22 22 21 21 19 16 15 19 23 26 30 34 36 39 41 45 48 46 47 54 57
7 12 12 12 12 14 11 9 9 10 17 16 12 14 13 13 14 16 18 19 18 20 20 21 19 19 22 26 30 21 22 19 18 19 19 23 27 29 33 35 37 43 44 47 47 49 55 59 58
8 11 11 11 14 12 12 12 8 9 15 20 17 19 18 20 19 20 21 23 24 25 22 21 20 26 22 31 26 30 27 21 20 21 24 27 30 31 33 38 40 44 48 49 50 57 61 60 62
15 16 16 16 13 11 11 10 9 14 14 17 20 29 22 20 23 20 18 22 26 27 26 25 25 23 27 26 23 16 13 17 20 25 28 30 32 30 33 35 39 41 50 49 57 59 58 59 61
19 21 20 20 19 17 17 15 12 13 17 14 15 16 22 20 21 21 23 25 28 29 28 29 29 24 23 27 23 13 15 23 25 27 29 32 30 32 36 42 44 49 51 58 60 58 56 58 60
24 25 24 26 25 23 19 17 10 17 17 15 16 19 20 22 24 22 22 26 28 27 27 23 21 22 24 24 27 27 27 27 29 30 30 32 33 37 39 41 49 53 57 63 59 57 57 60 60
25 27 29 28 27 23 21 16 12 13 21 20 19 20 23 23 22 21 20 21 21 21 20 22 23 25 27 27 30 33 34 32 31 31 33 35 36 40 41 47 53 56 63 59 57 58 58 60 61
29 30 32 32 28 23 24 14 19 17 20 22 23 21 21 24 25 25 24 24 24 25 24 24 26 27 29 31 34 33 33 37 34 36 36 37 38 42 46 51 55 60 59 58 59 60 63 61 61

GFSSGP_500_spd_039.txt.gz
Wind_Speed
46 27 19 16 14 14 15 15 20 21 34 37 40 15 30 35 27 39 35 29 43 42 32 29 30 29 28 29 30 27 25 23 21 17 17 20 19 20 12 13 13 12 12 12 13 12 14 13 11
37 20 14 13 10 9 10 14 19 18 26 14 28 37 42 44 40 41 43 30 27 30 33 34 31 31 30 28 28 26 23 22 17 18 20 20 22 21 16 17 13 12 12 11 11 14 15 15 13
30 15 12 10 10 8 12 14 15 25 34 25 24 34 39 31 39 36 37 31 29 32 37 37 33 33 30 28 28 27 24 18 14 18 21 21 19 18 19 17 16 12 12 13 15 16 17 16 14
21 11 10 6 7 10 17 8 23 22 20 19 24 25 34 33 33 36 41 27 34 37 38 38 38 19 21 31 30 29 22 18 18 14 19 19 19 18 20 19 17 13 14 15 16 16 16 13 13
14 8 5 9 9 15 17 18 16 13 14 21 23 29 32 39 42 49 15 18 41 16 17 20 19 19 24 29 30 31 24 21 22 21 19 22 20 19 19 16 15 17 19 17 16 13 10 11 12
9 5 5 7 8 10 12 18 14 16 18 20 23 33 23 27 32 29 26 25 19 14 15 22 24 24 25 23 23 27 27 27 27 26 26 22 24 20 18 14 14 16 19 17 14 10 12 13 13
6 3 4 8 7 12 17 14 17 15 17 19 23 29 23 24 23 21 21 20 18 20 24 23 24 24 22 25 25 27 29 29 25 28 30 30 27 23 21 16 16 17 16 14 12 8 10 12 13
5 2 3 4 2 12 10 10 11 15 20 22 23 23 24 25 25 24 24 24 23 26 20 19 25 27 25 26 28 31 31 40 33 30 38 35 31 26 23 20 18 16 14 10 9 10 10 12 13
5 11 3 5 10 9 11 7 9 13 16 21 24 26 25 23 25 26 26 29 28 27 26 26 28 28 23 24 41 30 32 34 40 42 38 41 37 27 27 24 17 13 11 10 10 10 10 10 10
4 3 7 16 10 9 5 9 14 15 16 20 18 24 26 27 25 27 28 30 27 28 27 29 31 28 27 26 25 33 37 43 38 49 47 47 38 34 27 20 16 12 11 13 14 11 10 11 12
1 6 15 4 6 6 7 9 13 17 17 16 13 18 20 20 21 24 27 30 29 26 28 30 32 30 28 30 28 31 34 43 44 55 58 44 44 33 26 19 14 11 10 12 12 13 12 12 14
5 7 7 8 10 12 10 10 14 12 18 16 15 15 19 19 19 20 22 28 31 30 28 30 29 30 29 30 36 40 34 51 55 35 42 39 44 32 21 15 11 12 12 13 13 13 13 13 16
7 7 9 10 9 9 12 13 14 15 17 18 20 18 23 26 26 27 27 30 32 33 33 31 28 31 32 31 29 37 40 29 31 39 45 45 25 20 14 11 11 11 13 12 12 12 14 17 21
9 5 6 10 11 12 11 11 12 16 21 20 21 17 16 26 30 26 28 30 33 33 34 32 31 31 35 34 30 42 30 26 28 34 33 23 18 13 9 9 11 13 11 11 13 14 17 20 25
7 3 6 5 4 12 15 12 10 14 14 13 9 13 17 19 26 24 23 26 27 30 30 27 28 31 32 30 25 36 25 15 18 23 20 16 13 9 9 11 14 14 12 14 15 18 22 25 29
5 1 8 16 11 9 14 11 13 12 10 9 1 8 13 16 20 19 15 12 9 12 18 22 21 24 33 25 17 16 20 24 20 14 14 11 10 11 10 13 14 15 13 14 18 22 26 29 32
6 8 7 11 4 7 13 5 14 17 11 10 8 10 21 24 19 17 14 13 15 12 14 19 15 19 19 21 17 15 14 17 16 15 12 11 11 12 12 12 12 13 14 18 22 26 30 32 35
12 9 9 14 3 5 2 6 14 20 11 4 3 7 7 9 11 9 8 9 9 9 9 10 10 11 10 11 10 10 8 8 10 10 10 11 11 11 11 12 13 16 19 21 26 29 32 34 38
12 18 8 7 6 8 3 3 11 19 13 7 1 2 2 4 7 7 7 6 6 6 5 5 6 8 7 9 9 7 9 9 10 11 12 13 12 13 15 17 18 20 22 25 28 31 33 36 41
18 12 11 15 14 8 3 6 8 18 10 6 4 2 2 3 4 4 4 5 5 3 2 2 2 4 4 4 5 8 11 13 14 16 16 15 15 17 18 20 21 24 27 31 35 41 39 42 43
15 12 11 17 12 8 8 5 13 17 13 7 4 6 4 4 5 5 6 6 7 7 7 8 7 7 8 8 9 9 11 13 16 17 16 15 16 17 21 25 29 34 34 38 40 39 39 42 43
9 13 26 16 12 11 6 13 13 15 18 11 8 8 8 6 5 6 7 9 10 11 10 10 10 11 12 13 13 12 14 15 18 18 19 20 20 22 26 26 30 30 35 38 39 40 42 46 50
12 18 18 19 11 15 6 5 11 10 20 15 12 10 9 8 8 8 9 11 12 11 12 13 14 15 17 17 20 21 19 20 21 22 22 22 20 21 24 27 31 35 38 41 41 43 46 47 53
15 14 11 15 10 14 9 10 12 11 11 10 19 12 9 9 10 12 13 14 14 16 16 17 19 19 19 19 22 27 26 30 28 26 28 24 21 21 27 29 33 35 39 42 42 42 46 55 55
16 12 6 10 14 10 13 15 12 15 7 18 20 14 19 20 16 17 18 17 18 20 22 23 22 21 19 24 19 31 36 26 32 30 22 18 22 27 30 32 33 35 39 40 47 49 54 57 58
17 13 14 13 14 15 15 16 9 18 19 13 18 22 24 30 25 21 21 18 17 18 20 23 24 23 22 24 29 24 36 11 5 13 18 21 24 29 32 31 32 37 39 43 48 52 56 58 62
17 21 16 25 22 20 13 13 15 16 19 19 20 21 23 22 26 24 21 21 22 24 25 24 25 25 29 22 24 25 22 20 17 21 24 26 29 30 31 32 36 38 41 42 47 57 63 60 67
27 19 24 27 20 19 15 16 16 11 18 20 19 20 22 19 20 22 21 20 21 24 27 27 26 26 23 27 23 29 22 23 25 28 28 33 29 32 34 35 38 41 42 48 55 60 60 65 66
30 28 25 21 20 19 16 14 13 23 18 23 19 18 23 23 21 21 22 23 22 25 26 25 25 27 26 25 27 27 29 31 32 31 33 32 32 35 37 38 42 45 48 50 55 55 59 59 61
24 26 25 27 23 27 31 25 21 19 19 21 20 24 22 24 26 25 23 24 26 26 28 28 27 29 30 28 30 31 33 35 34 36 37 35 35 38 40 41 43 46 50 51 53 58 58 57 64

GFSSGP_500_spd_042.txt.gz
Wind_Speed
53 53 39 23 16 10 7 12 2 11 28 33 39 36 39 38 30 52 60 59 55 31 39 36 34 30 28 29 29 28 29 29 27 25 22 21 18 18 19 17 16 17 14 12 11 12 12 12 12
54 43 27 15 8 0 8 17 15 23 29 31 32 30 54 50 34 35 41 51 43 17 39 36 35 31 29 31 32 31 31 27 25 21 20 21 19 19 21 19 20 19 13 11 11 10 12 13 13
46 34 17 8 4 4 9 20 15 18 29 31 37 35 37 31 27 28 31 24 26 25 38 35 35 30 39 36 32 30 29 27 24 18 20 21 20 21 22 22 19 17 11 12 11 12 13 15 15
36 18 7 5 8 6 11 19 26 21 25 35 22 28 31 34 27 33 29 27 30 31 23 29 36 35 33 34 28 28 27 25 21 19 16 17 19 22 23 20 18 17 16 12 8 11 14 16 14
24 10 15 11 10 13 19 25 31 29 27 24 34 33 33 24 33 30 33 34 29 33 24 31 36 36 36 22 26 26 26 25 21 21 21 20 19 22 22 20 17 16 15 13 13 15 15 11 10
15 8 9 13 14 14 27 25 31 30 26 26 29 34 33 33 39 22 32 36 31 34 30 26 37 46 44 39 26 23 23 27 25 23 25 23 24 23 22 17 14 11 11 11 14 13 13 10 10
9 8 3 12 14 22 24 11 23 20 21 21 17 27 21 10 17 17 23 25 31 17 23 19 25 24 16 24 21 19 20 27 27 26 25 27 28 28 25 19 16 12 12 13 13 10 8 6 7
7 9 10 10 20 23 18 16 15 16 24 27 19 20 19 18 17 18 22 23 20 20 21 37 23 26 28 26 21 23 26 24 33 27 26 22 24 29 32 26 19 16 12 12 11 9 7 6 8
4 10 11 6 10 23 21 11 17 15 14 23 20 23 18 18 19 19 23 22 20 28 22 18 16 21 29 13 14 23 26 25 31 32 28 39 36 36 38 32 27 19 11 11 10 8 6 8 6
2 9 5 19 25 26 24 17 15 13 15 21 14 22 18 21 22 23 24 25 27 25 21 22 21 16 23 15 17 17 17 30 21 31 30 33 34 42 41 38 32 18 14 11 10 10 9 8 8
1 5 16 18 24 17 11 12 16 12 16 22 7 9 20 22 25 26 26 26 25 25 22 21 22 25 23 22 21 18 23 25 22 29 35 39 37 46 50 41 34 24 18 14 12 12 11 10 9
11 9 18 19 23 13 11 14 16 18 16 18 17 15 17 17 20 25 25 22 22 25 27 24 22 24 25 25 25 25 27 33 34 35 42 46 46 38 35 35 28 19 14 12 10 10 11 9 11
10 11 15 17 13 12 12 14 17 12 18 22 21 22 22 19 22 26 26 23 22 24 28 27 26 27 26 24 22 25 29 40 37 31 35 34 43 36 38 17 19 11 10 9 10 11 10 11 14
12 7 8 8 12 12 13 15 17 11 13 18 20 24 29 24 28 28 25 24 26 28 30 30 29 29 26 29 28 27 28 34 37 25 28 35 38 30 19 17 10 11 9 9 10 9 11 13 17
4 4 6 7 18 18 18 25 7 15 20 21 22 27 19 18 21 18 27 28 29 30 31 32 31 29 29 28 25 28 28 30 27 21 19 23 20 23 14 10 11 10 9 10 11 11 14 17 19
4 4 10 17 18 21 15 17 8 14 24 23 18 17 15 8 14 19 20 23 24 27 25 25 27 26 24 20 22 30 28 26 22 14 15 20 18 14 12 10 10 10 12 12 13 14 17 19 22
5 9 16 17 16 13 11 20 26 16 20 23 15 16 20 11 6 5 8 12 9 15 9 3 13 19 28 33 30 19 19 19 15 17 18 16 12 11 10 11 12 12 13 15 15 17 20 21 22
7 14 14 19 24 17 13 21 17 18 23 15 12 15 16 16 17 13 8 7 12 11 14 15 16 18 18 16 18 14 13 15 15 16 11 4 9 12 11 9 13 13 14 15 19 20 23 21 29
14 13 4 22 20 18 5 24 22 21 20 16 9 6 6 5 10 7 7 6 7 8 9 11 11 12 7 8 10 9 8 10 11 9 11 13 12 14 11 12 11 13 16 20 22 25 28 30 35
22 17 9 16 19 23 14 2 22 20 19 17 14 6 5 4 4 4 4 4 4 3 5 6 7 5 4 7 7 6 6 3 3 8 10 12 15 13 12 11 15 18 22 26 28 31 34 37 37
16 24 14 21 18 14 11 3 8 22 21 23 16 11 6 6 3 2 3 3 3 4 5 7 8 8 8 6 6 7 7 6 9 13 14 14 16 12 13 15 18 23 28 31 36 35 40 39 35
10 11 17 20 13 18 12 10 14 24 22 18 16 10 11 9 7 6 5 4 5 5 5 7 8 10 11 10 10 11 10 10 11 15 16 16 18 17 18 20 22 24 27 30 31 34 37 38 39
11 18 21 16 21 13 13 12 9 12 17 22 14 11 9 7 9 6 6 8 7 5 7 8 9 10 13 14 13 15 16 18 17 19 22 23 22 23 26 24 22 24 28 32 34 37 38 42 43
14 18 17 19 18 20 12 14 17 15 17 17 21 11 10 8 8 10 8 9 9 10 12 11 12 12 12 12 15 15 14 16 26 29 29 29 27 26 24 23 22 28 31 32 33 36 38 40 46
17 14 13 13 11 11 7 15 13 24 4 3 17 20 19 12 15 17 18 13 12 10 11 11 13 14 12 10 17 19 23 17 26 25 33 32 31 29 26 23 26 31 32 32 35 37 38 44 49
18 16 15 21 20 19 26 18 13 16 19 15 14 14 21 24 21 19 19 19 15 14 13 13 13 14 13 14 15 23 15 20 20 18 14 13 11 17 22 28 32 32 31 32 39 41 43 47 47
20 22 9 23 21 17 4 8 10 16 21 21 21 21 20 23 29 23 18 20 21 19 16 15 16 17 17 18 15 14 20 20 19 18 18 20 23 25 29 27 28 30 34 37 40 44 46 47 50
29 18 23 29 23 19 16 16 16 25 13 24 20 22 21 21 22 26 31 16 17 25 23 19 17 20 22 20 18 18 19 20 19 22 24 24 26 28 28 27 31 36 37 39 43 47 49 50 52
30 32 28 29 26 28 24 17 26 21 21 10 23 24 26 19 21 22 23 23 26 25 28 33 22 25 25 21 26 26 25 24 24 26 28 27 30 31 31 32 35 38 38 40 43 46 49 51 54
29 28 32 31 28 26 27 21 20 17 18 19 20 19 22 16 19 22 23 24 23 23 26 32 30 32 29 26 28 29 30 28 30 30 30 30 33 32 32 36 38 39 42 44 47 49 51 51 56

GFSSGP_500_spd_045.txt.gz
Wind_Speed
41 45 45 41 33 18 8 10 17 6 16 21 25 29 32 35 43 46 49 51 48 50 21 26 32 31 32 35 35 32 31 29 28 27 26 26 24 22 20 20 20 20 19 17 15 14 14 15 14
41 44 39 29 18 2 4 6 7 21 17 23 24 30 35 38 37 33 34 45 56 58 60 38 25 35 38 38 34 31 31 30 30 27 24 23 25 19 19 21 21 19 19 16 14 14 14 14 14
42 37 28 16 5 9 11 12 16 22 21 24 32 24 26 35 39 38 48 48 57 57 61 57 36 37 41 37 38 35 35 34 31 28 25 22 19 20 19 20 21 19 16 15 14 14 13 14 14
39 31 21 8 10 7 10 17 18 18 25 23 22 33 31 36 45 46 51 53 29 33 39 37 40 45 43 42 41 40 38 35 31 27 24 18 17 19 20 18 18 18 17 18 16 13 11 13 14
31 22 10 5 12 12 8 13 25 35 30 30 24 28 29 36 28 25 27 30 41 18 33 35 33 48 47 40 41 42 37 36 31 23 21 22 19 16 17 18 17 19 20 19 16 15 13 12 12
23 16 15 6 11 20 19 20 24 30 34 33 30 30 37 34 24 16 20 17 23 24 24 22 33 34 40 37 38 43 38 34 24 24 24 23 24 17 18 16 17 16 16 17 15 13 11 10 9
20 11 8 9 9 15 23 29 28 23 16 23 23 29 28 12 13 9 6 9 13 22 16 25 22 24 35 38 36 29 31 25 26 27 26 27 25 26 21 19 18 17 16 15 13 10 10 8 5
15 7 7 8 16 21 24 23 15 15 22 16 20 21 22 8 12 16 13 13 11 16 19 17 20 30 36 40 38 29 29 21 23 25 28 25 28 23 23 22 23 20 19 18 15 10 8 7 4
12 4 0 4 10 24 30 23 14 22 22 14 12 18 18 15 17 18 17 18 16 17 24 21 24 25 20 35 30 15 22 26 25 23 26 27 21 26 28 32 31 28 24 20 14 11 9 5 4
11 8 5 3 17 27 33 35 29 20 21 15 14 14 17 17 17 23 22 24 19 15 21 29 14 15 16 26 20 13 25 25 14 24 20 24 30 27 27 34 32 31 29 20 15 14 11 7 7
9 10 12 9 22 26 24 33 12 17 18 12 13 13 15 16 19 25 26 24 20 19 22 16 20 12 10 16 11 11 14 12 11 14 19 17 22 24 39 41 32 35 32 23 21 18 12 9 8
8 10 14 15 19 24 19 21 21 17 12 13 18 18 17 20 23 28 28 23 20 19 19 19 20 21 16 13 11 12 12 11 14 22 27 25 24 27 35 36 40 31 36 25 17 12 13 11 10
10 9 8 8 9 12 15 20 26 24 14 19 16 16 20 24 22 22 22 22 22 19 20 20 23 23 22 19 17 18 17 9 17 17 26 30 33 33 33 33 30 22 20 17 13 14 13 12 12
12 8 2 2 8 14 16 21 19 17 14 19 24 26 20 15 16 22 22 22 23 22 20 20 25 24 22 23 21 17 23 26 34 22 19 18 24 19 26 28 17 23 19 14 13 13 13 13 12
11 6 4 5 9 15 14 10 14 17 17 23 24 26 26 9 7 10 17 22 24 23 23 23 24 21 21 20 24 19 17 18 20 20 18 22 20 15 24 20 21 15 12 12 13 15 13 12 13
9 8 8 10 12 15 23 19 20 13 23 27 23 24 22 9 3 1 10 14 7 21 21 21 20 20 22 22 20 16 18 23 22 21 26 22 9 14 23 18 15 13 13 15 15 15 13 14 16
11 8 6 11 11 18 24 16 16 22 21 25 20 22 21 23 21 12 16 15 15 16 15 6 10 17 18 20 21 21 24 20 24 29 22 14 21 21 18 14 12 11 15 16 17 16 17 18 17
13 14 5 12 10 19 21 16 13 16 18 20 20 18 16 17 18 16 14 14 14 14 16 19 24 14 11 20 17 17 24 17 17 14 20 18 17 18 13 10 13 14 15 17 18 19 19 19 21
12 8 6 7 16 17 23 19 11 7 13 20 20 7 6 8 10 14 12 10 8 11 15 17 18 22 20 18 15 17 16 15 16 14 18 19 17 13 11 11 14 16 17 17 19 20 23 23 27
12 11 11 5 10 19 19 15 19 10 12 15 20 15 8 7 5 5 4 4 5 9 10 12 15 13 13 13 15 13 11 11 8 7 8 11 10 9 11 14 17 19 19 18 21 23 27 31 33
11 10 15 17 19 25 15 8 19 11 14 9 17 8 9 8 7 8 5 4 6 6 9 11 12 12 13 12 11 10 9 9 5 3 7 9 9 12 14 16 19 17 22 20 22 26 27 28 30
10 14 19 28 27 25 19 11 18 17 15 7 7 8 5 2 5 6 6 7 5 4 6 7 9 9 10 9 6 5 8 8 6 5 6 7 10 14 16 17 18 18 24 23 24 27 29 32 37
10 13 16 22 25 19 17 17 8 11 19 15 5 10 4 4 4 3 4 5 2 2 2 2 4 5 4 3 2 5 5 7 8 9 16 17 17 19 19 22 24 26 26 24 28 29 31 32 36
16 14 20 21 24 20 12 19 9 22 20 16 23 12 10 4 3 4 6 3 5 5 3 4 3 3 3 4 4 4 4 8 9 11 17 15 20 23 27 24 26 23 25 28 30 31 32 33 32
20 17 16 19 20 6 20 22 16 15 23 14 16 12 9 10 4 3 4 9 7 6 6 4 7 7 10 11 10 10 10 10 9 13 16 17 14 24 29 33 28 26 29 29 31 32 32 34 38
23 19 18 17 17 16 18 17 13 11 11 18 18 16 11 15 18 15 12 9 13 11 10 9 11 13 12 14 14 13 14 14 7 10 8 11 13 9 9 10 16 23 25 25 23 28 35 37 39
20 21 17 23 23 22 19 20 18 12 20 22 20 20 22 20 20 24 23 17 12 13 11 9 9 10 11 10 12 13 14 13 14 12 11 12 13 14 16 19 21 23 25 30 34 36 37 38 41
26 22 26 26 26 19 13 13 19 19 21 25 21 19 18 18 23 23 25 26 20 10 20 17 14 13 13 12 13 17 18 16 17 17 18 17 18 20 20 22 25 27 30 33 36 36 38 40 43
28 32 31 26 30 26 25 17 18 22 24 28 26 27 15 13 20 20 24 24 25 22 15 25 20 26 26 17 17 19 26 25 24 20 20 20 24 25 23 27 27 29 33 36 37 38 41 43 45
32 32 31 35 28 31 32 24 29 23 26 28 21 25 19 16 12 15 21 24 25 28 26 26 21 12 23 25 19 24 29 34 34 25 16 22 26 27 27 29 31 33 35 38 39 41 44 46 46

GFSSGP_500_spd_048.txt.gz
Wind_Speed
36 33 36 35 22 17 4 2 9 7 7 8 9 13 16 24 28 32 39 36 38 40 45 46 44 35 51 44 30 31 32 32 30 29 27 29 28 26 24 23 23 23 21 22 21 18 16 16 18
34 34 35 26 17 10 4 6 9 8 13 15 14 18 20 21 25 30 33 35 41 41 44 50 54 46 38 42 40 35 34 31 33 31 31 31 28 24 23 21 23 24 23 21 19 18 16 16 17
31 34 27 21 12 9 10 6 13 14 18 26 22 18 22 21 31 35 37 42 38 39 38 47 51 47 39 41 31 36 35 36 33 31 31 30 27 23 20 23 23 22 21 20 20 18 16 14 15
29 29 19 12 7 7 12 12 10 20 27 31 28 26 19 24 27 31 35 40 46 48 41 41 42 34 38 44 43 41 39 37 34 34 32 28 24 21 22 22 22 21 19 17 19 17 16 14 15
28 21 16 16 6 5 6 11 16 19 26 30 33 28 31 30 24 28 35 44 48 44 44 47 35 34 46 56 49 46 43 37 35 34 32 29 28 23 18 16 16 18 17 18 21 21 17 13 14
24 17 12 14 11 3 8 11 21 28 29 31 23 21 30 29 31 35 34 36 34 32 37 40 17 18 27 49 45 48 44 41 36 36 35 31 25 23 22 15 15 18 18 17 19 22 19 14 10
24 12 13 14 15 5 7 16 24 27 27 23 23 28 19 20 28 18 18 18 18 24 23 26 15 20 34 56 46 58 49 41 42 39 34 28 26 26 23 21 18 16 20 19 18 18 19 14 12
24 12 16 17 13 12 16 20 21 20 22 23 21 18 20 16 11 11 10 12 15 16 10 18 17 26 38 55 38 40 50 45 42 38 31 27 29 29 24 22 24 20 23 23 19 19 18 14 16
24 16 18 16 16 14 18 22 23 21 20 24 10 13 18 11 12 12 10 11 15 12 12 10 18 19 20 33 40 27 32 42 35 32 25 22 28 25 24 23 24 24 25 27 23 21 17 15 15
20 17 18 15 19 18 21 21 25 23 23 24 11 17 16 15 9 11 11 14 17 16 16 16 17 16 22 21 26 32 31 25 30 17 24 21 17 27 23 22 25 26 33 37 28 22 20 19 16
23 18 16 13 17 18 18 17 20 20 22 15 15 18 18 19 13 14 13 14 18 19 19 19 17 13 16 11 24 33 15 24 26 14 18 24 17 21 18 23 24 25 28 31 28 19 21 18 14
20 18 11 6 10 13 15 17 16 13 12 13 18 18 20 21 24 15 14 16 21 21 22 23 17 12 15 12 16 11 11 14 18 10 13 15 17 16 18 23 24 19 26 26 22 29 31 23 13
22 14 5 2 4 7 13 15 20 15 9 14 21 26 29 28 25 19 14 14 16 20 19 20 18 17 12 5 5 7 4 9 12 9 3 10 16 19 17 19 18 16 19 20 24 27 19 15 16
20 8 3 4 9 9 11 18 21 19 20 20 23 27 29 12 15 16 14 10 16 17 18 20 20 20 15 14 14 14 9 10 15 18 17 11 13 15 16 17 14 16 17 17 23 16 16 17 16
17 7 8 5 9 11 13 15 17 17 23 22 21 20 18 7 3 2 9 12 13 16 19 21 24 23 21 22 20 19 13 12 8 20 20 20 17 16 18 18 17 17 19 22 16 16 17 18 17
15 10 8 6 7 8 12 11 12 17 19 21 16 19 16 11 7 5 5 5 8 14 17 22 24 25 25 25 21 21 19 18 17 17 22 19 19 20 20 14 16 20 19 17 17 18 20 20 19
16 12 13 14 11 5 9 9 13 11 14 19 15 15 15 21 21 15 15 12 8 7 5 17 21 24 25 22 22 29 28 22 23 21 22 21 21 19 16 16 21 18 16 15 18 20 20 20 19
14 12 14 17 14 6 10 9 11 8 8 15 17 9 8 16 16 13 12 12 13 10 10 3 12 25 20 22 25 25 23 23 21 17 20 22 26 17 21 20 18 17 17 21 21 21 21 19 21
15 14 16 19 13 12 9 6 8 1 8 10 14 8 6 5 8 9 8 6 9 12 12 18 27 24 14 8 16 20 20 21 23 21 18 19 22 26 20 19 19 19 20 22 22 21 22 22 24
16 14 15 19 14 13 11 7 8 1 5 10 11 5 4 7 5 3 3 4 5 7 11 16 18 21 19 15 15 18 17 19 17 13 16 17 20 18 20 20 19 19 21 21 21 20 21 23 25
16 16 13 14 20 23 21 11 16 8 2 3 5 4 3 5 5 3 3 3 6 9 9 14 14 14 13 15 16 15 12 14 12 11 9 12 11 13 16 19 21 19 20 22 22 24 24 23 27
19 18 13 19 21 26 20 19 14 12 8 2 1 6 4 4 5 4 6 7 5 6 9 11 11 9 9 10 12 13 13 13 14 12 10 9 9 13 16 16 19 21 23 21 22 27 28 27 28
21 19 14 16 22 21 13 23 14 18 6 4 4 6 3 2 5 5 4 2 2 2 3 4 5 4 5 6 6 7 8 7 7 4 1 4 11 16 17 17 20 20 22 24 26 31 27 28 30
22 18 19 18 19 18 13 23 14 19 12 6 6 2 3 2 2 5 6 6 5 2 3 1 0 1 0 2 1 1 0 0 1 1 1 5 7 17 22 20 23 24 26 26 26 26 30 32 34
26 21 23 22 21 13 17 22 9 18 18 12 5 5 2 2 3 3 6 9 9 8 4 3 3 3 5 5 5 4 7 6 10 9 9 8 6 7 17 20 22 25 24 31 28 28 30 28 28
27 25 24 23 22 18 22 19 7 20 18 16 9 6 7 6 9 5 8 10 10 13 13 10 11 9 7 6 7 7 9 9 10 10 9 10 8 7 8 14 24 29 27 23 27 27 26 27 31
27 31 22 29 25 21 21 20 19 20 20 19 15 8 8 8 9 8 9 12 9 14 14 15 15 13 11 12 8 9 11 11 12 14 14 14 14 14 12 14 15 18 22 25 28 29 31 33 36
31 24 29 32 26 24 20 27 18 25 23 18 18 11 13 11 7 11 13 12 11 12 10 12 20 16 16 23 22 18 17 16 18 20 21 20 20 17 16 17 20 21 24 28 29 29 31 34 35
35 34 33 35 33 29 21 23 20 22 13 20 20 17 24 16 16 14 10 10 10 9 15 17 19 15 18 21 27 24 18 20 23 26 29 28 25 22 21 19 22 26 27 29 30 32 34 35 36
38 36 36 40 36 29 30 23 25 21 26 26 24 24 25 18 15 17 14 11 9 8 10 12 16 21 22 25 24 23 18 21 23 30 31 38 26 22 20 22 24 28 30 31 32 33 34 35 38

GFSSGP_500_spd_054.txt.gz
Wind_Speed
26 29 30 28 29 29 28 28 27 27 27 23 15 17 18 13 15 19 22 29 40 37 34 33 33 23 27 30 30 28 29 22 34 29 26 22 16 14 11 14 15 16 15 16 16 18 18 20 20
26 30 28 30 27 28 26 24 22 24 19 18 11 15 16 20 15 17 20 34 28 36 23 21 32 25 29 32 34 30 26 26 26 29 26 21 19 18 13 16 16 14 13 15 16 18 19 20 19
27 29 29 30 29 27 23 18 19 18 18 20 15 15 19 19 22 24 22 23 26 28 29 24 25 29 30 35 33 34 26 36 29 30 27 22 19 14 17 18 15 14 15 18 18 19 20 20 20
27 27 30 30 31 27 18 19 20 18 14 16 18 20 18 23 24 31 28 26 26 28 29 30 29 31 34 31 35 30 33 25 30 32 26 23 22 20 17 16 15 14 17 19 21 20 21 23 23
26 25 28 30 31 23 19 17 19 18 18 17 14 16 16 16 14 21 24 24 21 27 28 36 34 34 35 33 35 32 32 30 32 41 34 28 25 22 18 18 14 13 17 21 20 19 20 20 20
22 23 27 28 27 19 19 20 22 18 15 15 18 20 20 19 22 26 26 29 30 30 28 30 31 34 37 37 35 35 35 34 33 36 38 29 27 22 21 17 15 13 12 14 15 19 22 21 21
19 22 26 27 22 18 18 20 22 14 17 17 17 21 22 20 20 15 19 24 31 36 34 33 32 32 35 35 36 36 34 28 28 43 32 32 29 26 21 18 14 15 15 14 16 18 22 21 19
18 22 25 25 20 17 16 19 21 12 12 12 17 22 18 16 15 18 19 17 23 24 21 22 31 33 23 31 31 36 37 37 37 42 41 39 32 26 21 18 17 18 17 17 20 22 18 20 22
17 21 23 23 16 16 14 15 14 9 10 11 10 15 15 18 20 18 16 15 17 14 9 24 23 30 24 30 28 35 43 53 42 50 44 40 31 24 20 19 22 21 20 20 19 22 21 21 21
16 20 22 22 14 10 10 15 11 9 10 7 9 14 16 17 19 19 17 16 16 17 14 15 8 10 17 18 18 35 38 54 48 53 43 40 33 24 22 24 23 25 25 22 18 20 22 24 22
14 19 18 22 12 8 7 10 7 7 10 13 14 18 21 22 23 22 21 18 18 18 19 14 8 5 5 12 12 20 28 41 47 48 43 39 34 24 23 19 24 27 24 20 19 16 20 19 20
14 18 17 19 12 7 8 8 9 6 7 11 15 20 25 24 24 22 24 19 15 16 14 12 12 6 5 2 17 14 38 32 40 45 39 43 27 28 23 23 23 23 19 23 26 22 21 19 22
15 18 16 19 14 8 13 12 11 6 11 11 12 19 22 21 19 12 16 14 14 16 16 17 10 9 6 5 12 19 27 28 27 40 39 29 26 26 25 24 18 26 21 17 24 25 21 19 21
18 17 17 17 16 13 17 13 8 8 11 11 13 18 19 15 13 9 4 8 10 12 16 14 10 9 5 9 23 24 22 22 23 29 28 28 26 24 21 25 22 22 23 23 25 25 21 20 26
21 18 19 17 14 17 19 10 8 8 10 10 11 14 19 11 11 10 4 4 9 9 12 14 12 10 12 10 19 19 22 31 25 22 20 23 26 24 17 20 27 27 23 25 27 23 20 23 30
24 21 22 19 14 17 20 12 6 6 8 9 9 9 11 8 9 10 7 2 4 9 12 14 17 15 17 17 20 19 18 16 20 21 22 24 23 20 17 21 22 24 24 28 28 22 21 27 31
25 24 26 21 17 16 20 18 13 5 7 8 9 6 7 7 8 7 7 4 1 5 10 15 21 20 20 21 18 20 20 19 21 22 26 23 24 20 19 22 24 26 25 27 26 22 22 26 27
28 29 27 21 21 17 18 18 19 12 9 9 11 6 3 5 4 4 4 4 3 5 10 17 22 24 25 21 21 22 19 21 22 26 24 25 21 22 27 22 25 25 26 26 23 23 22 22 25
34 29 24 22 25 20 19 19 23 20 12 10 12 9 6 6 6 4 5 7 7 7 12 18 20 25 26 20 26 22 25 25 23 24 24 22 25 27 28 24 27 26 24 25 25 24 24 24 24
26 27 23 23 25 25 21 18 17 22 12 9 12 9 9 8 8 9 9 9 9 7 12 15 11 26 33 24 27 26 26 30 30 34 27 21 26 27 28 30 30 27 22 25 24 22 22 24 24
22 20 23 23 28 27 25 18 20 20 12 10 8 8 9 8 8 9 10 8 7 5 5 10 11 9 11 18 30 32 34 33 33 32 29 27 25 30 32 30 30 28 27 24 22 21 22 24 23
19 22 27 26 28 26 30 17 21 18 14 12 8 6 7 8 7 8 8 6 5 2 3 4 6 9 10 13 12 16 24 29 33 30 29 30 28 30 29 26 27 25 25 24 23 23 22 23 25
14 29 29 30 28 28 25 25 10 18 13 15 12 10 7 9 6 6 6 4 3 4 3 2 2 4 4 7 9 9 9 12 23 22 17 16 16 15 17 22 25 24 25 23 27 26 26 26 27
27 34 33 33 29 28 21 30 14 14 15 18 15 13 12 11 9 6 6 5 4 4 5 6 4 3 4 6 7 10 13 16 18 17 18 20 19 21 24 27 26 27 28 29 31 33 27 26 28
31 34 35 35 30 26 23 33 17 13 14 18 19 16 11 11 11 10 7 5 6 6 5 6 6 5 5 6 6 7 7 10 12 14 12 15 18 18 20 26 27 29 32 31 28 27 25 24 31
32 34 36 33 35 30 29 33 21 15 15 14 20 19 14 13 13 12 12 10 10 11 6 10 11 10 9 7 7 8 9 11 16 17 17 17 14 15 16 16 23 27 29 26 28 24 27 31 36
35 38 30 35 36 36 32 30 23 19 17 10 16 22 16 13 18 17 16 12 12 13 14 9 10 15 15 13 10 9 10 12 16 18 16 19 20 18 18 17 17 23 27 28 31 26 30 33 34
40 37 37 39 40 40 36 29 22 23 17 16 14 19 18 17 19 16 16 13 12 12 14 14 14 16 17 16 15 14 14 17 19 19 18 20 21 22 22 24 25 26 28 26 30 30 33 36 34
38 40 40 39 41 41 38 29 21 21 22 19 18 22 18 19 20 14 14 15 12 13 12 13 17 17 18 21 20 21 16 19 16 17 21 23 25 25 27 30 32 32 34 30 34 34 37 36 36
39 41 43 44 42 41 39 35 23 18 17 19 24 19 25 21 23 18 17 18 14 18 18 15 14 18 21 22 19 17 20 23 25 19 19 26 31 28 32 38 39 41 44 34 39 38 43 35 35

GFSSGP_500_spd_060.txt.gz
Wind_Speed
30 30 28 27 26 25 21 24 22 20 20 20 20 23 23 24 23 21 20 19 20 18 23 28 35 40 32 34 24 30 36 30 26 30 32 32 27 22 26 27 25 21 15 10 6 6 8 8 9
30 29 31 29 23 23 22 25 23 19 20 22 23 21 22 23 24 24 24 23 19 20 18 21 29 32 36 26 33 24 30 17 16 33 28 28 31 26 27 29 21 17 13 10 10 9 9 9 10
30 29 28 25 23 16 22 25 20 19 20 23 23 22 22 23 27 29 27 27 26 23 22 23 22 26 28 30 35 29 18 17 17 20 23 34 33 29 26 24 27 19 20 22 14 12 11 9 10
29 29 27 24 22 15 20 23 19 18 21 22 23 22 23 25 25 26 28 29 32 31 30 27 25 27 25 24 22 20 19 19 13 15 19 27 33 31 26 27 23 24 25 20 17 13 13 10 11
28 29 27 23 17 17 19 22 18 20 21 21 22 23 23 25 26 27 29 28 27 25 29 30 30 26 26 33 24 22 21 21 23 21 18 24 35 33 30 25 22 23 24 20 15 13 13 11 10
26 27 24 22 16 17 20 19 20 20 21 21 21 21 24 24 25 28 25 24 28 31 30 31 31 32 31 30 35 31 28 27 23 27 21 31 33 34 30 27 29 27 22 18 16 13 11 10 9
25 26 23 18 18 17 21 19 19 20 20 19 21 23 23 22 24 20 20 21 20 26 26 31 32 33 30 33 29 31 33 30 25 28 28 32 31 33 33 31 30 27 24 17 15 15 12 10 9
23 25 22 16 18 18 20 19 19 18 19 20 23 22 23 22 22 23 20 20 20 22 27 21 22 35 36 45 33 35 36 30 34 32 31 29 35 39 36 32 32 28 25 16 16 16 15 12 12
21 23 20 18 17 18 18 17 18 17 16 17 20 22 18 20 23 28 29 27 25 25 23 19 11 16 21 41 43 31 35 34 32 36 28 33 35 40 39 35 33 31 24 18 18 20 19 13 14
19 20 20 19 18 17 17 17 18 14 13 15 15 17 20 24 25 27 30 29 27 24 23 19 15 21 21 30 40 36 42 34 26 33 30 36 43 39 41 38 35 33 24 17 18 19 19 18 18
18 18 21 21 19 18 16 16 17 15 12 14 16 19 21 26 29 26 24 23 24 20 17 15 11 11 17 26 39 39 33 40 32 40 36 30 36 44 45 40 38 32 25 20 20 23 21 21 20
18 18 21 21 20 17 16 14 17 20 18 16 16 19 24 25 27 20 19 15 19 13 14 14 10 8 15 21 28 38 37 41 34 36 33 33 36 51 47 39 38 34 26 22 26 26 22 23 20
17 17 21 22 22 16 17 14 14 20 19 17 17 23 23 24 24 16 14 14 8 8 10 10 6 6 8 13 17 24 31 44 41 42 37 29 35 34 47 43 40 34 27 28 27 27 23 25 27
19 19 22 23 24 17 17 15 15 19 15 17 18 19 20 22 22 15 12 10 4 6 10 12 9 12 13 12 14 15 24 32 39 41 45 39 36 35 50 45 38 31 28 30 26 28 24 27 23
21 20 23 24 25 20 18 14 16 15 15 16 18 20 20 21 19 11 9 4 4 6 9 10 11 16 14 10 10 13 26 26 35 38 46 44 45 40 49 48 38 34 31 31 30 30 31 30 25
23 22 21 23 27 23 17 14 17 15 15 16 17 17 20 19 18 12 9 5 2 7 7 5 9 15 15 12 14 16 21 31 35 42 42 39 39 38 52 49 45 38 36 35 30 31 33 32 29
25 20 19 25 27 25 16 13 20 14 16 17 18 18 18 21 17 14 11 8 6 6 6 5 9 13 16 18 17 15 21 29 33 42 33 24 30 34 50 51 48 40 40 36 35 35 35 33 29
22 19 22 27 26 23 18 12 21 14 14 18 20 19 18 21 16 14 12 9 8 7 8 9 9 11 15 16 16 18 22 29 29 34 40 22 28 32 38 48 38 38 37 34 35 35 34 28 26
24 27 25 27 27 21 17 13 16 17 13 17 16 14 17 20 16 13 14 12 11 11 9 10 16 21 21 22 20 20 21 30 34 34 29 30 27 33 37 36 37 31 26 30 28 28 27 27 28
28 30 26 25 24 25 20 16 14 18 15 16 13 14 17 19 18 12 12 12 10 10 10 11 20 18 25 28 26 23 22 28 31 30 32 32 31 32 35 33 30 26 30 28 25 25 27 26 29
28 29 24 22 23 26 21 19 16 16 13 16 16 15 17 17 19 11 12 11 10 8 9 11 15 5 17 28 27 25 23 23 28 22 26 26 24 24 26 30 31 32 31 32 30 27 27 31 28
32 28 28 25 25 25 22 20 10 12 14 16 19 16 18 16 18 12 10 11 8 7 8 8 9 10 3 18 19 22 21 25 23 14 19 22 19 28 24 28 33 33 32 31 32 30 29 27 28
26 35 30 27 28 29 23 20 11 12 16 16 18 19 21 17 14 13 8 8 6 4 5 6 5 4 2 5 10 17 26 25 25 29 27 25 27 26 28 31 38 33 33 35 36 28 28 27 26
36 38 33 31 32 30 24 18 13 9 15 17 19 21 19 16 15 13 11 8 7 5 5 6 5 3 3 4 5 5 6 11 19 29 28 27 30 33 29 30 33 35 35 36 31 29 28 28 28
39 38 35 36 41 29 31 17 17 13 13 17 17 17 17 18 13 14 13 10 8 7 9 7 7 6 5 6 7 7 8 10 8 14 30 29 24 26 28 26 32 29 29 31 27 28 29 28 31
34 34 35 40 40 30 36 27 18 14 13 16 20 18 17 19 15 16 15 12 10 11 12 9 8 9 8 6 8 10 9 10 9 7 6 11 15 16 18 20 20 20 22 24 28 31 31 33 35
39 45 40 40 41 37 39 34 17 18 15 12 15 18 17 20 16 16 18 17 13 14 15 12 11 10 9 9 13 10 9 11 12 12 11 15 15 15 17 21 22 21 20 24 27 29 31 36 37
43 45 42 43 43 42 38 34 20 17 17 12 15 17 22 20 22 21 19 23 17 15 15 14 13 9 9 8 10 15 14 13 13 14 16 19 21 21 23 25 25 23 23 25 27 25 29 32 34
39 42 42 44 43 40 34 31 23 21 18 14 16 17 18 21 24 24 22 22 21 16 14 16 12 12 12 12 11 11 14 16 15 14 18 21 20 21 25 25 25 26 28 29 31 30 31 34 34
33 37 39 42 41 41 39 32 31 21 16 15 18 19 19 19 21 24 24 24 24 18 15 17 15 14 15 14 14 12 15 15 15 16 21 21 23 23 25 23 27 28 31 33 33 34 36 35 38

GFSSGP_500_spd_063.txt.gz
Wind_Speed
26 27 24 27 29 25 16 23 18 25 27 25 24 22 24 25 26 28 25 26 23 19 17 15 17 21 32 35 37 35 37 34 35 35 33 33 31 30 33 29 26 26 26 24 21 17 13 10 9
25 25 22 26 24 14 13 31 27 26 27 26 23 22 24 27 27 23 24 26 25 23 21 18 15 17 21 32 38 33 22 38 33 29 29 38 35 36 35 32 19 25 24 22 17 14 12 11 9
26 24 22 24 26 16 14 34 26 29 27 25 24 23 25 25 24 25 24 25 27 28 27 25 21 18 18 22 28 34 37 25 32 20 28 28 36 42 32 24 21 22 23 18 15 19 15 10 10
27 25 21 21 21 20 19 28 26 28 29 25 25 25 28 24 23 24 26 26 27 29 31 30 30 26 24 24 25 30 35 25 30 20 20 32 35 33 28 27 25 24 23 17 20 18 13 13 11
27 25 22 23 21 24 20 23 27 28 26 26 23 24 27 20 23 27 26 27 29 31 31 30 31 33 28 25 27 29 31 36 28 20 18 27 34 34 34 30 27 26 22 20 22 22 18 16 15
27 24 22 18 18 25 20 23 27 25 24 25 21 24 27 24 24 25 27 27 26 26 30 33 32 34 39 34 31 35 32 26 28 25 22 18 29 29 36 32 29 27 21 21 23 21 19 16 15
25 25 21 17 18 28 26 24 26 22 21 24 24 23 25 19 23 27 24 26 27 29 29 30 34 38 43 38 33 34 28 28 25 26 27 27 22 26 38 36 32 28 21 25 24 22 20 18 14
26 26 21 19 22 24 27 24 26 21 20 21 23 19 19 18 21 24 26 29 30 31 32 28 31 28 28 38 33 42 37 40 35 32 29 31 21 34 43 38 37 30 25 24 25 24 21 18 16
27 26 20 17 22 18 27 26 26 20 20 21 18 15 14 19 24 26 29 32 34 34 33 32 25 13 16 35 41 35 38 45 34 32 28 31 31 34 33 38 36 32 28 26 27 25 22 19 17
28 26 19 19 24 22 25 27 25 21 20 21 13 15 16 20 24 29 32 33 32 31 27 24 22 14 12 23 24 35 42 43 30 32 32 30 33 33 33 39 40 38 31 29 28 26 24 21 17
28 24 19 25 22 23 22 26 26 20 20 24 18 17 19 23 27 29 32 30 32 26 20 16 17 11 12 16 20 35 21 42 38 36 33 33 32 31 32 43 42 40 32 29 29 28 25 20 20
32 26 24 24 25 23 21 24 24 20 20 22 21 18 21 24 25 29 31 27 25 24 19 13 12 11 10 13 19 27 39 33 39 33 36 31 35 35 37 42 39 37 34 30 31 29 27 22 21
31 29 24 26 25 23 22 21 21 20 19 18 16 15 19 19 22 27 28 23 21 13 6 7 7 7 7 14 11 23 35 39 43 39 42 38 43 40 43 46 45 42 37 33 33 33 29 23 22
32 31 25 25 25 25 22 20 21 20 18 17 14 13 18 19 19 23 22 19 15 7 4 8 7 8 10 12 13 19 29 37 40 42 45 43 47 49 44 46 49 48 41 36 35 35 29 24 24
32 31 27 25 25 24 24 18 21 21 18 17 14 13 15 16 16 18 19 17 14 9 6 7 11 14 15 13 13 18 25 32 41 42 44 44 43 42 44 44 57 48 42 37 37 35 30 27 27
33 32 26 23 24 24 24 16 20 23 18 16 14 14 15 15 15 16 16 15 11 10 10 9 10 13 15 14 16 15 18 27 34 40 43 44 46 39 38 30 47 49 45 38 38 34 30 29 29
32 28 25 23 24 23 21 18 21 22 18 18 16 14 14 17 14 14 14 12 12 10 8 7 6 9 14 16 18 15 13 24 31 33 41 47 47 42 41 40 40 52 49 41 38 34 28 27 29
30 28 22 22 21 25 22 18 21 26 18 19 17 15 14 16 14 12 13 11 11 12 13 11 11 11 12 16 17 20 16 16 28 29 31 38 41 36 36 43 39 53 51 44 40 35 35 32 31
32 21 19 24 20 28 20 19 18 22 18 21 18 17 14 15 12 10 13 11 11 13 13 13 14 15 20 21 21 18 18 16 24 29 35 41 39 30 28 34 40 47 52 46 42 38 36 33 35
34 28 28 27 25 25 21 22 21 23 20 20 21 19 16 14 11 9 11 11 11 12 12 12 16 21 23 24 26 25 20 20 21 25 27 32 35 31 28 26 21 39 43 36 37 31 31 32 31
32 29 28 28 22 25 23 24 22 22 23 21 19 19 19 11 12 8 8 11 9 9 11 12 14 20 15 15 25 24 19 17 21 27 29 28 23 23 20 17 18 24 24 27 26 27 29 28 28
33 29 29 34 28 26 19 22 21 20 22 22 21 17 18 12 12 9 7 9 5 7 10 10 12 13 14 2 13 16 17 17 22 17 19 21 21 22 21 15 18 25 28 28 28 29 30 31 28
32 33 36 36 27 28 28 23 14 16 19 22 22 19 18 13 10 12 8 8 5 4 6 10 9 9 8 6 7 12 15 21 24 19 16 20 15 16 15 19 26 21 24 32 35 31 29 30 23
34 38 39 35 26 33 26 24 15 11 16 19 23 19 19 11 10 12 11 10 8 4 5 8 8 7 6 5 4 5 8 12 18 21 18 19 21 23 19 23 26 25 24 29 33 29 32 34 29
40 38 34 31 31 31 26 23 20 15 20 20 20 19 17 12 11 12 12 11 11 7 7 7 7 7 8 6 8 7 7 8 6 8 11 25 29 29 26 26 28 30 28 29 33 36 36 32 24
40 39 37 30 28 29 27 29 17 19 19 22 21 20 18 11 14 14 16 13 13 11 11 10 8 7 8 7 8 8 10 10 8 7 8 8 23 25 24 22 24 17 19 27 29 28 28 25 25
41 42 35 30 22 30 26 26 23 26 18 17 19 22 20 16 16 15 18 15 14 15 15 12 11 10 8 8 8 11 10 10 10 11 10 8 8 9 9 12 16 18 17 19 21 21 22 25 26
43 35 37 37 35 31 24 14 14 24 20 18 20 21 23 18 18 18 19 19 18 17 16 15 15 12 9 9 9 9 11 15 13 12 11 12 13 15 17 19 18 18 20 20 23 20 21 24 25
40 44 42 39 43 32 29 25 25 28 23 19 20 24 25 22 22 21 23 24 23 19 19 18 16 15 15 12 11 11 11 13 17 15 15 17 18 18 20 22 22 23 26 27 25 24 25 28 28
32 40 40 37 29 37 36 25 22 26 29 24 19 20 24 24 23 23 25 25 26 25 23 20 17 18 19 20 17 14 15 15 13 19 22 22 21 22 21 20 20 21 23 28 29 30 30 30 32

GFSSGP_500_spd_066.txt.gz
Wind_Speed
30 27 26 25 23 21 16 14 30 25 31 26 26 28 26 26 30 31 27 29 30 25 24 22 20 19 21 25 30 35 38 40 38 39 39 40 35 31 30 35 35 31 28 25 25 20 19 19 15
33 29 25 25 20 20 12 16 33 40 36 27 32 30 26 28 29 27 24 27 25 26 22 24 23 21 21 22 25 30 35 36 37 37 38 37 34 35 33 35 36 34 25 24 19 20 22 19 16
33 31 28 24 21 18 6 24 35 42 36 30 33 30 27 27 26 29 23 21 22 27 24 24 24 25 24 23 23 25 31 34 31 39 39 39 34 34 36 37 34 39 33 25 22 22 20 15 13
33 31 28 27 22 16 10 28 41 35 33 30 27 25 32 21 25 24 23 23 24 26 31 26 28 29 26 26 25 28 27 31 29 35 40 37 36 35 38 37 37 41 30 25 25 23 19 17 18
35 32 31 26 22 17 14 30 30 29 30 34 30 26 29 22 25 23 24 24 25 27 28 25 27 28 28 30 33 37 36 30 35 39 36 32 28 29 38 40 41 31 27 28 24 19 18 18 18
36 33 31 26 21 10 26 42 28 28 29 30 30 22 25 24 26 22 19 21 22 25 26 27 27 29 30 34 35 33 29 35 33 30 28 30 32 34 35 40 37 32 31 29 22 20 17 19 20
37 31 31 26 23 17 23 42 26 28 27 29 29 26 26 22 24 18 16 23 25 29 30 31 31 28 30 34 37 38 41 30 34 41 34 24 28 35 37 36 34 33 33 27 19 16 18 21 19
36 31 33 26 25 18 22 38 23 27 27 28 24 23 28 23 16 18 18 23 27 30 30 30 33 33 32 32 30 39 50 31 31 39 36 32 29 22 28 38 37 35 33 29 19 20 21 22 21
34 36 31 24 23 11 33 35 27 28 22 26 25 19 22 19 17 20 24 24 28 28 29 27 30 29 28 30 30 37 45 45 30 37 35 35 28 23 18 30 40 37 34 29 24 23 24 23 21
37 34 28 23 23 21 26 34 27 26 23 25 24 20 20 24 19 25 27 23 25 28 24 24 27 23 24 25 21 36 45 43 45 38 32 32 29 29 23 32 39 38 38 32 24 25 22 23 22
37 33 27 25 20 33 30 26 29 26 20 24 23 18 30 19 22 21 24 28 28 24 22 21 24 20 19 21 20 19 24 26 36 39 38 31 27 27 29 30 35 42 37 33 31 25 24 24 24
39 32 30 26 33 33 27 29 27 25 21 24 21 15 22 20 19 19 24 29 23 23 19 15 13 16 17 19 14 18 30 26 32 44 33 31 28 29 31 26 33 41 38 34 35 28 27 25 25
37 32 32 29 33 32 27 28 26 23 21 25 19 17 17 17 17 18 21 24 21 18 13 8 6 9 10 12 14 17 15 22 32 42 29 25 28 28 30 28 30 37 37 37 35 28 27 27 27
37 34 34 30 33 32 28 27 28 20 21 21 17 19 18 15 16 16 16 19 18 12 9 5 4 9 9 10 12 12 14 26 35 39 33 27 27 27 30 33 30 33 39 39 36 32 30 30 29
41 38 42 34 31 29 29 28 23 21 22 20 18 18 17 14 13 15 15 14 17 13 9 9 9 9 12 12 13 11 14 34 39 37 35 38 29 33 33 37 35 39 42 44 37 37 35 33 30
46 42 38 29 31 27 30 20 20 22 23 18 18 19 17 13 16 14 13 13 12 12 10 8 9 9 11 12 14 13 11 21 28 33 35 37 39 37 42 37 41 40 44 48 45 41 37 35 33
44 41 36 30 28 25 31 20 19 21 23 21 19 21 18 16 15 15 12 12 11 12 12 11 10 10 12 15 15 17 17 17 21 31 36 41 46 40 41 44 48 47 46 49 51 46 40 37 35
39 36 30 26 20 21 25 25 18 23 25 21 19 20 21 16 16 14 11 10 11 11 13 12 12 12 12 15 19 19 19 19 17 24 28 36 40 38 41 38 33 34 42 38 50 50 41 38 38
43 40 36 19 15 19 28 26 22 21 23 23 21 17 19 19 16 12 12 7 10 13 14 13 12 13 17 21 23 24 20 18 20 18 28 32 37 37 39 42 41 38 42 42 52 52 45 41 40
40 37 32 23 16 28 28 29 21 23 23 19 24 21 17 17 16 12 13 7 6 9 11 13 13 16 18 23 19 20 20 15 16 14 23 30 28 29 36 33 34 31 35 49 42 47 50 42 43
44 43 38 31 27 17 30 27 22 22 25 24 21 24 21 18 16 10 13 9 6 6 9 11 14 16 19 20 12 10 16 14 15 15 14 25 21 26 33 36 36 29 28 30 30 43 42 35 35
50 47 39 34 31 29 19 22 16 18 21 24 22 26 19 20 17 10 13 10 8 5 5 10 12 16 16 15 7 4 11 12 12 12 9 19 22 24 22 20 15 11 10 9 13 25 24 26 23
53 46 43 38 35 34 31 26 20 18 16 17 22 23 21 15 17 13 12 10 9 6 5 7 11 11 12 10 8 5 6 10 11 12 15 8 13 6 16 20 13 10 5 6 20 23 24 24 24
48 47 44 40 40 40 28 29 23 12 7 14 21 28 20 20 12 15 12 11 9 8 7 7 10 10 11 9 7 6 4 4 11 15 15 19 15 10 5 10 11 11 13 12 12 22 24 24 26
51 46 41 41 42 37 25 28 22 18 9 19 23 20 18 20 14 17 14 12 10 11 9 8 9 7 8 10 9 8 7 6 4 3 4 10 13 17 18 18 19 16 17 18 18 21 24 25 30
48 43 45 32 31 25 25 30 20 15 18 29 29 20 19 21 15 18 18 14 11 11 13 11 11 10 8 8 7 8 8 8 7 7 5 6 7 20 20 18 23 19 23 24 18 24 30 30 32
42 42 36 21 24 27 28 21 13 20 19 14 20 21 22 24 18 20 22 20 13 13 14 13 13 12 10 10 8 8 9 9 8 9 8 8 5 6 11 11 13 12 9 12 14 14 13 17 21
45 34 38 36 32 28 25 22 22 19 22 19 24 23 25 22 22 21 23 22 18 17 14 14 15 14 13 12 10 9 9 9 11 11 10 10 8 7 9 11 12 13 16 19 20 21 18 20 21
38 39 38 40 38 26 27 25 19 23 21 22 24 27 23 26 23 23 20 24 23 20 18 17 17 17 14 13 13 14 13 13 13 13 13 12 13 14 14 15 15 16 18 20 21 23 24 25 23
30 32 36 34 30 38 38 28 25 26 29 31 23 23 29 30 26 24 21 26 27 25 23 22 20 20 18 15 14 16 15 14 16 17 18 17 16 16 18 21 22 20 20 19 20 23 26 26 26

GFSSGP_500_spd_069.txt.gz
Wind_Speed
34 36 34 33 27 20 20 23 29 20 29 29 26 32 31 33 31 30 28 26 28 29 27 25 26 27 26 22 23 27 33 38 40 41 38 36 36 32 32 27 27 30 30 25 25 24 22 22 23
34 35 36 34 26 20 21 27 27 26 33 37 34 36 33 37 30 25 19 25 30 25 24 25 24 26 27 26 23 24 27 33 39 42 40 38 38 37 34 31 29 31 32 29 27 23 25 23 21
38 37 35 34 28 18 22 28 22 31 35 34 32 31 34 31 25 24 23 23 25 25 22 25 24 25 25 25 26 26 26 29 33 39 37 37 37 38 39 34 33 33 34 33 30 26 24 21 20
40 40 38 36 27 17 17 26 28 33 30 32 29 31 34 27 24 23 23 23 19 24 22 20 24 22 23 25 26 28 30 31 33 37 36 35 37 35 31 33 35 34 36 36 32 32 27 22 22
42 41 40 36 27 20 18 14 25 30 27 32 35 30 30 23 23 24 24 23 22 20 24 18 20 20 21 25 30 32 33 37 33 34 36 32 36 39 36 33 37 36 38 39 36 27 24 24 22
46 41 43 34 27 24 26 27 28 31 37 35 35 32 27 19 22 24 24 23 20 18 20 20 23 23 25 23 30 32 31 36 32 30 26 28 38 38 32 34 41 35 39 39 39 30 22 22 21
45 41 43 39 31 25 25 20 26 35 34 33 29 28 27 20 23 22 18 19 19 21 23 22 22 24 28 28 31 33 29 36 28 28 33 34 28 34 31 31 34 38 41 40 33 28 28 22 19
45 45 46 42 29 21 19 24 26 32 33 30 26 27 25 18 20 21 16 18 23 25 26 23 23 24 25 26 28 29 34 39 34 40 35 35 32 33 33 30 45 47 41 35 32 29 26 25 22
44 50 52 40 30 17 17 15 28 34 34 30 27 27 20 20 22 24 22 22 23 28 29 23 24 25 25 25 23 25 26 30 33 44 47 35 28 25 27 35 39 42 43 39 32 27 25 24 21
48 50 46 36 29 28 14 17 29 37 30 27 28 24 13 14 22 24 24 16 20 21 24 20 24 22 23 22 19 23 26 30 35 32 35 41 40 32 26 18 38 38 38 34 33 29 24 22 21
43 48 41 38 29 36 29 24 27 36 30 23 25 24 19 18 18 18 20 16 20 19 20 19 23 20 18 16 16 20 26 27 27 31 46 37 41 41 28 24 17 27 38 35 34 29 27 24 21
45 44 42 39 31 39 34 38 36 41 33 24 24 21 22 22 18 16 19 16 17 16 15 16 14 11 7 10 15 15 20 16 16 31 46 39 26 33 26 29 27 27 33 37 36 34 32 21 25
43 40 41 40 35 40 38 37 29 39 26 25 27 19 21 23 21 16 16 15 15 14 15 14 11 8 7 7 9 12 14 18 17 28 48 48 25 28 30 27 26 29 35 39 38 38 35 24 26
40 41 39 40 40 40 40 38 32 23 25 24 27 20 22 20 22 14 13 13 12 14 13 13 11 13 10 11 10 10 12 17 24 28 42 39 27 32 27 24 25 28 34 37 38 37 35 27 29
42 43 41 43 44 41 39 39 29 22 24 23 27 23 19 21 21 18 13 11 7 9 9 10 10 13 14 12 9 9 11 10 24 33 40 39 25 26 24 23 25 26 27 34 38 37 35 29 29
42 45 44 44 44 42 39 33 21 24 27 26 26 22 18 17 23 21 15 12 8 7 9 8 9 10 13 11 10 6 8 6 20 32 38 34 28 21 23 23 24 31 31 27 36 39 36 31 31
38 43 48 44 37 37 35 27 17 21 26 29 27 20 22 10 23 21 17 13 10 7 8 8 9 9 12 12 10 8 8 9 16 33 34 33 32 35 33 30 27 31 32 31 32 37 38 40 34
35 38 39 35 29 25 19 26 23 21 25 28 24 18 23 15 12 17 18 13 13 8 8 8 9 11 11 14 14 14 13 13 14 19 24 31 35 35 38 34 33 36 38 31 34 40 43 45 43
39 45 37 36 28 36 29 22 21 19 21 25 22 19 22 21 11 13 15 14 14 8 10 7 8 11 14 14 18 20 17 17 15 17 20 25 28 34 37 37 37 33 37 29 32 34 38 42 49
37 43 39 32 30 31 29 20 23 26 30 28 22 21 19 21 12 12 14 14 14 11 7 8 7 8 12 17 19 18 17 17 14 15 15 15 22 20 28 34 31 32 31 31 30 31 36 40 39
41 43 34 30 38 38 25 28 31 21 19 25 26 20 20 19 9 6 13 12 13 12 7 6 8 9 13 16 17 13 8 14 13 9 8 9 15 19 20 26 27 29 32 36 35 35 36 34 42
37 48 39 38 43 41 26 26 33 30 27 21 21 22 21 19 18 4 14 14 12 13 8 5 9 12 13 11 11 4 3 7 6 6 8 7 10 16 24 21 27 29 30 35 38 37 36 30 21
37 50 48 50 52 41 36 33 26 27 26 21 19 16 22 21 20 12 16 15 13 12 9 8 10 13 11 9 8 5 1 5 6 9 7 10 6 18 22 23 23 28 21 22 22 18 19 17 19
36 51 51 51 47 53 40 42 27 20 13 15 19 15 20 20 19 8 14 15 15 13 10 10 11 12 9 8 6 6 5 3 2 6 7 7 6 2 7 10 22 17 20 17 12 14 15 16 20
37 44 51 51 49 55 39 40 23 15 18 17 14 17 24 16 16 10 12 17 17 16 15 12 10 12 11 10 7 5 5 3 3 3 2 4 12 13 13 13 16 17 19 13 14 13 14 20 23
35 39 45 46 46 49 34 43 19 16 23 20 21 27 29 20 20 13 14 19 17 18 17 13 12 11 12 10 9 5 5 6 3 2 2 4 6 14 21 22 19 19 19 19 20 16 20 21 24
24 36 35 45 50 41 39 28 19 22 17 20 27 27 27 22 20 16 18 19 19 19 18 14 14 12 11 11 10 6 3 3 7 6 4 5 7 8 9 21 16 18 20 19 23 19 15 22 26
20 20 35 39 41 41 33 32 21 20 18 23 19 20 26 24 22 21 17 20 22 22 20 17 16 14 12 12 11 8 6 6 6 6 9 8 7 5 5 8 9 9 11 14 15 16 17 16 14
24 27 36 35 39 36 30 32 33 28 28 28 27 29 31 28 24 22 17 22 23 24 23 22 17 16 14 13 11 10 10 10 11 9 8 9 11 10 8 9 12 12 13 15 15 17 19 19 21
25 36 32 42 42 35 29 32 39 31 32 34 33 33 30 26 23 21 21 20 24 26 25 26 22 19 18 16 15 13 12 12 13 12 10 8 9 9 12 15 16 18 19 19 18 18 17 20 22

GFSSGP_500_spd_072.txt.gz
Wind_Speed
37 37 36 35 31 23 20 27 30 32 33 33 28 19 22 28 31 30 30 26 28 28 27 24 24 22 25 27 26 24 25 28 31 34 37 39 39 37 33 31 31 28 25 25 26 24 22 24 23
39 40 39 39 33 22 23 27 29 31 36 33 29 22 24 30 25 29 25 27 29 29 28 25 22 23 24 25 25 26 26 27 30 35 37 39 36 37 35 30 30 25 25 28 28 27 26 26 23
40 40 40 41 37 18 24 28 30 32 36 31 27 24 28 25 27 31 26 26 27 28 25 24 24 25 26 27 26 24 26 28 30 33 36 37 39 37 36 34 30 26 25 28 31 30 27 26 26
42 42 42 42 36 21 19 27 33 34 36 33 29 26 28 26 27 28 24 24 26 25 22 23 28 25 24 22 23 27 28 30 32 33 34 34 35 37 39 36 35 30 30 33 34 32 30 26 25
43 41 40 39 37 22 23 29 36 37 38 32 34 25 29 27 25 29 23 23 25 26 23 21 25 24 22 25 23 26 31 31 36 37 35 35 36 36 38 36 34 32 33 33 34 33 32 29 25
41 39 39 39 38 27 30 33 35 36 36 32 36 28 29 25 28 29 19 18 17 23 26 20 23 25 24 27 27 28 34 38 36 40 37 35 34 35 36 35 32 31 35 35 36 36 35 34 28
43 42 41 42 44 34 28 34 36 37 36 25 33 31 33 26 30 24 18 17 19 22 23 23 24 24 27 28 28 28 34 45 35 43 44 29 31 30 28 34 32 35 36 36 36 37 38 39 29
42 43 43 43 45 33 28 38 36 33 21 30 33 31 32 26 28 24 17 17 23 29 26 27 26 24 28 29 27 27 30 33 38 28 31 32 23 39 36 29 29 35 36 36 36 37 35 34 24
45 45 45 46 38 25 32 41 45 25 25 27 33 29 25 23 29 27 19 20 24 28 26 26 27 27 27 27 24 24 26 29 26 31 29 27 30 32 27 29 30 35 39 42 36 37 38 27 23
47 45 46 38 36 27 39 48 48 42 23 25 28 24 24 23 23 28 23 13 18 22 25 25 23 23 22 24 21 21 20 20 21 24 29 32 39 35 28 25 31 35 38 38 39 40 38 26 25
45 44 45 42 32 32 41 41 51 49 32 27 28 22 24 24 23 24 21 13 16 21 22 20 19 16 16 17 18 15 15 20 23 25 28 27 37 33 28 24 24 26 29 50 46 39 32 29 26
47 48 44 33 30 36 42 40 48 50 39 29 27 20 19 20 26 25 19 15 17 17 18 16 14 13 8 6 10 10 13 14 19 22 30 30 45 37 38 27 23 17 38 40 39 36 33 30 24
50 46 42 34 32 37 41 50 51 46 39 30 30 20 20 18 27 23 19 17 17 15 16 13 10 8 8 6 8 9 9 14 14 15 24 29 49 42 36 32 25 24 24 31 32 35 34 31 28
45 45 41 40 33 37 43 47 55 48 39 34 32 22 21 20 25 21 17 18 16 16 13 11 12 10 9 10 10 10 10 13 14 20 22 31 48 43 29 30 30 29 31 33 36 41 37 34 31
46 43 40 40 34 36 39 46 50 45 39 34 33 29 24 22 25 20 16 19 17 16 12 11 12 11 9 8 9 9 9 10 13 20 26 45 36 38 27 30 30 32 30 34 35 41 37 36 34
45 43 40 35 35 34 43 46 47 47 38 30 31 30 27 22 21 21 16 19 19 17 14 13 12 12 8 6 7 7 8 10 6 14 22 43 48 42 27 26 27 27 27 25 29 30 31 32 32
47 41 41 35 35 39 46 46 43 41 39 34 33 31 28 23 14 18 16 20 21 17 14 13 13 12 13 10 8 8 8 8 5 12 25 50 39 32 27 26 26 23 25 25 25 24 30 36 32
39 39 37 36 30 42 37 40 32 37 41 34 31 31 28 27 13 11 21 19 19 16 13 13 12 11 9 11 10 11 14 10 5 12 28 39 40 32 27 22 26 25 24 28 28 26 27 29 29
36 35 36 34 29 32 30 34 35 42 40 32 33 23 25 24 13 8 21 15 15 14 14 13 11 10 9 11 11 13 15 15 13 19 26 25 36 34 33 30 29 34 30 26 31 32 28 32 33
33 31 33 31 31 36 30 38 38 39 41 30 29 25 27 23 12 6 17 12 15 14 14 14 10 8 10 13 16 15 12 16 19 20 22 19 19 27 31 36 35 35 35 32 28 34 32 28 32
34 34 31 33 37 36 33 40 38 39 36 30 27 22 22 26 15 6 12 12 15 14 13 12 9 8 12 17 15 13 6 9 19 19 19 19 20 20 22 27 34 38 37 35 31 34 29 27 28
34 33 37 32 37 40 44 44 38 41 38 28 24 25 24 21 15 8 10 12 14 15 12 11 9 9 14 12 12 10 5 10 16 15 12 12 13 19 24 22 29 36 33 30 30 31 31 28 30
25 33 32 31 40 46 46 42 36 39 38 26 22 22 23 21 18 9 7 15 14 15 13 12 9 9 11 9 8 7 5 4 10 11 13 12 14 21 25 28 28 28 29 27 26 29 30 33 36
24 36 30 30 41 52 46 47 31 37 31 22 23 27 27 22 18 12 11 17 17 17 15 13 11 9 7 9 6 6 4 2 4 8 11 12 13 18 25 25 29 25 26 27 27 28 26 25 28
28 33 32 32 39 52 44 47 35 19 14 18 24 29 31 26 22 15 14 16 20 20 17 16 14 12 8 7 6 4 2 3 2 2 3 7 15 11 15 16 23 25 27 27 24 24 20 23 24
24 26 33 34 34 49 43 52 38 28 21 24 30 22 24 28 18 15 10 18 22 21 18 18 17 16 12 8 5 5 3 3 3 5 5 6 8 12 16 18 19 24 23 24 24 23 25 27 29
15 18 25 30 28 41 42 44 40 37 29 29 27 28 28 26 15 14 12 17 21 19 19 19 18 18 15 10 7 6 4 5 4 4 3 4 6 7 8 18 19 18 19 21 23 24 26 24 25
17 17 20 24 31 34 35 37 36 31 35 30 34 31 30 27 25 20 17 16 20 22 23 21 21 19 17 14 10 9 7 6 5 4 4 4 5 4 6 7 17 22 25 26 27 24 24 22 19
17 22 19 21 30 32 31 30 30 27 25 29 31 32 28 25 17 14 13 15 19 23 25 24 23 22 19 17 13 11 11 11 10 9 8 9 7 6 6 6 11 14 14 14 15 16 19 20 22
10 23 23 19 30 29 31 30 30 34 37 40 42 33 30 25 21 19 19 21 21 23 26 26 26 25 24 20 17 16 16 14 11 10 9 9 9 7 7 11 13 13 16 18 18 19 21 24 24

GFSSGP_500_spd_075.txt.gz
Wind_Speed
33 34 35 35 35 32 25 33 37 33 32 33 33 26 23 21 22 28 30 30 34 33 32 28 25 25 24 25 24 24 25 26 26 26 28 29 28 32 34 33 30 29 26 25 24 21 20 20 20
36 37 37 37 36 31 25 35 36 34 33 34 32 27 27 23 26 26 28 31 32 33 33 27 27 27 24 23 24 25 25 26 28 28 28 28 30 30 31 32 31 29 27 27 25 23 23 23 22
41 41 40 39 39 30 25 34 33 34 35 37 36 30 29 26 26 23 30 31 33 34 31 28 28 26 26 26 26 27 30 31 29 29 30 29 30 31 28 30 30 29 27 26 26 26 25 25 23
43 39 40 40 39 28 23 33 34 36 39 40 38 36 30 27 24 23 30 30 30 33 29 28 29 27 27 28 29 29 29 31 31 32 33 32 31 32 31 29 31 31 30 28 27 25 26 26 25
40 41 40 38 36 25 25 31 35 38 41 41 38 36 32 26 25 25 26 30 28 30 28 28 27 29 28 29 30 32 32 31 34 35 34 35 33 33 33 31 30 32 32 29 26 25 29 26 27
42 41 39 35 37 33 25 28 36 41 42 39 43 40 36 27 25 25 25 30 29 31 26 23 24 24 26 28 30 34 33 35 37 42 40 42 39 34 32 31 32 34 32 32 27 25 30 31 27
42 41 38 37 36 40 20 30 36 40 41 42 46 43 36 33 23 24 26 30 31 32 29 24 21 24 28 28 32 36 37 36 36 47 52 36 33 29 39 32 31 33 34 33 32 28 29 24 34
42 42 39 36 36 36 22 29 36 41 44 44 46 44 35 36 24 23 25 28 31 32 33 30 24 26 31 30 34 37 39 34 34 36 47 36 39 32 30 25 25 32 33 30 30 30 29 36 34
43 42 37 38 36 31 21 32 41 45 47 49 52 45 37 35 25 20 24 26 28 30 32 24 20 23 26 30 33 35 37 31 33 36 29 23 32 31 32 29 30 25 31 29 30 28 30 33 36
38 37 41 41 41 37 29 35 45 46 50 53 55 48 41 31 23 19 25 27 29 30 27 22 24 23 23 26 30 33 32 28 27 23 22 27 28 29 31 29 31 25 27 27 31 26 32 36 35
43 44 41 40 39 41 35 37 45 52 53 54 52 48 47 28 20 18 18 26 27 25 22 21 25 21 20 21 25 30 28 25 20 18 20 23 31 33 36 32 28 23 25 28 26 31 36 30 34
43 41 40 42 43 43 38 33 47 52 53 53 49 52 52 26 21 15 17 23 22 21 19 20 22 19 15 14 17 16 18 20 20 23 25 28 31 30 35 37 33 26 28 25 27 33 33 35 37
44 39 43 46 47 44 37 39 45 52 51 49 50 54 49 26 19 14 18 22 23 18 18 20 17 17 13 11 13 14 16 17 16 15 16 25 33 29 41 37 29 26 24 30 28 24 40 38 35
39 41 44 47 48 43 40 38 41 49 50 51 53 53 49 28 20 13 17 21 24 18 18 18 15 15 14 11 13 14 16 17 17 16 19 22 34 39 38 39 32 26 24 18 22 25 35 36 31
39 42 44 46 44 45 38 42 40 39 50 50 53 50 43 29 21 15 20 23 23 17 17 16 15 11 11 11 12 11 12 15 17 20 20 20 31 54 40 46 39 27 28 27 23 27 34 34 33
41 43 41 42 45 41 44 40 34 37 42 49 52 47 38 33 20 20 20 22 21 16 19 16 15 13 12 13 11 10 11 13 16 14 21 26 32 51 37 44 33 27 28 26 27 29 33 35 37
39 41 43 47 42 41 45 39 32 38 43 45 47 44 36 35 23 22 23 20 20 16 18 17 17 14 13 14 14 14 14 13 14 10 16 26 28 50 41 36 27 30 24 27 28 29 28 33 37
42 42 46 44 39 43 44 43 37 34 39 39 38 43 40 41 26 26 22 20 18 15 15 17 16 15 13 12 14 17 17 16 14 11 18 25 31 46 49 35 32 28 26 23 28 22 26 26 33
42 43 42 40 38 37 42 43 38 33 38 36 37 37 46 43 31 28 19 16 17 16 14 17 15 16 13 10 13 17 20 21 17 11 14 30 44 46 43 41 33 28 24 24 26 26 26 25 24
39 39 36 38 38 34 43 40 36 35 38 34 39 36 39 35 35 24 18 13 16 16 13 15 15 15 12 10 16 21 23 22 19 14 19 24 34 39 38 32 28 21 25 28 26 26 29 32 28
38 38 34 33 36 37 37 34 33 36 36 34 34 35 34 39 32 22 18 10 17 15 11 15 13 13 11 15 16 17 17 17 16 19 24 26 26 22 35 34 27 26 26 29 34 32 29 32 32
38 38 35 37 33 37 35 34 34 35 35 35 37 39 36 35 31 22 16 10 19 14 12 15 11 10 12 14 11 11 9 7 12 16 16 21 21 22 19 22 29 28 35 34 36 38 35 37 33
33 30 32 33 34 37 33 37 31 36 35 33 33 30 39 32 28 21 15 11 19 16 14 14 11 9 11 11 9 7 7 4 6 13 15 15 21 22 29 30 32 35 33 38 38 42 39 39 35
27 29 28 27 31 35 30 37 26 39 33 35 35 33 32 24 25 20 20 17 18 19 16 15 12 10 8 9 9 5 2 1 5 11 13 14 17 21 23 35 33 30 28 33 36 36 34 33 31
27 25 23 28 31 33 23 32 24 32 30 32 34 35 27 26 26 26 23 18 15 19 18 16 14 12 9 7 10 7 3 3 5 6 9 14 17 15 19 30 39 42 38 34 32 33 35 34 32
24 25 23 31 36 33 23 33 31 27 32 28 32 34 31 29 27 22 20 18 14 19 20 18 16 13 12 8 8 9 7 4 4 7 5 5 5 12 10 20 27 31 34 35 33 37 35 36 36
19 18 19 27 31 30 27 27 32 31 34 30 32 32 32 32 27 21 21 18 15 22 22 20 18 14 14 11 8 9 9 7 5 5 6 8 8 8 11 18 20 22 30 34 34 36 29 27 32
17 16 17 22 25 24 21 15 25 33 40 33 26 27 26 26 25 23 20 16 16 21 23 21 19 16 15 14 11 10 9 7 7 7 6 7 8 9 11 12 21 20 22 27 25 23 24 24 27
15 14 17 19 19 20 14 15 22 30 40 37 30 32 28 27 30 27 23 22 23 23 23 25 23 20 20 19 16 14 12 13 11 11 12 11 11 11 11 11 10 17 21 24 25 27 31 32 31
16 15 19 20 16 14 19 15 20 21 31 38 39 38 34 33 24 23 27 25 24 23 22 23 24 26 27 24 23 20 18 17 16 13 13 14 13 12 12 12 13 14 17 19 19 19 21 22 24

GFSSGP_500_spd_078.txt.gz
Wind_Speed
32 32 30 31 33 32 27 29 35 34 32 30 31 33 28 25 24 26 26 31 31 30 31 34 30 29 27 25 25 25 25 22 22 22 22 22 22 24 23 25 23 23 26 24 23 22 22 20 17
34 33 33 36 36 35 28 31 35 34 35 33 32 33 31 28 28 25 26 31 33 32 32 32 29 29 30 26 24 24 24 26 27 27 27 26 23 22 22 22 23 24 28 27 24 21 19 18 17
36 36 37 38 38 35 30 30 35 32 34 34 35 35 33 29 29 26 28 32 33 30 35 33 28 29 31 29 26 26 27 28 30 31 29 29 25 25 24 22 20 23 27 29 26 21 19 19 19
39 40 41 40 36 36 28 32 33 33 32 34 37 37 34 32 32 30 29 30 34 30 31 31 32 30 31 31 27 29 32 32 33 31 29 33 30 29 27 24 22 23 27 28 26 23 21 21 22
40 44 43 39 36 34 26 30 32 31 34 37 38 38 35 36 35 34 28 30 34 28 30 28 30 30 28 28 27 29 31 34 33 33 31 35 33 32 32 29 25 25 28 28 24 23 20 22 23
39 40 38 37 36 36 29 27 31 31 36 36 38 38 38 40 40 36 30 30 34 29 27 26 30 29 26 28 29 31 30 33 31 34 33 38 38 37 32 29 28 26 28 29 23 21 23 25 27
43 42 41 41 37 37 21 24 27 32 36 38 40 41 41 43 43 43 33 33 33 29 27 24 26 26 28 28 32 35 34 34 31 33 33 37 45 30 40 28 35 27 26 30 28 25 25 26 27
39 41 40 39 36 27 19 24 27 35 38 38 42 45 44 45 48 45 32 35 31 30 27 25 24 23 24 25 32 37 37 34 31 35 35 35 34 38 36 36 39 20 23 28 32 31 28 28 28
40 42 39 35 28 27 24 31 31 37 38 40 44 45 47 48 50 45 35 35 29 28 27 25 23 20 22 27 31 35 36 34 33 32 32 31 29 26 45 33 29 31 19 25 31 33 32 31 25
39 39 35 29 30 31 36 33 33 36 37 40 46 48 50 50 49 43 38 35 29 26 25 24 22 19 24 23 27 29 29 31 31 27 30 30 21 23 36 26 28 32 24 24 32 32 33 31 28
38 38 31 33 35 38 37 31 30 37 41 45 48 49 52 53 48 43 36 32 28 25 22 22 21 19 24 23 25 23 23 23 27 27 25 26 23 27 28 25 28 29 25 23 27 27 27 28 31
43 37 34 35 37 40 38 37 36 37 40 46 47 52 55 51 45 44 33 28 29 23 21 21 19 19 23 22 21 20 18 17 19 25 25 23 25 22 32 31 32 31 30 22 25 26 30 29 32
42 39 37 38 39 40 39 39 35 41 38 48 48 52 51 48 45 42 34 28 31 21 19 19 17 19 22 21 21 22 19 17 17 19 23 27 30 28 31 35 38 34 35 24 26 30 28 27 29
37 41 38 39 40 36 39 38 47 38 36 42 51 52 47 46 44 40 35 28 27 20 18 18 17 19 19 19 19 21 19 15 18 17 23 24 23 31 34 38 36 35 34 23 28 33 33 28 32
38 39 39 36 34 37 34 43 45 32 35 43 50 48 48 46 44 38 33 28 25 19 18 20 18 19 18 18 18 18 18 17 13 16 19 25 27 26 36 39 37 42 32 29 22 35 32 32 32
38 38 36 33 36 35 39 45 35 32 36 43 49 48 48 45 38 37 33 26 24 20 20 22 20 18 17 19 20 19 18 17 16 16 17 24 30 27 33 38 45 44 39 27 27 26 31 23 23
39 39 36 35 35 37 45 47 38 34 44 44 41 46 47 40 32 29 24 26 24 22 22 23 21 17 15 18 20 19 19 20 21 21 18 22 26 27 32 46 47 49 42 27 26 24 25 24 26
38 36 35 35 35 40 46 46 38 38 46 41 41 43 45 38 30 32 27 28 25 25 20 19 20 16 14 16 18 20 19 19 21 25 23 24 23 26 41 49 50 48 40 27 26 25 25 25 29
34 34 34 34 35 45 45 43 40 46 41 43 40 39 40 35 37 38 33 31 30 29 20 16 18 16 14 15 18 20 21 26 26 25 23 23 23 28 30 53 49 49 35 30 24 25 24 26 28
34 34 34 35 36 46 43 40 44 47 38 44 41 37 34 31 35 36 31 35 32 30 18 15 15 15 12 13 17 23 27 28 28 24 21 21 22 27 38 49 54 42 32 28 22 25 26 24 25
33 33 32 36 39 37 43 44 45 40 37 42 38 36 35 33 30 29 34 33 31 26 14 16 15 13 10 11 18 19 17 19 18 19 16 12 21 27 38 54 49 36 33 26 25 24 24 26 27
32 30 32 37 38 38 43 48 36 34 37 40 37 40 35 32 28 30 30 30 28 25 12 15 15 13 8 12 13 13 14 12 11 6 13 16 16 20 31 39 38 39 23 18 20 25 27 29 28
29 30 31 37 31 37 42 42 30 29 30 30 35 36 31 30 29 27 27 20 24 19 12 15 14 13 10 8 8 11 11 9 7 3 9 11 12 17 18 21 35 30 25 24 23 26 28 33 31
31 29 29 32 29 37 32 31 22 18 24 31 33 34 32 30 31 28 29 27 23 20 13 15 14 13 11 7 7 8 9 7 3 3 4 8 11 13 18 20 23 34 33 28 27 28 31 34 36
27 25 28 30 27 29 23 25 25 24 25 34 38 36 32 31 30 31 31 32 28 22 15 16 15 14 13 10 6 6 6 8 5 2 4 6 10 14 16 18 25 29 22 29 28 28 32 36 37
24 25 24 26 26 26 20 24 20 18 29 36 40 36 33 31 30 29 27 31 29 23 19 16 16 16 16 14 9 6 4 5 7 6 6 6 5 7 12 15 17 27 30 28 32 33 34 34 32
22 22 23 22 25 26 22 23 27 17 32 40 38 36 38 35 30 25 27 28 26 24 21 18 18 19 18 16 13 8 7 5 7 8 8 8 8 6 7 11 13 26 35 28 31 34 37 34 33
22 21 21 21 24 24 19 21 25 20 34 37 35 31 34 30 32 30 29 31 30 27 25 21 17 20 19 19 15 12 10 8 8 8 8 8 8 9 10 11 12 16 19 23 22 29 35 35 33
22 22 21 19 21 20 18 15 17 21 39 41 35 30 34 34 35 33 28 30 30 31 27 21 19 23 23 20 16 15 13 12 10 9 10 11 11 11 12 12 14 18 19 21 20 20 23 22 23
23 21 22 19 19 14 15 13 16 16 26 37 32 31 31 31 31 23 28 31 34 31 25 20 23 22 21 20 18 18 17 17 16 14 11 9 11 15 17 17 16 16 17 19 21 22 21 20 21

GFSSGP_500_spd_081.txt.gz
Wind_Speed
31 31 29 28 30 28 25 28 32 33 31 26 27 27 26 26 24 25 26 29 30 29 29 29 26 24 28 27 25 23 25 25 24 20 20 20 20 18 21 21 20 22 24 23 22 22 21 18 16
29 31 32 31 31 28 26 28 32 33 33 30 28 28 29 27 25 28 28 30 30 32 32 31 31 29 27 26 26 25 24 26 24 24 23 24 22 21 21 18 20 20 21 21 20 23 22 20 17
30 31 33 33 34 32 29 27 32 32 32 31 31 30 30 26 28 29 30 30 29 36 33 32 32 31 30 23 27 27 27 27 27 28 27 25 24 23 23 21 19 21 25 23 23 24 23 20 19
32 34 35 37 36 35 31 30 32 32 32 29 30 32 32 27 28 28 32 31 29 36 37 34 35 33 30 25 25 28 27 27 29 30 29 28 26 23 23 24 22 22 24 24 23 25 23 22 22
34 36 36 35 34 33 25 29 32 32 32 31 32 32 30 29 29 32 36 34 30 35 39 36 36 33 28 26 25 28 29 26 27 27 29 28 29 29 31 26 25 25 23 22 21 20 23 24 23
39 39 38 35 31 32 29 27 30 30 31 33 36 31 29 30 33 37 38 35 30 37 40 38 36 30 26 26 28 30 31 28 26 26 27 28 30 25 33 30 25 26 22 21 24 20 24 25 27
40 39 39 40 39 35 25 26 29 30 33 35 33 32 32 35 37 39 40 40 34 37 38 38 33 26 24 24 27 29 30 29 30 28 27 27 33 28 33 33 30 31 25 22 26 26 25 26 19
36 38 40 38 36 32 22 31 30 33 33 35 33 33 36 39 39 40 43 44 34 37 38 37 31 24 23 23 24 25 31 32 30 29 29 27 26 26 30 25 27 29 24 20 28 32 32 27 25
39 41 37 34 34 31 28 37 35 34 34 34 33 33 38 37 38 42 44 43 34 40 37 36 32 23 21 20 23 26 31 28 27 27 28 27 26 28 26 29 38 28 31 19 28 34 33 30 28
44 42 37 34 33 33 34 35 34 33 33 34 36 35 36 35 39 42 45 43 36 40 37 37 33 23 20 20 25 25 27 25 24 25 26 26 26 27 27 19 32 27 31 21 27 34 36 32 28
41 45 37 35 34 36 37 35 34 36 36 36 38 34 33 35 38 42 44 43 35 36 40 38 29 23 20 21 25 24 23 22 20 21 23 25 25 25 23 19 30 27 33 30 26 33 35 34 29
41 38 37 38 36 36 35 36 35 34 37 35 32 31 31 34 37 40 41 43 35 32 37 35 27 22 20 21 23 23 22 22 19 17 18 25 25 24 23 23 29 28 33 26 24 29 30 32 35
42 40 39 38 36 37 37 36 32 41 33 30 32 29 32 35 36 34 38 38 33 32 39 34 27 23 19 21 21 21 21 21 18 19 16 21 24 25 26 24 29 38 35 32 21 24 30 32 31
38 39 38 39 37 37 38 35 42 32 30 30 29 32 34 34 36 32 33 36 33 32 39 36 26 24 19 21 21 19 19 19 18 18 19 18 23 26 30 29 33 35 31 37 26 28 31 32 34
38 37 38 38 36 35 36 38 37 34 28 29 29 33 37 37 37 34 36 37 33 33 34 33 28 22 20 22 21 18 18 17 16 16 16 17 19 25 25 31 33 37 38 33 32 32 33 33 35
36 37 36 36 36 35 33 36 36 36 39 35 34 35 36 39 36 34 34 34 35 32 35 32 28 23 22 25 20 18 19 18 16 16 16 17 20 22 24 29 35 39 43 38 38 31 34 35 37
37 35 36 39 35 33 32 37 34 34 36 33 37 35 35 37 35 33 32 35 32 34 29 29 23 24 23 26 19 18 19 18 16 17 18 22 22 24 26 30 33 39 38 41 41 32 33 36 34
36 39 38 35 32 32 33 37 36 35 36 40 35 36 36 37 34 33 36 36 30 26 25 24 22 25 24 24 17 18 19 18 17 19 21 22 25 26 28 31 34 41 43 45 42 34 29 35 37
37 37 37 35 35 34 34 35 37 41 37 41 37 37 37 39 37 35 31 31 29 26 25 27 27 29 23 21 17 18 19 22 25 28 30 27 25 24 25 33 32 35 44 47 38 30 30 29 33
36 36 35 36 35 36 34 35 39 37 38 42 40 40 38 41 40 34 29 31 30 28 27 28 28 28 20 19 15 15 19 26 28 25 24 25 22 24 28 28 38 33 48 47 36 22 29 31 31
35 35 34 35 33 33 36 39 34 34 37 42 41 38 36 43 39 35 32 29 27 31 31 29 29 22 19 17 14 16 19 18 19 18 14 17 16 21 32 27 29 37 45 45 36 27 32 32 30
34 33 33 32 32 32 33 35 32 33 38 43 37 35 36 43 39 36 32 25 28 30 30 30 28 18 19 16 14 15 13 13 13 7 4 7 10 13 28 33 37 43 51 48 39 32 30 34 33
32 31 31 31 30 32 28 31 33 31 36 30 32 30 35 39 37 34 27 25 26 28 27 28 25 16 18 16 13 13 12 10 8 3 3 0 4 6 13 20 37 37 53 45 32 41 35 32 32
33 32 30 30 30 29 26 31 25 24 22 27 26 30 37 36 33 31 27 27 28 29 25 23 22 17 18 17 13 12 10 7 5 4 2 2 2 1 4 7 15 35 42 34 31 24 21 28 29
31 30 30 31 30 26 26 27 16 13 18 13 20 27 35 36 34 30 29 26 23 29 25 22 20 20 19 19 14 11 9 7 6 4 2 3 4 5 6 8 11 10 29 29 31 26 26 22 24
29 31 28 29 29 23 24 19 14 11 17 24 26 29 31 35 35 31 30 35 24 29 27 24 23 22 20 20 16 10 10 7 6 7 5 2 1 3 8 10 13 17 25 20 30 35 25 24 28
29 28 28 28 27 24 20 19 18 17 16 19 29 34 33 35 32 32 31 31 29 35 31 29 24 25 21 19 17 13 9 9 6 7 7 6 4 2 2 7 11 17 19 21 25 19 26 28 32
28 27 26 26 24 24 17 16 17 17 19 14 31 36 37 35 33 31 29 32 25 33 32 31 26 25 22 20 18 15 11 7 6 5 5 6 7 5 4 6 7 12 21 25 26 20 21 24 28
26 24 24 23 22 22 16 16 14 17 21 23 27 39 41 36 36 35 35 34 30 34 33 31 28 23 22 21 17 15 14 11 10 7 4 5 8 9 9 8 7 9 11 15 18 19 22 19 19
23 21 21 20 21 20 18 12 14 14 18 21 29 40 41 40 38 38 37 34 36 35 36 34 30 24 20 19 17 16 16 14 12 13 10 7 5 5 6 9 12 13 12 11 15 19 21 20 19

GFSSGP_500_spd_084.txt.gz
Wind_Speed
33 30 28 29 30 30 25 21 24 26 28 26 27 26 25 26 22 23 24 23 23 24 24 25 25 22 22 25 27 26 24 24 24 25 23 20 19 19 19 18 19 21 22 24 24 25 24 22 20
30 29 28 29 31 30 28 22 27 28 29 28 28 28 27 28 22 24 25 24 26 24 26 27 27 24 23 25 28 27 25 23 23 24 24 23 22 22 23 22 20 19 20 22 24 25 24 22 21
31 32 31 32 32 31 29 26 32 31 32 32 31 29 30 26 23 26 25 27 26 24 26 29 28 27 26 26 27 29 26 24 25 24 26 26 26 25 24 24 22 21 19 21 25 26 25 23 23
33 34 34 34 33 31 32 33 33 34 34 32 32 33 30 26 25 27 26 28 26 23 26 30 29 28 29 31 29 29 29 25 26 26 27 30 28 26 25 25 22 21 21 22 25 25 24 24 25
36 36 36 35 33 32 29 33 36 34 35 33 34 32 32 28 27 27 28 30 27 23 27 31 30 30 30 31 31 29 28 26 25 26 27 24 26 26 26 24 24 25 27 22 23 27 28 28 27
40 40 39 38 36 37 33 32 35 34 34 36 37 36 34 29 30 30 31 32 28 26 27 31 30 29 30 31 33 31 28 27 26 25 25 23 27 27 27 28 31 33 31 23 24 28 31 31 29
42 41 39 40 41 41 36 34 34 35 38 38 42 38 35 34 33 32 33 35 32 28 27 30 32 30 28 32 32 31 28 28 26 23 27 24 25 25 31 30 29 29 32 27 26 29 32 34 31
40 40 40 41 39 40 34 33 37 39 40 44 42 39 38 35 34 33 35 34 33 32 29 31 32 31 27 31 32 30 28 25 27 24 28 24 25 22 19 23 26 17 27 29 27 31 32 34 32
42 43 39 38 39 35 34 35 40 42 43 44 42 41 36 34 33 34 35 34 33 33 29 34 32 27 25 30 32 29 27 26 27 25 26 24 25 24 19 21 26 23 24 28 28 26 33 33 33
50 48 46 45 39 39 38 37 42 42 42 42 40 35 32 32 32 33 35 36 36 35 29 35 34 25 24 31 32 29 25 26 25 24 26 24 24 25 23 27 28 24 28 30 33 25 34 32 32
54 55 44 42 40 42 39 37 38 42 41 36 35 35 32 30 29 31 34 37 36 37 32 33 33 24 27 31 32 27 25 24 23 22 23 24 24 24 26 30 25 24 24 27 28 24 30 32 34
49 49 48 48 44 43 40 38 40 40 37 35 34 35 31 27 29 32 33 36 36 35 30 31 32 28 29 32 32 27 23 23 22 21 22 23 23 26 25 25 25 20 30 22 32 28 31 34 37
47 48 45 45 42 39 40 40 37 43 39 34 34 34 31 26 26 29 32 36 33 32 28 28 30 29 30 33 33 26 21 21 21 21 22 21 21 27 26 24 22 20 27 25 26 31 29 34 39
48 46 45 42 40 40 40 39 43 39 38 37 35 33 31 29 28 28 30 35 34 33 28 29 27 31 32 32 33 26 20 19 20 20 21 18 20 22 23 24 22 22 28 30 30 32 30 33 38
49 47 45 42 39 39 39 40 42 39 38 36 32 32 31 30 31 26 30 33 34 32 30 29 28 29 33 34 33 26 21 19 19 18 19 17 19 20 20 21 24 26 36 35 30 36 30 29 34
47 47 44 41 40 39 40 39 39 37 35 34 32 32 31 31 29 25 27 30 33 31 30 29 30 31 33 32 32 26 22 20 20 19 18 16 15 18 21 23 24 28 33 42 34 38 31 29 32
46 45 43 40 40 40 42 39 39 33 34 33 32 30 26 26 27 26 28 33 34 34 31 29 27 30 29 29 29 25 22 21 19 18 20 19 20 19 19 23 28 26 30 48 42 41 35 31 35
42 40 45 41 40 39 39 38 38 33 34 33 30 25 25 30 28 29 33 35 35 34 30 25 25 27 24 28 26 24 22 21 18 19 21 21 20 21 21 24 25 28 31 39 45 43 42 37 37
41 42 40 38 39 38 38 38 38 36 31 31 27 26 29 32 30 32 37 36 36 31 25 22 24 24 23 26 26 23 23 21 19 21 24 27 30 28 26 25 24 26 31 33 48 48 48 42 36
40 33 35 36 38 38 37 37 37 35 30 28 30 31 33 34 33 32 37 36 32 29 27 23 21 24 25 26 24 23 21 21 23 25 28 29 30 29 28 26 23 30 27 33 39 46 43 43 37
37 36 35 38 34 36 39 36 36 30 29 29 31 33 35 34 34 33 36 35 33 28 28 24 24 26 23 26 23 22 20 20 24 23 27 27 26 24 25 21 25 33 40 29 35 40 46 40 36
40 33 33 33 32 32 34 34 32 26 30 32 33 35 37 39 38 34 37 37 33 31 32 29 27 26 22 26 24 20 17 20 19 17 18 13 15 18 19 18 28 38 41 39 38 44 45 33 26
33 30 32 32 31 32 24 32 31 28 28 31 34 35 39 41 40 38 40 38 35 36 33 30 29 26 24 27 23 19 18 16 14 11 10 6 10 11 11 28 32 30 41 43 42 51 44 30 24
34 32 34 33 29 30 24 29 26 26 25 31 30 33 33 33 37 38 39 36 34 38 32 29 27 26 26 27 22 20 17 13 10 7 9 7 4 3 9 11 21 33 35 34 41 49 44 32 27
36 27 29 29 30 27 26 28 23 22 27 26 25 21 19 23 32 33 33 35 36 37 25 26 24 28 26 29 22 22 15 11 8 6 5 4 4 6 6 7 6 22 35 36 41 43 41 33 32
26 25 26 27 26 28 26 25 26 22 22 21 19 15 16 19 28 28 29 34 35 26 24 27 28 27 27 27 23 22 15 11 7 6 4 4 2 3 6 6 9 6 26 35 36 33 28 28 23
27 26 26 26 27 28 24 24 23 21 21 21 26 27 20 18 28 31 33 34 32 30 29 30 28 27 25 27 23 22 16 11 8 6 2 1 1 1 1 3 6 11 15 18 25 30 28 24 27
27 26 24 25 25 25 20 21 22 18 24 28 28 22 23 25 27 34 36 36 39 33 31 31 29 28 24 24 23 22 18 13 8 6 3 0 1 1 2 3 3 7 12 17 20 16 21 20 17
23 24 24 25 25 21 21 19 19 18 21 29 27 21 25 31 31 34 36 39 41 36 33 36 33 31 25 23 24 22 19 16 11 8 7 5 2 3 3 4 5 7 8 12 14 20 21 20 21
25 21 23 24 22 21 21 19 18 19 19 26 28 25 30 35 36 40 43 45 35 36 38 39 36 36 27 23 23 22 20 18 14 12 12 11 7 5 4 5 7 8 10 11 12 14 17 17 16

GFSSGP_500_spd_087.txt.gz
Wind_Speed
30 31 31 30 31 32 32 28 30 30 28 27 23 22 22 21 25 27 29 27 25 21 18 17 16 19 19 17 18 20 23 25 26 27 24 22 21 23 24 23 21 20 23 23 24 26 27 26 25
33 33 33 33 32 32 31 28 33 30 34 27 27 25 24 27 30 26 30 29 27 24 20 18 17 20 21 20 20 21 22 24 26 27 25 23 23 23 25 26 23 23 21 23 24 26 27 26 24
34 35 36 35 34 32 33 19 35 35 36 32 31 30 30 31 30 30 30 30 28 25 20 20 19 20 23 21 21 22 23 24 26 28 27 27 27 25 26 27 23 24 23 22 24 25 25 25 25
36 37 38 38 35 35 35 36 40 36 36 35 35 36 37 36 32 32 31 33 32 25 20 21 21 21 23 24 23 23 24 25 27 30 27 27 28 27 27 26 25 23 25 24 23 23 24 27 27
38 39 39 39 36 36 39 38 40 37 38 37 38 37 39 37 36 35 36 37 34 26 19 21 22 23 25 25 25 24 26 27 30 31 28 27 27 26 26 26 26 24 25 25 24 24 25 29 29
42 40 43 40 39 40 41 45 35 39 37 37 39 38 39 39 38 39 40 37 33 26 19 20 23 24 26 26 27 27 26 29 31 31 29 27 27 26 25 25 25 24 25 27 26 25 30 30 29
44 46 45 44 42 44 43 47 35 40 37 39 40 41 40 44 41 42 40 38 32 28 18 21 23 25 27 27 28 29 28 30 32 32 28 27 25 24 25 24 27 28 26 35 32 30 31 34 34
48 48 50 47 43 43 46 48 35 40 42 44 45 44 43 48 44 40 41 36 32 28 19 20 22 26 29 29 30 30 29 30 34 32 30 26 26 25 25 25 26 29 23 22 23 35 33 34 34
49 52 50 43 42 42 44 39 37 41 46 45 45 44 47 45 41 41 41 34 34 26 21 19 24 27 29 30 30 30 30 31 34 32 30 27 26 24 24 26 25 20 21 21 16 30 33 29 36
52 53 49 44 45 51 47 44 44 43 43 45 46 44 44 44 44 42 39 36 33 25 20 19 24 29 31 30 28 28 28 31 34 31 30 28 25 25 26 27 25 27 28 19 22 23 35 27 33
53 55 54 52 53 53 50 49 45 47 46 46 44 46 43 42 38 37 36 36 35 28 21 20 25 30 32 30 28 27 27 31 31 28 28 29 24 22 25 30 26 27 23 23 24 22 30 27 31
55 55 55 58 57 61 55 48 47 46 45 46 45 39 42 41 33 33 35 36 36 27 24 21 26 31 34 33 29 26 28 31 30 27 26 28 24 21 25 27 28 27 26 26 29 27 34 29 33
56 55 56 57 56 57 54 50 48 51 50 45 41 40 40 40 35 32 32 34 34 27 25 26 29 32 34 36 28 27 28 31 29 27 24 24 22 21 23 25 25 25 26 21 26 24 28 31 34
55 55 57 55 56 56 54 52 51 48 45 47 44 41 39 39 37 34 32 31 30 29 29 30 31 33 33 33 29 29 29 31 29 25 23 21 21 21 23 22 27 26 27 24 29 24 30 34 35
55 54 57 54 55 52 52 52 48 46 47 47 43 41 41 39 36 33 30 29 30 31 33 30 31 33 32 32 28 30 30 30 29 25 23 19 20 21 21 22 24 27 26 23 30 25 35 31 35
53 56 58 54 55 55 52 51 49 48 46 47 44 41 41 38 33 33 30 27 30 33 35 32 31 33 30 31 28 30 31 29 28 25 22 21 20 21 20 21 20 23 26 21 32 32 33 37 36
55 55 51 53 55 54 50 51 48 49 47 42 44 42 40 36 34 32 28 26 29 33 34 33 33 32 30 27 30 28 30 28 28 25 23 22 22 21 21 22 24 25 25 27 30 31 36 38 38
48 50 49 45 43 56 48 51 48 47 45 40 42 40 37 35 32 29 29 29 32 31 29 34 33 31 26 27 25 26 26 27 25 24 22 23 23 22 22 23 24 25 28 28 28 39 38 40 39
55 51 49 46 45 45 48 55 48 46 44 40 38 39 36 35 34 32 32 31 35 32 32 35 31 27 25 24 26 24 24 24 23 24 21 24 24 25 28 28 27 24 27 25 27 37 41 42 37
40 38 43 37 39 44 44 53 50 40 43 36 36 38 37 35 36 34 32 36 35 33 35 36 30 28 22 25 23 22 24 22 23 23 22 25 28 32 34 36 35 31 30 28 29 28 36 39 41
34 34 35 42 40 38 36 40 35 42 37 33 35 35 34 36 34 32 34 39 35 35 34 33 29 29 25 27 22 21 22 23 23 22 24 27 29 33 35 36 36 33 31 28 26 30 30 38 39
40 29 34 31 34 33 31 37 34 35 31 32 33 34 34 34 34 35 38 39 38 35 32 33 32 31 28 27 22 21 21 24 21 21 24 24 26 24 27 31 33 32 34 33 35 28 30 33 38
39 38 35 34 36 35 29 33 27 24 27 34 33 34 32 32 35 37 40 41 41 37 36 34 34 34 29 29 24 21 20 22 19 22 20 20 17 16 18 21 28 32 30 41 34 36 28 28 36
33 34 34 30 30 36 25 31 19 17 29 27 33 32 34 34 34 37 40 42 47 46 41 36 36 36 31 31 27 21 21 20 18 21 19 13 14 13 13 15 21 33 31 36 31 38 37 33 38
35 31 29 26 30 32 22 26 19 26 22 27 30 28 28 30 32 34 38 37 42 49 37 34 38 38 37 34 27 21 22 19 20 18 16 9 10 11 11 10 13 17 31 31 38 38 40 33 42
29 35 33 22 17 14 25 29 19 30 25 25 26 24 27 25 24 24 26 32 37 35 37 36 40 39 34 34 25 22 22 19 19 15 13 10 8 7 10 9 10 8 24 29 34 41 39 41 46
28 35 24 30 24 25 22 10 23 24 20 23 26 26 24 20 20 17 21 26 30 34 32 38 37 37 35 31 25 23 22 21 20 13 11 9 8 8 4 6 6 8 9 22 25 36 40 37 44
28 23 22 26 21 23 15 15 25 23 20 23 27 29 27 28 25 21 22 25 31 31 34 35 36 36 31 29 23 23 23 23 22 14 10 9 8 7 7 6 5 8 9 11 20 29 24 35 38
24 25 24 25 23 19 14 16 25 25 22 23 27 32 31 27 27 28 31 28 31 32 36 36 37 31 30 26 21 22 23 24 23 17 13 10 10 10 10 8 6 6 9 11 11 10 14 25 27
24 23 22 28 24 24 21 20 16 19 21 24 26 30 34 28 28 30 31 35 35 39 42 43 33 30 31 29 24 21 22 24 23 19 17 14 12 10 8 10 10 11 9 11 12 15 17 23 21

GFSSGP_500_spd_090.txt.gz
Wind_Speed
30 30 31 31 33 34 31 27 23 11 32 37 30 27 23 24 27 27 26 26 24 26 25 21 18 18 20 20 20 23 23 22 20 21 23 23 25 25 24 24 25 23 24 24 25 25 27 28 29
30 31 32 34 35 35 31 27 17 16 39 36 31 28 27 22 32 32 26 29 27 26 27 23 21 20 21 22 24 25 22 22 22 21 24 25 25 27 27 28 25 27 26 24 22 22 25 27 28
33 33 35 36 38 33 31 28 9 25 44 38 32 30 30 30 33 35 30 27 31 29 29 24 23 21 23 24 25 28 26 23 21 22 25 26 27 28 28 28 29 28 25 22 23 22 22 24 27
36 36 37 39 37 33 32 31 26 28 44 37 31 34 38 37 38 33 35 30 34 32 32 26 25 24 26 26 26 28 26 25 24 24 25 27 27 27 28 28 29 26 25 25 25 23 22 25 27
40 39 40 41 38 35 32 34 35 43 45 40 34 35 40 43 42 38 36 34 36 34 35 28 26 26 27 26 26 27 27 27 26 26 26 27 28 27 29 28 28 25 28 30 26 25 23 26 30
44 41 45 42 39 37 37 35 35 43 41 40 40 40 41 45 45 39 39 38 36 36 36 29 26 26 27 26 26 25 26 27 28 28 27 28 28 28 29 28 28 26 27 26 29 28 29 27 27
42 45 47 46 43 40 38 35 43 46 39 38 42 45 44 46 47 42 38 36 38 38 35 28 25 26 26 25 24 27 27 29 30 31 30 28 28 28 28 28 25 26 22 26 21 26 28 28 27
41 43 48 48 44 42 43 41 49 50 42 42 47 43 47 51 45 44 40 40 40 37 34 28 23 25 25 25 27 28 29 31 33 33 32 29 29 29 27 27 28 30 27 28 22 24 27 25 29
49 52 51 46 42 41 41 45 50 50 42 43 44 47 48 51 50 48 44 43 38 37 34 28 22 25 25 25 28 29 29 33 35 35 34 31 30 28 27 27 28 29 29 30 24 17 22 34 32
55 55 53 48 45 46 46 52 56 49 42 41 41 44 46 48 49 47 45 43 37 36 36 29 22 25 26 26 28 28 30 34 35 36 34 32 30 29 27 27 28 26 27 25 22 17 18 22 31
53 53 52 52 52 52 53 60 55 49 46 46 45 47 50 51 47 45 46 43 36 35 33 28 23 25 28 29 30 31 33 32 33 33 30 31 29 29 26 27 27 26 27 24 26 24 19 16 27
52 54 55 54 53 54 58 61 59 54 50 50 50 49 47 49 50 49 48 39 36 31 30 29 24 25 29 29 31 34 34 31 31 31 28 28 28 28 25 27 27 25 27 28 24 23 23 23 28
50 52 53 54 54 57 59 58 62 54 53 55 55 50 49 49 48 48 41 31 34 34 32 28 24 27 29 29 33 37 35 29 29 28 27 27 26 27 24 25 25 24 24 25 27 26 25 26 28
46 51 55 57 57 59 58 56 60 55 55 53 54 52 53 50 49 48 43 34 34 34 33 27 27 27 28 31 36 38 35 30 30 30 26 25 26 26 23 23 22 21 23 24 28 29 27 28 30
46 50 51 52 56 56 56 58 61 58 55 53 56 55 53 51 48 48 40 36 34 34 34 30 25 26 30 33 36 36 34 30 31 29 26 24 27 25 21 19 21 22 24 25 27 28 27 29 31
44 46 50 48 54 56 59 57 58 56 51 52 55 55 53 51 48 45 40 36 33 35 35 32 25 29 32 33 36 35 31 29 31 27 25 23 27 25 22 18 20 21 22 23 29 28 32 26 32
45 45 48 46 52 55 56 59 59 53 52 55 55 52 51 52 51 43 40 36 36 35 35 32 29 29 33 35 37 33 25 30 27 26 25 23 27 27 23 20 21 20 20 21 27 24 29 32 39
40 43 45 49 45 32 45 54 54 55 53 55 46 46 44 46 47 46 41 38 37 36 36 35 30 29 35 36 35 32 25 28 23 25 24 23 25 26 22 21 20 21 23 24 28 22 28 39 41
38 38 43 47 47 41 45 48 47 41 50 58 41 40 44 45 44 42 42 40 37 38 40 36 25 29 32 32 28 27 27 24 23 25 22 22 23 25 23 23 24 24 24 24 26 23 24 35 41
36 41 41 43 43 48 48 50 48 42 41 45 42 41 43 43 43 43 42 39 38 39 43 30 26 31 29 30 25 29 26 20 22 24 20 21 24 26 26 28 31 32 32 29 24 26 25 38 39
36 40 37 39 39 42 44 45 36 30 29 37 46 39 41 42 43 43 42 42 40 43 43 32 28 30 29 26 30 29 23 20 20 21 18 22 24 28 31 32 35 37 36 35 33 28 25 40 38
39 39 40 39 39 40 31 43 27 20 14 11 23 38 37 42 44 42 41 42 39 41 40 35 32 32 30 26 33 26 23 18 20 19 19 22 25 28 28 28 31 35 35 36 36 31 30 33 38
40 39 36 39 41 37 30 37 34 16 16 17 35 40 41 37 38 38 40 40 39 40 41 37 36 32 31 28 33 27 22 19 18 18 19 21 24 25 24 23 22 22 28 32 35 32 38 35 32
38 38 37 37 35 40 34 32 29 17 21 35 35 26 32 34 36 37 39 39 40 42 42 39 41 33 32 30 33 30 22 18 16 18 19 21 22 23 21 19 17 19 15 28 36 35 37 38 32
39 35 33 32 27 23 13 20 18 23 29 32 22 26 29 30 32 33 36 38 39 40 41 45 42 37 33 31 32 30 24 19 17 19 18 20 20 19 16 16 16 16 18 24 35 39 37 40 34
31 30 28 26 23 22 24 20 17 30 30 28 31 29 27 27 30 31 33 35 37 34 40 44 30 40 35 33 32 31 24 20 18 18 17 20 18 18 14 14 16 15 18 18 36 32 33 40 37
23 27 20 25 25 29 22 17 25 11 29 33 35 28 30 25 26 27 27 26 26 33 41 23 25 37 36 36 37 32 21 22 18 20 16 21 18 17 15 10 10 12 11 10 26 31 36 40 30
19 22 27 26 27 26 23 24 18 21 22 24 23 27 28 26 23 24 22 20 23 25 20 23 33 35 36 37 35 32 25 20 19 22 18 21 18 16 12 11 10 10 9 6 17 26 33 37 37
19 22 20 23 20 20 14 21 26 21 29 34 27 24 25 24 22 26 23 21 20 21 24 27 34 36 40 41 34 30 21 21 21 22 20 21 18 16 13 11 12 11 9 9 6 14 25 27 29
18 21 21 24 22 23 22 22 19 4 9 17 23 22 23 23 23 26 25 26 27 25 27 30 32 32 39 37 32 27 22 20 22 21 22 21 19 17 15 15 14 12 9 8 8 7 8 18 23

GFSSGP_500_spd_093.txt.gz
Wind_Speed
29 32 34 35 38 36 33 24 23 14 20 28 30 35 39 33 29 32 31 24 23 20 20 20 20 18 21 23 25 25 24 25 27 27 27 24 24 24 24 24 24 25 26 28 26 25 22 23 27
31 33 35 37 36 34 28 24 21 17 28 31 33 34 38 40 33 35 31 26 23 22 22 22 22 20 23 25 26 25 24 24 27 28 27 26 24 24 24 24 25 25 27 28 27 26 23 21 25
37 37 37 38 36 31 28 26 20 24 31 32 35 40 39 37 38 36 32 31 26 27 26 25 24 21 24 28 27 25 26 25 26 27 27 27 26 25 24 25 26 24 25 25 27 30 24 23 24
39 40 40 43 39 28 30 27 21 24 33 37 41 40 38 37 38 40 36 31 30 32 30 29 27 23 24 29 28 27 27 26 26 28 29 27 27 26 26 26 26 24 23 25 29 31 26 24 25
41 41 43 43 38 35 34 30 23 25 37 42 41 40 37 35 37 43 40 35 33 35 35 32 30 25 25 30 29 27 26 26 26 29 29 30 29 28 27 27 26 23 20 23 28 31 31 28 28
42 42 45 43 40 40 36 29 29 28 35 41 43 41 42 45 45 43 40 36 37 37 37 35 32 25 26 31 29 27 23 25 27 30 30 30 30 29 30 28 26 23 20 24 25 31 26 27 28
42 44 45 46 44 42 35 33 34 36 37 43 43 41 42 43 46 45 40 36 35 37 38 36 32 26 25 29 29 26 25 26 28 29 29 30 31 31 30 28 25 25 24 26 26 29 27 21 27
45 45 45 46 45 39 33 35 36 38 43 46 46 44 45 46 47 47 43 40 36 36 38 36 33 26 25 27 28 26 26 26 28 29 29 31 31 31 29 27 28 28 27 28 26 25 22 18 24
45 47 46 45 44 40 40 40 37 42 45 47 44 46 47 45 47 47 47 45 40 35 38 39 36 28 25 28 29 28 28 26 27 30 32 33 34 31 29 28 28 29 28 27 28 26 18 21 26
45 44 45 46 50 50 48 50 50 48 52 54 43 46 46 47 45 43 42 42 41 37 37 37 36 31 26 29 30 29 29 28 28 31 32 34 33 34 30 28 28 29 29 27 26 25 25 20 25
43 46 41 46 51 56 54 50 52 56 55 57 48 41 39 47 46 43 42 43 43 39 36 35 36 31 27 29 31 31 31 29 29 31 33 33 31 32 28 27 28 29 29 28 25 26 27 21 20
48 45 44 46 50 54 55 54 55 58 57 56 52 47 46 48 50 49 47 44 44 43 36 34 36 30 29 31 33 30 30 31 30 31 33 31 29 30 27 26 27 29 29 26 25 27 24 24 21
47 43 46 47 49 50 53 55 56 58 57 56 49 52 53 50 51 51 49 50 44 41 37 38 37 35 33 32 32 30 32 31 33 33 33 31 29 28 23 25 28 28 28 23 24 31 22 24 24
43 46 49 52 50 51 50 48 54 51 53 54 54 52 54 55 53 52 53 52 45 40 37 37 31 35 34 35 30 32 31 32 35 36 33 28 28 27 22 25 27 26 26 21 24 28 28 28 26
45 47 45 48 45 46 52 53 49 47 53 58 57 55 57 55 55 54 53 51 46 39 37 36 35 32 35 34 32 33 31 34 36 36 32 28 26 25 23 22 27 24 20 21 24 26 26 30 27
42 44 44 42 43 45 49 52 47 50 55 55 56 59 59 61 58 55 55 50 46 39 38 41 37 33 34 33 33 33 32 35 35 34 30 29 25 24 22 21 24 25 18 19 21 27 27 27 27
39 39 41 39 43 45 48 53 44 53 56 58 58 63 63 63 58 54 54 51 45 39 40 40 37 36 34 36 35 34 34 33 31 29 28 27 25 24 21 21 24 25 19 18 19 23 26 25 27
35 40 41 38 42 48 51 54 47 50 54 57 62 59 52 53 56 52 54 50 43 40 41 42 40 37 34 35 36 35 34 30 30 26 28 26 26 22 22 21 24 25 20 18 19 21 24 31 26
37 39 39 40 40 45 46 49 45 45 46 50 45 54 47 51 48 49 46 46 46 42 41 42 39 38 36 35 37 34 27 29 29 24 26 25 26 23 22 21 24 24 23 20 20 20 25 26 23
34 37 37 38 40 43 40 42 41 43 46 46 36 42 46 48 42 39 41 39 40 39 39 45 41 40 35 35 38 35 29 30 26 24 23 24 24 24 23 23 25 26 28 28 27 26 25 22 27
31 36 38 40 42 42 43 42 39 38 40 42 41 43 37 40 32 49 43 33 36 38 38 43 43 40 36 36 39 36 36 28 24 24 21 22 21 22 23 24 28 31 33 34 35 33 30 29 25
30 33 36 40 43 43 41 46 36 34 30 25 21 19 26 34 40 37 43 36 39 41 41 39 42 37 34 37 36 39 34 26 24 23 20 20 20 22 24 27 29 28 30 34 35 35 33 31 25
39 40 39 40 41 43 40 41 33 22 19 25 26 31 26 27 36 32 35 37 42 42 41 39 41 39 36 39 38 40 33 26 24 22 19 19 21 23 24 25 25 25 27 30 31 34 33 34 26
36 39 42 41 39 42 26 30 28 19 17 31 32 29 28 20 21 32 31 35 35 36 35 35 39 40 38 39 38 40 32 29 26 21 18 20 21 22 23 24 25 25 21 20 19 29 32 34 32
32 35 37 39 39 38 24 25 9 13 20 27 28 29 22 17 14 29 30 32 34 33 34 37 38 42 40 39 41 38 32 32 27 23 18 20 21 20 21 21 22 21 23 20 21 20 30 30 33
31 31 31 33 29 27 23 24 18 19 17 12 22 32 24 23 20 25 26 30 32 33 33 34 41 43 37 40 42 37 34 32 28 24 18 21 20 18 21 21 22 21 23 21 23 25 22 31 34
29 32 19 33 27 26 22 20 24 26 18 13 25 26 22 24 20 23 29 29 30 31 34 42 42 43 36 36 42 36 35 31 28 23 19 21 18 17 22 20 21 20 19 19 25 22 35 38 36
32 26 25 29 27 31 18 17 28 28 24 11 23 25 30 24 25 24 26 28 28 31 31 29 33 39 32 33 39 40 36 33 28 25 20 21 18 17 20 19 19 18 16 17 17 17 26 32 34
28 36 25 25 29 29 17 13 21 21 17 14 24 23 22 24 23 22 25 30 27 26 24 23 26 27 26 29 40 42 37 31 29 23 21 20 20 17 18 18 18 18 15 13 14 8 23 25 32
40 32 24 25 21 23 21 21 20 11 13 1 9 14 25 19 19 22 27 29 26 24 21 22 27 33 29 30 39 39 34 33 27 23 21 20 22 18 17 19 17 17 16 12 12 10 14 21 29

GFSSGP_500_spd_099.txt.gz
Wind_Speed
29 29 29 30 31 28 17 14 20 21 28 31 33 33 33 35 34 28 27 29 31 35 32 27 25 20 20 21 22 23 22 22 22 22 21 20 20 22 25 26 26 26 27 26 24 23 23 23 22
29 32 33 34 34 30 18 14 18 26 28 29 32 31 35 37 35 33 31 33 37 40 39 33 29 26 23 23 25 26 25 25 24 24 23 22 22 23 26 27 26 26 27 27 25 22 20 22 21
29 30 33 36 34 28 23 19 24 28 27 29 32 34 35 35 34 35 36 36 39 40 39 37 32 30 29 26 26 27 28 28 27 26 25 23 23 24 25 26 27 26 26 27 26 23 20 22 21
30 30 30 33 27 27 26 25 25 27 30 30 34 36 36 34 34 36 37 39 38 37 39 38 35 32 33 31 26 29 30 30 30 29 27 26 25 24 25 25 26 28 28 29 27 25 22 21 22
33 32 36 31 25 26 26 27 31 30 33 37 38 37 38 35 35 34 36 36 33 32 33 35 35 37 37 35 31 30 32 31 32 31 29 27 26 25 25 25 26 28 31 31 29 25 22 22 22
33 32 37 32 30 30 28 30 35 33 38 38 41 41 39 38 37 36 37 35 31 32 33 35 34 33 34 34 32 29 32 33 33 32 31 29 28 26 25 24 26 30 30 30 29 23 20 25 22
30 33 35 32 31 30 30 35 34 38 38 37 41 43 42 43 42 39 39 38 33 30 30 30 31 30 32 31 30 28 31 33 34 34 33 30 30 29 26 24 28 30 29 30 28 23 20 24 25
36 36 33 29 27 30 31 36 37 39 38 38 42 45 44 46 47 45 44 40 38 36 33 32 30 30 30 31 31 30 31 33 35 35 34 33 31 29 26 26 29 29 29 28 26 26 25 27 24
41 40 39 33 31 32 32 37 41 42 40 41 42 43 45 47 49 49 49 45 42 40 36 32 32 32 32 30 29 30 32 32 34 36 36 34 32 29 28 29 30 29 30 27 27 27 26 29 28
45 47 43 40 37 37 36 38 41 42 42 44 44 44 45 46 49 51 50 44 45 41 38 37 33 28 30 29 28 30 31 32 34 36 38 35 33 30 30 30 29 28 30 27 28 28 27 29 31
47 48 46 44 42 42 42 42 41 44 44 42 45 47 48 49 51 53 53 49 45 43 34 34 33 29 32 32 31 31 31 31 35 37 37 36 32 31 31 32 29 28 29 27 29 31 28 30 30
49 44 44 45 45 46 45 41 43 43 42 45 48 51 51 52 53 53 52 49 49 46 43 31 31 31 34 36 35 36 36 34 34 36 37 37 31 32 32 32 30 28 29 27 28 30 32 29 27
50 48 46 46 47 45 43 43 40 42 44 43 45 49 52 53 52 52 51 50 50 52 48 42 35 34 37 38 40 40 36 34 35 35 37 36 32 33 32 33 31 28 28 27 29 26 28 33 30
53 54 53 51 51 47 45 42 45 43 40 43 44 46 47 50 51 51 52 52 53 53 55 52 43 38 37 42 44 39 38 40 39 36 38 35 32 34 33 32 30 30 26 28 29 28 31 35 31
55 55 56 52 48 52 50 53 51 46 45 45 49 49 48 51 54 55 57 53 54 57 57 58 48 41 39 43 46 41 37 40 40 37 39 35 34 35 33 31 29 29 26 28 29 29 32 31 31
55 56 52 47 47 47 51 51 49 45 47 49 47 46 48 49 51 53 55 57 56 57 57 56 55 44 43 44 45 42 38 38 39 40 38 37 35 34 32 30 29 27 27 27 28 30 31 23 27
50 50 50 49 44 48 49 48 48 43 43 46 45 44 44 44 46 50 53 57 57 58 58 57 56 48 44 46 44 44 39 39 39 41 40 37 35 33 31 28 29 26 26 26 27 28 27 18 24
46 49 50 46 41 42 43 42 43 40 42 43 43 42 41 41 42 44 45 48 49 56 58 56 56 53 46 47 47 46 40 39 40 41 40 33 35 32 30 26 28 25 26 25 26 25 24 14 19
45 43 41 37 39 41 41 42 41 37 40 40 39 40 42 44 45 46 48 49 51 51 51 54 56 52 51 49 47 44 42 39 41 39 39 34 36 30 29 27 27 25 25 25 25 24 21 20 20
39 35 34 35 37 43 42 40 37 37 36 38 41 43 47 49 49 52 50 52 56 54 51 53 53 52 49 49 47 44 39 39 41 40 43 38 35 30 28 29 26 25 26 26 26 25 24 23 23
34 37 35 38 38 41 42 42 39 34 36 42 46 49 51 50 48 48 48 48 56 54 55 55 55 53 51 48 48 43 43 42 43 39 40 37 31 32 27 29 26 26 27 27 28 27 27 28 28
36 36 38 38 41 41 41 46 36 36 41 47 51 53 49 48 48 46 46 53 56 49 53 52 51 52 51 49 47 44 42 39 35 37 37 39 35 31 25 29 27 26 29 30 31 31 31 33 33
35 40 39 41 42 42 34 51 37 39 44 49 44 45 44 46 46 46 48 46 47 44 51 50 51 46 45 41 42 44 42 40 38 39 40 40 35 27 27 30 29 28 30 32 33 33 32 31 31
36 38 39 39 39 41 30 44 42 38 40 41 35 35 38 40 40 37 32 33 32 37 42 50 43 44 41 42 38 44 42 41 40 40 42 40 32 27 29 32 31 30 29 34 33 30 29 30 30
37 38 38 39 41 41 34 44 44 37 37 36 36 35 35 35 38 33 29 30 28 35 33 38 46 36 34 36 34 42 42 45 45 43 45 36 32 30 31 35 32 32 29 35 31 28 26 26 27
35 37 38 43 43 39 36 42 35 35 33 32 33 34 36 34 38 38 23 28 23 28 32 33 44 44 35 34 39 43 47 46 43 46 39 35 35 35 34 34 33 32 29 34 30 26 25 25 25
40 40 39 43 43 43 41 35 34 31 32 27 26 27 35 36 30 30 26 29 20 24 26 29 33 40 42 43 43 42 43 46 44 41 38 35 37 38 35 34 33 31 29 34 27 27 24 23 24
42 45 41 42 40 40 36 33 34 30 27 27 25 22 23 27 28 25 27 25 20 22 31 28 35 34 37 39 40 39 43 45 42 39 41 39 41 40 36 35 32 31 28 32 27 26 26 25 27
44 48 49 49 38 37 35 33 29 24 24 29 26 12 16 19 20 19 23 23 22 26 21 26 29 33 33 36 39 37 42 47 43 42 43 42 43 38 36 35 32 30 28 28 24 25 26 26 23
44 42 44 52 49 38 37 33 23 21 19 16 17 11 14 14 19 19 20 23 22 23 27 25 28 28 32 33 33 30 34 45 40 42 44 44 41 38 36 34 30 31 30 26 23 22 22 21 17

GFSSGP_500_spd_105.txt.gz
Wind_Speed
20 19 19 18 19 12 9 13 20 23 24 23 26 27 25 27 26 24 25 24 24 26 27 29 27 27 24 20 20 19 20 18 16 17 16 15 16 15 15 16 17 19 19 20 20 19 18 17 16
19 19 20 20 15 6 9 17 24 25 24 24 25 24 26 27 27 25 26 26 27 28 28 29 26 25 23 21 23 22 23 21 21 19 18 18 18 17 17 17 18 19 20 21 21 20 21 20 19
21 22 24 23 14 11 11 17 22 26 25 25 25 25 25 25 27 27 28 30 29 30 30 28 27 25 26 24 26 26 26 25 24 23 22 22 21 19 19 18 18 20 21 21 21 22 23 23 21
25 26 28 24 15 13 19 20 23 25 27 27 26 29 26 28 28 29 30 30 30 31 31 28 28 28 29 30 27 27 27 27 28 28 26 25 24 22 22 20 20 21 23 22 23 23 24 23 21
29 30 32 24 13 14 22 25 26 25 28 27 25 25 29 29 28 28 29 28 28 31 33 32 31 32 31 31 27 25 27 27 27 28 28 27 26 25 24 23 23 23 24 24 24 24 24 22 21
32 33 35 27 17 13 18 26 29 30 27 29 27 25 28 28 28 29 29 29 31 32 35 36 35 36 35 32 32 31 28 27 26 27 27 25 24 25 24 24 25 26 25 26 24 26 26 24 22
32 34 36 29 21 17 23 26 29 31 29 32 30 31 29 31 31 32 31 32 33 34 34 33 35 36 35 35 35 30 26 26 26 27 28 26 25 24 26 26 27 27 27 27 25 26 26 24 22
34 37 36 28 25 22 28 30 30 33 32 34 34 35 36 34 34 35 34 33 34 35 35 35 37 37 36 35 34 31 30 27 28 29 29 29 29 28 29 28 28 28 28 27 27 27 27 24 24
36 40 37 31 31 31 31 33 34 35 36 35 34 36 38 37 37 37 36 37 37 38 36 35 32 31 30 27 29 29 31 30 29 30 30 30 30 29 29 28 28 29 28 27 28 28 28 25 25
40 41 40 38 36 37 37 38 35 36 36 35 35 36 39 37 38 40 40 40 39 39 40 39 36 34 33 31 28 30 30 32 31 30 30 29 29 29 28 27 29 30 29 28 27 29 30 27 26
43 42 41 43 42 42 41 38 42 39 36 33 34 35 40 40 39 41 43 43 43 43 42 42 42 39 35 33 32 29 32 31 31 30 30 30 29 30 30 29 30 30 30 28 28 28 28 27 26
46 44 43 44 45 45 45 46 43 43 40 35 36 36 37 42 40 41 43 45 46 47 47 47 46 45 40 35 34 32 30 34 31 31 30 30 30 33 34 29 28 30 30 27 26 28 27 27 26
51 51 49 48 47 46 48 49 49 47 43 44 41 41 41 42 45 45 45 47 47 49 50 52 50 50 47 42 36 35 35 33 35 33 32 32 30 34 38 31 29 29 30 27 24 27 27 27 25
51 53 54 53 50 51 51 52 54 47 45 47 48 44 42 43 45 48 49 47 48 50 51 54 53 50 33 44 38 36 40 37 36 36 36 35 32 33 37 36 33 31 29 26 24 26 27 26 24
46 48 49 51 52 54 54 55 54 53 51 51 50 47 45 44 46 47 50 52 52 52 54 55 55 54 55 56 47 40 41 43 40 40 40 38 36 36 36 37 39 33 29 25 26 25 26 25 23
47 49 49 50 51 52 53 53 52 52 51 49 47 47 47 45 45 47 49 52 53 54 56 57 57 56 55 52 53 44 44 45 44 44 42 41 37 38 38 35 40 36 30 26 25 24 25 24 21
48 47 48 50 51 49 49 50 49 48 49 48 47 45 45 46 49 49 50 53 56 58 58 58 58 57 56 56 55 54 49 47 46 47 42 42 39 38 40 38 40 37 31 26 23 23 24 21 24
48 48 46 46 43 45 46 45 47 49 48 45 44 46 47 48 50 52 54 54 56 58 59 61 62 59 58 58 58 57 54 49 47 46 44 43 41 40 42 40 40 38 32 27 21 21 23 21 24
48 46 44 42 44 46 44 44 44 46 47 45 44 46 47 46 46 47 48 49 50 52 54 57 60 62 62 60 60 61 60 49 46 43 43 45 44 43 43 43 39 40 34 27 22 21 22 21 23
50 49 48 47 45 48 45 41 41 40 39 41 42 40 40 42 43 43 43 45 47 49 50 53 55 58 60 60 60 62 61 53 48 45 46 47 48 45 44 42 37 41 34 26 24 22 23 20 22
53 51 48 47 45 47 49 46 38 34 34 36 37 38 40 41 42 44 46 47 48 48 48 51 54 55 54 55 57 58 59 58 54 49 45 46 48 47 44 43 40 41 33 28 27 23 23 21 21
49 46 47 44 45 42 42 48 44 33 32 33 35 39 41 43 45 48 49 51 52 52 53 55 56 55 54 56 58 57 52 53 53 47 46 48 46 48 46 43 40 42 38 29 29 26 23 24 22
43 43 40 40 40 41 40 39 41 40 34 33 34 39 43 45 48 51 53 54 54 55 56 58 58 59 57 57 59 59 55 52 55 49 46 50 50 50 46 44 44 44 44 30 31 27 25 25 23
38 37 36 35 36 41 38 36 33 37 39 36 36 38 42 45 48 50 51 51 51 54 56 57 59 60 61 60 59 60 58 53 56 50 47 48 49 50 45 47 48 47 41 31 32 29 27 27 24
31 30 33 36 36 38 38 36 27 36 36 38 39 41 44 46 47 48 49 51 52 54 54 50 53 56 59 57 56 59 56 51 54 51 47 47 50 47 41 47 43 45 49 36 34 31 28 28 26
30 32 35 37 37 36 36 34 33 36 36 37 39 41 45 46 49 49 49 48 43 42 38 39 42 46 47 49 51 53 51 50 52 49 48 48 48 47 47 45 47 43 47 38 35 34 29 28 28
31 31 31 32 34 37 37 36 36 36 38 39 41 43 43 46 51 52 47 41 39 44 39 37 34 35 39 38 43 44 44 50 50 46 51 44 47 43 50 49 52 51 48 38 37 37 31 28 27
29 29 31 34 37 40 38 40 39 37 39 40 42 42 39 43 48 45 42 41 39 29 28 27 30 28 31 31 35 43 46 49 49 50 45 49 51 55 55 50 51 49 44 37 39 38 32 29 29
31 34 35 37 39 40 40 40 40 43 44 44 44 44 38 37 41 40 42 31 23 20 22 22 21 22 23 32 32 40 48 56 54 49 49 44 48 53 46 49 53 49 42 41 40 40 34 30 31
33 35 37 39 39 41 43 42 47 47 45 45 43 41 34 30 32 30 27 24 25 21 19 20 18 19 24 29 29 40 42 38 36 44 54 48 46 45 46 51 52 48 47 43 42 40 34 33 32

GFSSGP_500_spd_108.txt.gz
Wind_Speed
22 21 20 17 12 9 13 19 26 30 29 26 25 24 22 23 23 25 23 24 23 23 24 24 24 24 20 18 18 22 24 23 20 18 17 17 17 16 16 15 14 13 13 14 15 15 15 17 17
22 21 19 15 9 7 14 22 29 32 30 25 24 23 22 26 24 22 24 23 22 24 26 27 27 25 23 19 19 20 21 23 24 21 20 18 19 19 19 18 16 16 15 16 16 16 16 19 20
23 23 22 18 11 13 18 22 27 31 31 27 27 26 25 26 25 23 25 23 24 25 26 28 28 27 24 20 21 23 22 23 25 25 22 21 20 21 21 20 19 19 17 17 17 17 19 20 22
25 25 26 21 12 14 22 25 27 30 31 28 27 28 28 26 27 25 26 24 24 28 28 29 26 26 26 24 24 25 25 23 26 28 27 25 23 22 21 21 20 21 20 18 19 19 20 22 22
27 27 30 21 13 16 20 24 28 31 31 29 26 25 26 26 26 27 28 27 26 29 28 28 27 28 28 28 28 29 27 26 26 28 28 27 24 22 20 20 22 22 22 22 21 21 22 22 23
31 30 33 24 16 19 22 25 26 27 30 32 28 26 28 26 26 27 30 28 29 30 30 29 28 29 29 29 29 29 29 29 28 28 28 26 23 21 20 19 21 23 23 24 23 22 23 23 24
32 33 34 25 17 18 25 30 29 27 26 29 30 29 31 31 30 29 31 32 32 31 31 30 30 30 30 31 30 30 31 30 29 29 27 26 24 24 23 23 23 25 24 25 25 24 25 24 24
33 37 37 28 23 21 26 31 32 31 28 27 28 30 30 32 32 33 32 33 34 34 33 33 32 32 33 33 32 33 33 34 33 31 31 30 28 26 25 26 26 26 25 25 25 25 26 25 24
37 41 40 32 31 32 29 30 32 32 32 31 32 34 34 35 34 32 33 35 36 36 35 37 37 36 37 36 31 29 27 29 33 32 32 31 30 29 27 28 26 25 24 25 25 26 25 23 25
37 41 40 38 37 35 36 36 35 34 35 33 33 35 37 37 36 37 34 35 38 37 38 38 39 38 37 36 32 30 29 28 32 34 33 33 33 30 28 28 25 24 26 28 26 25 25 23 25
40 39 39 38 39 40 39 37 40 38 38 36 37 39 40 37 38 38 39 38 38 39 39 41 42 42 40 39 37 34 33 30 31 33 34 34 33 32 30 28 26 26 28 30 27 26 24 21 22
40 42 43 44 44 45 43 42 41 42 42 42 41 40 39 39 37 38 39 41 42 42 43 44 44 44 45 42 37 35 36 35 31 32 31 33 33 32 33 30 27 26 27 29 27 27 25 19 19
36 39 43 46 47 47 47 45 45 45 43 46 44 43 41 42 42 42 40 42 45 47 47 46 49 46 45 45 42 38 40 39 38 34 33 28 32 32 32 34 30 29 28 29 29 28 24 21 20
43 42 42 43 44 48 50 50 50 45 48 47 46 47 43 43 43 42 44 42 45 49 50 51 50 50 50 50 46 42 43 39 41 38 36 36 34 34 33 34 33 32 32 30 31 30 25 23 21
44 44 46 47 46 47 49 49 49 49 48 48 47 47 45 44 43 42 45 48 48 48 51 52 53 54 53 53 50 46 40 46 36 40 40 40 40 37 37 35 34 34 36 33 30 31 27 24 22
48 46 44 47 47 51 51 48 50 46 46 44 44 44 43 44 44 46 46 47 50 51 51 52 54 54 55 56 54 52 50 49 49 48 45 45 43 41 40 37 36 36 38 35 30 29 29 24 22
53 50 50 49 48 46 47 47 46 45 44 43 41 42 43 44 46 45 45 47 49 52 54 55 55 56 57 57 58 56 55 54 51 51 48 46 47 43 42 40 39 38 38 36 32 29 28 24 23
52 57 52 52 50 47 49 48 48 45 44 41 42 42 44 43 44 45 47 47 49 51 54 57 59 60 58 58 59 59 57 56 55 49 49 49 48 47 44 43 42 40 37 37 34 30 28 25 24
61 59 56 54 50 51 49 49 47 45 43 42 42 43 42 44 45 46 47 48 49 50 51 53 56 57 59 60 60 59 58 56 56 56 49 49 51 52 47 42 46 41 39 37 37 31 30 27 25
61 60 57 56 53 52 50 48 48 46 45 44 42 43 42 42 43 43 44 45 44 44 45 46 47 50 53 56 57 58 58 58 57 56 56 50 52 54 52 44 47 43 41 38 37 31 31 29 27
56 57 56 55 54 53 53 53 50 47 45 43 41 42 42 41 41 41 42 42 42 42 43 44 46 48 49 51 54 57 57 57 56 57 56 52 48 50 52 51 47 45 42 40 38 34 32 30 27
52 52 51 51 50 48 52 50 54 46 40 37 38 40 40 42 42 43 43 43 44 45 45 46 48 50 52 54 55 55 57 56 54 56 53 50 49 47 52 52 48 46 44 43 40 38 33 32 27
48 50 49 48 47 47 45 47 43 47 38 35 36 38 41 43 44 44 45 45 47 47 49 50 52 53 55 58 60 59 57 56 56 57 54 49 49 48 53 52 50 47 46 44 45 42 37 34 29
45 43 43 43 44 46 43 41 36 43 43 38 36 35 37 40 42 44 46 49 49 49 50 50 51 52 54 58 61 62 61 59 59 58 54 51 49 46 48 51 51 46 46 46 45 47 42 37 30
39 36 34 37 41 41 41 38 33 41 39 37 34 32 35 38 40 42 44 46 48 49 49 50 53 54 58 60 62 63 59 58 60 59 56 51 51 48 45 50 52 48 49 44 46 48 45 40 33
34 32 27 23 23 24 39 38 40 38 35 35 35 37 37 38 39 41 44 47 48 49 51 53 55 58 53 55 58 59 57 52 53 58 56 51 53 49 47 53 50 46 49 47 46 50 51 38 33
39 32 34 32 35 38 36 33 33 33 33 33 36 37 38 39 42 44 45 47 48 51 51 51 48 47 42 43 41 41 42 44 46 48 49 49 51 48 46 51 52 51 46 47 49 53 55 45 33
33 30 28 32 32 30 28 30 32 32 32 34 37 38 40 42 44 46 48 48 50 51 46 43 43 37 37 39 40 37 37 39 43 46 49 48 49 49 48 47 52 55 53 47 50 50 45 32 34
25 26 27 26 28 32 33 30 35 34 36 38 39 42 45 47 47 48 48 50 48 42 39 39 34 32 32 31 29 29 34 35 44 43 46 50 50 50 46 48 52 54 49 49 45 46 42 34 34
21 23 26 31 32 32 35 35 38 38 39 42 45 47 48 49 48 47 48 42 38 35 34 27 27 14 23 23 18 21 29 39 35 40 43 51 52 52 47 51 50 51 48 49 48 44 38 38 40

GFSSGP_500_spd_111.txt.gz
Wind_Speed
23 22 20 16 16 13 13 17 27 32 33 28 28 26 26 24 26 26 30 22 24 24 24 23 22 23 24 20 17 20 20 24 24 25 23 22 19 18 17 16 15 16 17 15 12 11 12 13 15
24 23 21 16 12 9 6 20 25 34 29 30 29 26 28 31 26 24 29 25 23 23 23 23 24 25 25 22 18 20 22 22 23 24 24 22 21 20 20 19 18 18 19 18 15 13 13 14 16
26 25 24 18 12 13 12 33 32 31 32 30 30 27 32 32 24 25 27 26 24 24 25 25 25 25 26 24 21 21 23 21 20 20 23 25 23 22 22 21 21 21 20 20 18 16 16 17 17
27 27 27 23 16 18 23 35 29 32 32 31 29 28 31 29 29 27 29 27 26 26 26 26 26 27 27 24 21 22 25 23 20 20 21 23 25 25 23 23 23 23 22 21 20 20 19 19 19
29 29 29 25 20 21 27 30 27 31 34 34 31 28 29 27 29 29 31 30 28 29 27 27 27 28 29 28 26 24 24 24 23 23 23 23 23 23 23 21 20 21 22 22 21 21 21 21 21
30 31 32 27 20 21 30 30 30 31 33 33 30 30 31 31 26 29 32 32 30 30 30 28 29 31 30 30 30 28 27 25 25 24 25 24 23 23 23 21 20 19 21 22 23 23 23 23 22
30 35 33 32 21 23 28 30 32 34 34 35 26 26 28 30 23 29 31 32 32 33 33 32 31 30 30 30 31 31 29 28 28 28 27 27 25 25 24 24 23 22 22 23 24 23 23 24 23
29 35 36 32 25 26 33 30 33 33 35 37 31 26 28 33 22 28 31 34 34 34 35 35 33 32 32 33 33 32 30 29 31 34 33 31 30 29 27 27 26 26 26 26 24 22 22 23 24
29 33 34 31 34 31 36 34 36 34 34 37 35 32 33 32 30 30 32 34 36 36 36 36 34 35 36 36 35 34 33 30 30 32 34 34 32 32 31 27 26 26 26 25 23 21 21 23 24
32 34 32 35 35 34 36 38 36 40 37 39 37 37 38 37 36 33 34 37 37 38 38 37 37 37 38 37 37 36 34 31 29 30 33 34 36 36 33 31 29 26 23 23 23 24 23 23 24
32 33 36 37 39 34 37 37 38 39 39 42 43 43 42 40 35 37 36 37 40 40 39 40 40 40 39 40 41 39 36 34 33 31 32 37 38 37 36 34 31 27 25 23 24 26 23 21 23
34 31 34 37 42 39 39 41 42 42 43 44 43 47 45 45 41 37 37 37 36 39 41 42 43 42 41 42 44 42 38 37 36 35 36 36 38 39 38 37 35 29 28 26 24 24 23 22 23
36 37 39 39 39 40 40 44 45 46 47 46 47 46 44 44 43 41 40 40 39 41 41 43 44 45 46 45 46 44 41 38 37 37 39 37 37 39 37 37 37 31 30 28 27 25 24 23 24
41 41 39 42 44 43 45 44 45 45 45 49 50 49 49 48 49 47 49 45 46 41 42 43 45 47 49 49 48 47 46 43 41 40 41 44 44 40 41 36 37 38 33 29 30 27 26 27 24
46 47 48 43 45 45 46 45 46 48 48 47 47 47 48 48 46 46 47 52 46 44 45 45 47 48 50 50 51 51 50 48 43 41 40 31 37 41 42 41 39 39 39 34 31 30 26 27 27
61 56 54 50 51 50 48 45 47 49 47 43 45 45 46 46 45 47 50 45 49 50 48 47 49 50 50 52 52 53 53 53 49 44 42 46 40 42 42 45 45 43 42 38 35 35 28 27 27
68 65 57 57 59 57 53 49 49 49 49 43 42 42 44 45 46 47 44 46 48 50 49 50 50 51 52 53 53 55 55 56 53 50 47 44 43 43 46 44 47 48 46 41 40 38 32 27 29
62 62 64 63 58 64 60 53 52 51 51 50 44 44 44 45 46 47 42 45 46 48 50 50 51 51 52 54 56 57 58 57 56 52 49 47 46 46 46 47 47 51 48 45 43 40 36 29 28
67 68 67 67 65 70 64 60 57 55 55 51 47 47 44 46 47 47 45 46 46 46 47 49 51 53 54 56 56 57 57 57 56 55 52 51 50 47 48 49 48 52 49 46 46 44 37 32 30
68 71 68 65 67 67 66 63 59 56 53 51 47 47 49 47 47 47 47 44 44 45 46 47 49 51 54 56 58 57 56 56 55 53 54 54 51 47 45 48 49 51 54 48 49 47 39 34 32
66 64 63 60 59 62 63 60 56 53 54 52 52 48 52 49 47 47 46 45 44 44 45 46 46 46 49 51 52 53 53 53 52 52 51 51 49 48 44 44 47 53 52 51 51 47 46 38 33
58 53 56 54 52 56 43 42 28 45 53 51 49 50 52 46 45 45 44 43 43 43 44 45 45 45 47 47 48 49 49 49 50 52 52 51 52 52 50 48 47 50 51 53 51 48 47 44 36
52 51 54 48 48 47 47 43 46 35 30 54 48 48 43 43 42 43 44 44 44 44 44 45 45 47 49 48 50 51 52 54 54 56 56 54 54 52 50 48 47 50 52 53 52 49 48 45 41
54 51 52 51 49 51 44 37 38 27 34 36 54 40 39 40 42 43 44 44 44 45 45 45 47 49 50 51 53 55 56 58 59 60 61 61 60 57 49 50 46 48 52 53 52 49 48 49 44
50 58 42 34 39 45 36 26 29 31 36 40 43 34 35 38 40 41 41 42 43 44 46 47 48 49 51 53 55 56 58 59 61 61 62 62 62 61 52 49 48 48 49 49 51 52 49 56 46
39 31 31 25 24 19 21 28 30 40 41 43 41 39 35 36 37 38 40 41 43 43 44 45 46 48 52 55 57 59 62 64 64 64 65 64 63 61 56 51 49 49 47 48 50 52 50 47 41
30 23 21 27 29 26 21 14 28 33 37 40 39 37 36 35 35 37 39 40 42 43 44 45 47 50 54 58 61 63 63 60 60 61 66 68 66 62 57 53 51 49 48 50 49 52 51 46 41
36 37 35 39 39 34 29 28 22 34 34 32 31 32 34 36 36 38 39 41 43 45 46 48 49 52 57 58 54 50 51 51 53 48 50 56 59 62 57 52 50 48 48 49 50 51 54 53 51
34 37 41 43 37 27 24 18 30 32 35 35 31 32 35 38 40 41 44 45 47 48 49 49 51 54 51 45 45 38 41 43 44 43 47 49 53 57 54 52 50 47 47 49 50 53 52 52 51
30 32 32 34 31 31 29 26 31 31 38 40 38 39 41 42 43 45 47 49 49 51 51 51 52 43 44 41 38 32 30 31 38 37 46 49 48 48 47 50 53 50 49 49 51 49 54 50 47

GFSSGP_500_spd_114.txt.gz
Wind_Speed
23 22 22 20 18 15 8 8 9 33 33 31 29 28 27 23 24 33 36 25 24 20 24 24 24 24 23 23 23 19 20 20 21 22 22 20 18 18 17 17 17 17 17 17 17 16 13 12 13
24 24 23 21 16 12 6 8 25 37 35 22 28 29 28 29 30 31 32 22 27 25 25 24 24 25 25 24 24 22 21 22 23 21 21 23 22 19 17 17 18 18 18 18 19 18 17 16 14
25 25 25 22 17 13 14 18 30 42 31 31 29 29 32 34 28 28 28 30 28 29 26 24 26 26 27 26 25 23 24 23 24 22 19 20 22 23 21 20 19 19 19 20 19 20 19 18 16
26 26 26 22 19 18 21 16 39 36 30 33 31 29 33 28 32 30 30 33 31 30 27 26 26 27 27 28 25 24 24 25 25 22 21 20 19 21 22 21 20 20 20 20 19 20 19 19 18
25 27 25 23 20 21 21 21 44 29 29 36 31 29 32 32 28 27 30 33 32 33 27 28 28 28 28 29 28 26 26 26 26 25 21 21 21 20 20 21 21 21 20 19 20 20 19 19 19
23 26 26 23 19 19 11 30 43 30 32 34 36 29 26 38 28 23 28 31 32 34 32 29 29 30 31 31 30 29 28 27 27 27 25 22 21 20 20 20 21 20 21 21 21 21 20 19 19
25 29 25 24 20 23 26 32 42 30 31 37 39 32 25 35 33 20 32 30 31 31 32 31 31 32 33 33 33 31 31 29 28 28 28 27 25 24 22 22 23 23 23 23 23 23 22 21 19
28 31 28 23 21 23 29 40 40 32 34 37 37 35 32 40 33 19 28 29 31 32 32 34 34 33 33 35 34 35 33 33 30 29 30 32 30 27 26 26 26 27 27 26 24 24 22 21 19
26 30 29 23 27 27 35 41 38 38 36 38 40 37 34 38 39 32 30 31 32 33 32 34 35 35 35 35 36 36 36 34 32 30 30 32 31 29 28 28 29 28 28 27 25 23 21 20 20
26 29 26 29 30 35 31 34 37 37 41 39 41 44 39 38 42 36 35 35 37 35 37 36 36 37 38 37 37 38 37 35 33 30 29 32 34 33 31 31 30 29 28 27 25 23 21 22 22
28 28 28 31 33 35 33 33 36 37 38 41 42 43 43 44 44 42 40 39 41 39 38 38 39 40 39 39 39 40 40 36 34 32 32 33 35 35 37 34 32 30 30 28 27 24 23 23 23
34 31 30 31 34 36 35 32 35 40 40 43 43 44 44 46 45 43 42 43 43 42 39 39 43 41 41 41 40 42 43 41 36 34 35 35 35 35 36 38 35 33 31 30 29 28 26 24 24
43 40 37 37 37 36 38 38 39 38 39 41 46 48 48 50 50 47 44 44 44 44 44 43 40 41 43 43 43 42 43 43 40 37 37 37 36 37 38 40 39 37 34 31 32 29 29 26 24
50 51 49 47 41 39 45 45 42 39 40 42 43 44 45 46 48 53 52 51 50 52 47 45 42 42 40 42 42 42 43 44 42 39 38 39 37 38 40 42 43 40 35 36 33 32 29 29 27
56 56 55 52 49 50 52 53 49 49 46 42 42 39 42 44 44 44 48 51 53 52 50 46 47 45 42 42 43 43 46 46 45 41 40 40 37 40 38 40 37 40 41 36 36 35 33 30 30
56 58 58 56 57 56 58 56 56 54 56 53 45 41 41 43 43 45 47 50 52 49 49 48 46 52 52 50 48 47 48 49 48 46 44 41 40 38 38 39 37 39 43 40 38 39 37 33 33
60 61 62 58 63 61 68 64 64 63 59 57 55 49 47 46 45 44 45 47 45 46 49 50 49 52 53 51 50 49 49 50 49 48 47 45 44 40 42 43 41 43 42 45 42 42 41 37 36
64 68 68 68 61 28 45 74 72 70 65 61 59 51 50 49 49 49 49 49 40 46 48 48 48 48 51 51 51 52 51 51 51 51 51 52 48 46 44 44 42 41 44 43 45 44 43 37 38
72 74 75 74 71 56 52 59 73 74 70 68 61 61 52 49 51 56 50 43 40 43 45 47 47 48 48 50 51 52 53 53 53 54 54 53 55 49 48 47 45 40 43 43 48 48 46 40 39
68 72 75 74 71 68 64 63 71 72 74 70 59 55 58 51 53 56 54 42 43 43 42 43 45 47 48 49 49 51 52 53 53 53 53 53 53 53 50 48 45 43 42 45 45 50 47 44 41
67 60 61 59 59 61 60 57 61 70 63 55 54 54 49 51 60 57 49 48 47 44 41 41 42 44 46 47 48 49 49 51 53 53 54 55 53 55 55 51 48 48 43 45 46 49 50 45 44
50 49 41 38 42 49 47 51 46 59 46 43 44 39 54 60 58 53 52 51 48 49 44 43 43 44 45 46 47 49 49 50 51 51 51 51 50 51 51 48 46 49 46 47 47 48 49 48 49
43 45 52 53 56 51 46 52 46 41 29 40 40 50 49 47 43 43 46 46 46 46 45 45 45 45 46 47 47 48 48 50 51 51 52 50 50 49 50 48 48 47 48 47 50 49 50 51 51
44 46 43 45 48 51 51 45 43 38 32 38 49 50 40 35 39 44 43 43 45 45 46 46 45 45 45 46 47 47 48 49 51 52 54 54 55 54 53 53 53 49 46 47 48 51 51 53 53
46 42 43 45 44 44 35 33 33 33 40 45 47 40 37 32 32 35 38 41 43 44 45 46 45 44 45 45 46 48 50 51 52 55 56 57 59 60 58 58 56 54 49 47 50 52 51 52 54
36 41 41 33 31 28 25 31 26 31 35 39 42 43 40 33 31 35 39 41 42 43 44 43 43 43 43 43 44 46 49 51 53 56 58 60 62 62 62 61 60 57 52 52 51 52 51 52 53
28 26 22 24 21 26 25 21 21 28 29 34 38 40 31 43 46 43 43 42 41 41 41 42 43 44 44 45 47 49 51 53 57 60 63 64 65 66 66 65 62 63 56 56 55 53 50 51 52
27 29 29 30 30 33 26 22 29 29 25 31 37 41 45 48 48 35 34 36 38 40 41 42 44 45 46 48 52 53 56 60 61 63 62 62 63 66 71 73 71 65 60 57 55 53 51 53 53
31 35 38 34 34 34 40 38 40 37 35 32 26 33 37 35 31 37 39 39 39 40 41 43 45 47 49 52 54 56 59 61 56 49 50 47 47 54 56 58 65 69 62 57 55 52 49 53 52
35 34 34 33 32 38 45 43 38 33 30 36 44 45 33 33 34 37 36 37 39 41 43 46 48 51 53 55 57 57 54 47 45 43 44 42 39 42 45 46 52 57 56 57 53 52 51 52 50

GFSSGP_500_spd_120.txt.gz
Wind_Speed
24 22 21 18 16 12 18 22 21 25 18 18 18 22 27 28 28 31 30 26 24 23 23 22 22 23 23 25 26 24 23 21 22 22 23 23 23 21 19 17 17 18 19 20 18 18 18 17 16
27 21 19 17 14 12 20 23 23 28 22 22 22 25 29 30 28 28 25 24 25 23 25 25 25 26 27 27 27 26 25 22 22 22 22 22 23 22 20 18 17 17 18 19 20 20 19 19 19
26 24 21 17 13 13 22 25 27 29 27 27 28 30 31 29 26 27 25 22 25 28 27 26 26 27 28 29 29 27 27 25 25 24 23 22 21 20 19 20 18 17 17 17 18 19 20 21 21
25 24 21 16 13 14 23 31 34 35 34 30 30 29 27 29 27 25 26 24 23 26 27 27 27 28 29 30 30 29 29 27 27 26 25 24 21 20 19 19 19 16 16 17 17 18 20 21 22
26 25 22 16 14 21 24 33 37 35 34 32 35 33 32 28 27 24 24 27 28 27 26 28 28 29 29 30 31 31 29 28 28 28 28 26 24 22 21 20 19 17 15 15 15 17 18 19 20
27 25 21 17 16 19 24 35 40 42 42 32 35 32 33 33 31 25 25 26 29 29 29 28 29 28 29 30 32 33 32 29 29 28 28 27 25 24 23 22 21 20 17 16 15 15 17 19 20
26 24 19 17 17 18 26 37 40 44 42 39 37 36 28 31 33 29 26 24 28 28 28 31 32 29 29 30 31 33 34 32 30 30 30 30 27 26 25 24 22 22 21 20 18 18 18 19 20
24 21 18 18 20 17 33 36 36 38 40 36 35 35 35 34 37 36 27 25 25 31 27 26 31 31 30 32 33 34 35 34 32 31 32 32 29 27 26 25 24 22 21 21 20 19 18 19 21
19 16 15 18 22 22 30 33 36 37 37 39 37 39 41 42 39 37 35 29 29 29 33 31 29 33 32 33 35 36 38 37 35 33 34 33 32 29 29 26 25 24 23 23 22 20 20 20 20
17 11 11 16 18 18 22 29 31 35 39 36 35 36 39 43 43 40 37 36 33 34 36 36 37 38 36 35 38 39 40 40 38 37 37 36 34 31 31 29 27 26 25 24 23 21 21 21 20
24 20 24 21 24 24 20 20 24 27 32 32 35 35 38 40 41 42 40 37 39 40 39 38 39 39 40 40 38 39 41 42 42 41 40 40 38 34 31 31 31 30 28 25 23 22 21 21 21
31 30 32 30 32 32 32 31 27 31 25 27 35 35 37 39 40 36 38 40 36 44 44 42 41 42 44 45 44 41 38 42 45 44 45 45 43 37 34 33 33 32 31 30 26 26 24 22 23
36 36 39 38 36 36 37 38 41 36 28 35 37 38 38 40 40 41 41 39 39 44 45 46 45 45 51 51 47 42 43 44 45 48 50 49 46 41 36 34 35 34 33 32 31 30 31 27 24
39 43 43 42 42 44 45 46 47 38 42 40 40 43 45 47 46 43 41 42 42 45 43 44 42 43 44 45 50 44 47 51 50 53 57 59 52 44 39 37 37 36 36 35 35 33 33 33 30
48 49 46 46 45 49 50 50 46 47 49 50 48 46 47 49 51 50 49 47 48 45 43 42 40 38 41 43 44 46 46 51 52 49 50 51 61 49 43 40 39 37 37 38 38 37 34 34 29
54 52 52 50 48 49 51 49 48 48 51 54 55 54 54 55 55 55 55 54 52 50 48 47 43 41 39 41 45 47 48 45 45 49 58 53 59 53 46 45 39 38 39 40 40 39 37 33 30
58 57 55 52 50 50 50 49 50 53 58 59 62 64 67 70 67 63 60 57 53 53 54 53 51 48 45 44 46 48 48 52 48 49 55 50 44 45 52 49 42 39 42 42 41 40 40 40 36
61 61 56 52 53 54 57 52 53 59 63 66 69 71 72 73 74 76 71 65 59 56 55 53 55 51 52 50 46 48 48 50 51 51 51 48 41 45 34 37 47 43 42 41 40 39 42 45 43
52 54 53 51 58 60 63 61 60 61 63 63 65 64 60 62 57 75 70 66 65 63 53 48 47 47 51 53 52 50 50 50 51 52 51 50 48 45 48 49 47 46 48 43 41 43 48 48 47
53 55 56 55 62 66 67 66 66 65 66 61 40 51 51 52 61 65 60 66 71 69 65 59 48 48 47 53 53 51 50 49 49 51 50 49 49 49 51 52 51 50 44 48 43 42 45 50 51
54 59 59 63 66 66 67 69 69 66 59 52 35 43 62 60 56 57 56 60 65 63 56 50 46 45 45 51 49 50 50 51 51 50 51 51 51 51 51 52 52 52 48 48 44 47 48 47 49
54 52 59 63 63 65 62 63 64 55 41 39 40 42 46 57 62 62 64 55 55 54 48 45 43 40 44 50 50 49 49 49 50 50 50 52 53 52 53 53 53 53 53 51 48 49 47 44 57
54 49 50 51 46 41 52 47 46 40 39 41 39 38 46 51 50 53 53 56 48 49 46 45 46 46 43 51 50 50 50 50 50 51 51 51 53 54 53 53 53 52 53 54 54 53 52 51 53
46 43 41 39 37 39 33 42 34 39 39 36 40 42 39 39 43 46 51 48 49 52 52 48 43 41 43 47 48 49 50 50 50 51 51 52 54 55 57 57 57 57 56 57 56 55 55 55 53
31 31 35 35 36 36 38 39 39 32 35 35 36 39 38 38 41 35 38 43 49 52 52 45 43 41 46 46 45 48 50 51 52 52 52 52 53 55 56 57 57 57 58 58 57 57 57 56 57
29 28 28 33 35 33 34 32 29 29 29 31 38 33 31 49 38 36 35 47 59 53 51 53 46 46 44 45 46 49 51 52 52 52 52 52 53 54 56 57 58 57 57 58 60 60 60 60 58
26 28 32 37 38 37 34 31 32 35 30 24 18 26 22 25 38 33 37 47 53 53 59 58 56 55 45 43 47 52 54 52 52 51 51 51 52 53 54 56 58 59 59 59 61 63 62 63 61
23 27 30 35 37 41 38 35 32 34 29 30 30 26 33 28 21 24 26 27 43 48 47 47 50 49 50 57 57 53 50 49 47 47 49 50 51 52 54 55 57 58 60 62 64 64 64 62 63
30 34 35 34 38 40 40 38 37 37 36 33 37 39 40 36 36 33 35 39 30 31 39 45 46 50 55 54 49 45 44 44 45 47 49 50 52 54 55 57 59 62 64 67 69 69 69 69 67
33 34 38 39 39 40 39 40 36 34 38 40 35 41 45 42 40 39 38 38 39 41 40 42 47 47 44 36 41 43 46 49 51 53 54 54 54 56 56 59 61 65 69 73 75 77 81 80 78

GFSSGP_500_spd_123.txt.gz
Wind_Speed
30 27 21 17 14 16 23 21 25 24 18 18 20 18 15 18 21 26 27 29 28 28 24 24 24 25 25 24 23 22 22 21 20 22 24 24 23 21 20 20 19 16 17 17 18 19 20 20 20
31 29 23 16 12 15 26 24 26 30 26 23 22 22 21 22 26 28 28 26 25 27 26 26 26 24 25 26 26 25 24 23 21 22 24 24 23 22 21 19 17 17 17 18 17 18 19 19 18
32 27 23 16 15 20 26 27 27 29 29 26 28 26 29 29 30 29 27 27 26 25 25 27 27 26 25 26 27 27 26 25 24 23 23 23 23 23 21 19 19 18 18 19 20 19 19 18 18
30 27 22 16 18 21 25 32 30 30 30 31 28 30 34 30 27 22 23 22 22 24 26 25 25 27 28 28 29 28 28 26 25 24 24 24 23 22 21 20 19 19 19 18 19 20 20 20 20
29 28 22 19 20 24 27 35 37 32 35 34 32 35 34 31 27 25 23 21 21 24 24 26 28 28 30 30 30 30 29 28 27 26 25 26 25 23 23 21 21 21 20 19 18 18 19 19 18
28 26 22 19 21 25 30 36 36 35 35 33 33 34 34 32 29 30 28 24 22 25 26 25 28 30 30 30 30 31 31 31 29 29 28 28 27 24 23 23 22 22 22 20 20 19 19 18 19
26 25 21 19 22 27 32 36 34 36 37 35 33 33 33 34 33 28 26 26 23 26 26 26 25 28 31 31 31 31 32 32 31 28 29 29 30 28 26 25 24 24 23 23 22 21 21 21 20
22 20 17 18 22 26 30 34 32 34 36 35 33 36 36 37 37 32 27 26 26 26 30 27 28 29 28 30 32 33 34 34 33 31 30 30 32 32 29 28 27 27 25 25 25 23 22 22 23
16 13 11 15 17 22 28 31 32 34 34 34 33 36 38 39 38 35 32 26 28 30 32 33 31 31 33 32 32 34 35 36 36 35 33 33 33 35 33 31 29 28 28 26 25 25 24 23 22
14 10 12 12 11 11 17 24 30 33 34 30 33 36 39 40 39 38 36 30 28 32 35 36 36 35 34 36 38 37 36 36 38 39 37 35 36 37 35 32 32 31 30 29 28 25 25 24 23
19 18 21 20 20 17 17 21 25 28 22 22 30 33 37 39 38 38 36 32 30 34 36 37 38 37 38 37 41 40 40 40 39 40 40 39 39 40 37 35 34 33 34 32 31 29 26 25 24
27 27 29 27 27 27 27 24 28 34 26 32 37 36 37 37 39 40 37 36 34 34 36 39 39 36 40 40 42 43 44 45 43 41 41 41 42 43 43 40 37 35 34 33 33 32 30 27 27
35 34 34 34 31 33 35 33 36 31 32 39 41 42 43 43 43 42 42 40 38 37 40 42 39 36 39 43 45 48 48 54 49 46 45 45 46 47 48 45 42 39 38 37 37 36 33 31 30
41 41 41 41 38 41 42 43 44 30 36 40 42 43 44 46 48 49 49 47 47 45 42 42 45 37 37 41 44 47 46 56 45 52 57 52 53 54 53 53 50 44 43 42 39 39 37 35 32
47 47 45 45 48 49 49 51 46 47 47 48 46 44 45 45 46 47 48 47 46 46 48 48 49 48 42 41 43 47 45 47 46 42 38 51 53 56 59 50 54 53 50 47 42 43 41 36 33
53 58 56 55 55 56 54 56 54 52 53 51 50 50 50 49 49 50 52 53 54 53 51 50 50 53 54 48 47 45 49 50 49 44 42 50 48 50 57 48 49 51 60 52 47 44 44 39 34
52 58 63 60 62 62 61 58 58 59 57 55 53 54 57 58 57 56 57 58 60 62 61 59 59 58 59 56 51 51 50 53 52 51 53 52 48 48 51 51 53 68 65 59 51 47 47 43 40
57 54 52 55 54 54 54 55 59 58 57 57 58 61 64 66 67 66 66 68 69 68 67 62 59 59 59 60 57 54 54 55 56 52 54 55 54 52 50 49 54 49 60 66 53 50 51 45 44
53 52 51 51 51 51 50 49 52 55 60 62 64 67 69 69 71 72 73 75 77 77 74 68 61 57 56 56 59 59 54 54 55 56 55 56 58 51 49 50 50 48 31 64 53 54 52 51 50
47 48 50 51 54 56 55 52 55 60 63 67 71 71 72 71 65 68 72 71 72 71 69 61 52 52 52 53 53 56 55 54 56 57 56 56 59 55 51 48 50 49 43 47 41 37 44 44 48
44 48 47 53 56 57 59 57 57 58 63 67 68 69 66 60 55 55 56 61 62 60 58 60 57 51 44 47 52 58 54 57 58 56 56 58 58 55 50 49 51 48 44 46 46 44 43 48 46
46 44 48 51 56 57 59 61 56 61 63 58 53 48 45 44 44 42 47 57 66 60 57 60 56 49 47 45 54 51 50 56 59 56 55 57 59 58 51 50 50 51 50 49 51 50 51 47 51
47 48 50 52 55 56 52 47 54 60 55 49 46 44 44 41 42 43 45 51 62 56 63 53 53 47 45 46 43 40 45 54 59 57 56 56 57 60 57 49 51 51 52 51 52 53 53 50 50
44 45 46 48 50 54 46 41 47 39 40 40 41 42 39 39 39 40 43 43 41 43 45 50 50 47 43 37 38 41 46 54 59 55 56 56 56 56 60 56 53 52 52 52 52 53 54 54 53
39 36 39 41 38 39 36 38 37 33 36 38 38 36 35 37 34 38 37 38 41 41 43 46 51 53 47 46 41 44 47 48 51 54 56 55 55 57 59 62 60 57 57 56 56 57 58 55 55
34 31 30 32 36 34 36 40 39 37 38 40 39 37 34 30 29 29 39 42 45 37 38 36 45 45 50 47 44 42 39 37 38 41 50 55 56 57 58 60 61 60 58 57 56 57 58 60 60
27 28 29 32 35 36 35 37 37 36 37 36 37 35 27 22 19 24 16 30 26 44 40 43 59 51 44 49 46 43 46 48 46 47 55 59 54 56 57 58 60 61 61 59 58 58 58 60 60
24 27 25 28 33 40 39 41 41 37 38 38 38 34 36 41 34 31 28 33 18 18 23 28 30 37 52 54 54 55 50 51 54 57 55 53 51 52 54 56 57 59 61 61 60 59 58 59 61
30 29 30 31 35 38 39 42 46 44 41 38 36 37 39 38 42 46 49 43 36 35 33 34 28 27 34 35 41 43 46 48 46 42 42 44 46 49 51 52 54 56 57 59 59 58 58 59 59
33 31 32 35 38 41 45 50 47 44 41 38 40 40 39 41 44 46 46 41 39 37 41 34 36 41 38 40 44 48 49 46 44 44 44 43 44 47 51 54 55 56 56 57 58 58 60 62 64

GFSSGP_500_spd_126.txt.gz
Wind_Speed
34 33 30 20 20 19 25 25 25 24 24 21 19 20 19 17 16 17 21 23 26 27 24 23 25 24 23 23 21 18 17 18 18 19 20 19 20 19 18 17 15 14 14 14 16 16 16 17 19
37 36 29 21 18 22 25 24 26 26 24 23 24 23 23 22 23 23 25 27 27 25 24 25 25 25 24 24 25 23 20 18 19 20 21 21 20 20 19 18 15 13 13 12 13 16 17 18 17
33 34 29 20 19 24 27 28 26 26 25 24 26 24 26 26 25 25 27 26 25 26 25 23 24 24 24 24 25 26 25 22 20 21 22 22 21 21 20 18 18 16 15 14 13 14 18 19 19
34 31 25 19 21 26 29 33 27 27 28 29 28 25 27 28 28 26 26 26 25 24 23 24 24 25 26 26 26 26 26 25 23 22 22 22 22 22 21 20 19 18 17 17 16 14 15 17 19
34 30 24 21 24 28 32 33 30 28 30 30 31 27 27 29 29 30 24 24 25 26 26 24 24 24 26 27 27 27 27 28 27 24 23 23 23 23 23 22 22 21 20 19 19 17 16 17 17
30 27 22 20 25 28 31 34 32 29 31 32 31 29 32 34 34 30 26 24 28 29 29 27 26 26 25 26 27 28 29 28 29 29 26 25 24 22 22 23 24 24 24 23 21 21 20 20 20
26 23 22 20 22 27 30 33 31 32 31 31 30 30 32 35 33 31 29 26 25 25 28 30 29 29 29 26 26 27 28 29 29 30 30 28 26 25 24 24 24 25 25 26 25 24 24 24 23
24 20 17 19 22 25 28 31 30 31 31 29 27 30 31 33 33 30 26 25 26 28 30 32 31 28 28 29 28 27 28 30 31 32 33 31 29 28 29 28 26 25 25 27 28 27 25 25 24
21 15 15 17 18 21 24 26 27 28 26 26 28 30 30 31 32 31 30 28 26 29 33 32 33 33 31 31 29 30 31 31 33 32 33 35 32 31 32 33 31 28 27 28 29 29 28 28 26
18 13 14 12 12 13 16 18 22 25 19 21 27 30 32 32 32 31 29 28 28 29 31 30 32 35 34 34 35 34 34 34 36 35 36 36 36 35 34 35 35 32 30 29 30 32 31 31 30
18 17 19 17 16 16 17 20 24 26 21 29 31 31 35 33 31 32 29 25 26 27 31 32 33 33 33 34 35 37 38 37 38 40 39 39 39 40 38 38 37 35 35 34 32 32 35 35 33
25 26 27 25 25 24 25 26 29 29 27 34 38 37 37 40 40 40 40 36 31 28 28 29 32 33 33 35 36 38 40 41 42 43 43 45 45 44 43 43 41 40 39 36 36 36 37 39 37
33 30 31 31 31 32 33 31 34 31 33 38 41 42 41 39 40 43 44 45 41 38 38 37 37 35 33 36 38 40 41 43 44 48 49 50 51 51 47 49 46 45 43 41 41 41 41 40 40
39 39 38 36 39 42 44 39 38 37 36 39 43 45 45 44 43 45 47 49 49 45 43 42 43 43 39 38 38 41 44 46 45 47 47 48 51 56 57 51 50 51 51 49 47 45 46 44 45
44 45 44 44 47 48 49 48 46 49 49 46 46 48 48 47 48 49 49 50 51 49 48 47 45 44 43 43 44 44 45 47 49 49 51 48 50 47 47 57 55 56 58 55 55 51 47 48 48
49 52 52 52 53 53 56 62 59 56 58 57 55 48 48 50 50 50 52 53 53 54 53 54 54 52 53 52 50 49 49 51 52 54 52 52 52 53 37 55 60 56 63 53 56 54 57 55 55
50 56 58 59 59 60 55 55 57 60 59 57 55 54 55 56 55 54 55 55 55 57 60 61 60 59 59 60 60 58 55 54 56 58 57 56 54 54 50 48 49 50 41 46 47 47 51 61 59
51 52 53 55 53 54 55 53 52 54 53 50 51 55 58 58 59 59 60 61 62 63 65 67 67 66 65 64 65 63 62 59 57 59 63 61 58 58 56 55 53 49 54 51 53 49 55 60 64
56 57 52 48 48 48 48 48 50 51 51 52 54 57 59 61 61 63 65 68 70 72 73 74 74 75 73 67 67 64 61 61 60 60 64 66 61 57 59 60 57 54 54 50 51 50 50 52 55
48 50 51 48 48 49 48 49 51 52 54 56 58 60 62 64 65 67 68 69 71 73 73 70 68 68 59 56 55 52 58 60 63 62 62 66 67 63 59 61 59 57 57 53 55 51 53 40 48
50 52 50 50 49 48 49 49 52 52 55 58 60 61 62 64 65 66 63 62 58 54 53 52 54 55 56 54 51 52 53 59 61 62 63 63 66 67 63 60 63 60 57 54 54 53 46 45 45
45 43 46 47 48 49 50 52 54 54 54 53 55 58 59 58 54 55 54 50 47 45 48 58 62 63 57 56 56 54 54 54 53 56 53 60 64 68 66 62 61 60 57 54 53 54 48 44 37
44 44 45 47 48 50 53 51 54 56 55 54 56 56 54 48 46 45 45 45 44 44 47 46 49 56 62 61 59 46 47 47 50 51 45 48 56 64 67 66 64 60 56 54 53 55 52 48 48
44 45 45 46 46 49 45 48 50 51 50 47 42 41 42 40 39 38 35 38 40 42 39 40 40 41 42 43 40 46 41 44 40 36 40 39 45 49 56 59 58 59 57 53 54 54 52 52 51
39 41 43 44 44 45 48 50 48 42 40 37 37 38 41 43 45 40 38 31 35 33 35 38 35 37 41 41 37 43 44 42 38 39 35 37 44 47 45 52 57 57 56 53 51 53 52 51 51
36 34 36 39 42 43 40 44 39 36 33 37 38 40 41 42 41 35 28 29 29 36 34 42 41 35 36 41 36 41 46 42 41 41 35 33 35 39 45 45 45 54 57 58 55 55 56 56 55
33 32 31 35 35 39 42 38 35 33 33 34 35 39 39 42 39 36 34 36 32 26 22 24 30 39 43 44 42 44 46 44 44 38 40 40 41 43 50 55 53 52 55 59 60 57 57 57 57
27 30 31 30 34 38 37 38 38 38 38 39 44 39 37 39 37 36 39 39 38 41 36 35 29 23 27 35 38 37 35 41 49 36 40 42 48 48 50 51 49 48 50 57 61 59 58 58 58
29 32 30 32 35 37 40 40 40 39 40 44 45 42 39 38 36 37 38 40 42 42 44 47 47 37 33 37 32 28 28 31 33 38 45 50 49 40 41 41 43 46 48 51 56 60 57 57 58
31 31 34 35 36 37 40 37 39 41 40 44 36 34 37 34 35 37 37 39 41 41 43 43 43 44 43 42 41 39 35 36 43 46 46 42 44 44 47 48 46 45 47 52 53 55 56 56 56

GFSSGP_500_spd_132.txt.gz
Wind_Speed
28 25 22 19 23 25 30 31 30 26 22 17 15 15 16 17 18 21 20 19 20 21 21 21 20 19 18 16 15 14 12 11 11 12 12 13 14 14 13 13 12 12 11 10 10 10 10 11 13
26 25 20 21 24 27 36 30 31 26 22 19 18 18 20 23 23 22 21 20 19 19 21 22 21 20 20 20 19 18 17 15 13 13 13 14 14 15 13 14 14 14 14 13 13 11 10 11 12
25 24 21 22 25 28 34 31 29 26 21 20 19 21 23 25 25 20 21 22 22 22 22 23 23 23 23 22 21 20 19 19 17 15 15 15 16 17 16 14 15 16 16 16 15 14 13 13 13
24 24 25 27 31 30 32 30 28 26 24 21 21 23 25 25 23 22 22 24 26 23 25 26 24 25 24 23 21 20 20 20 21 19 17 16 17 18 19 17 17 17 16 17 18 17 15 15 16
27 25 25 29 32 31 30 27 27 25 23 20 20 23 24 25 25 25 23 26 27 24 28 27 27 26 26 26 24 24 23 21 20 20 20 19 18 19 20 21 19 19 19 18 19 20 18 17 17
28 25 25 29 31 30 29 28 26 24 22 21 21 23 26 27 27 27 27 27 28 30 29 28 28 29 27 26 26 26 25 24 23 21 21 22 21 20 20 21 22 21 21 21 21 22 22 20 18
27 26 25 27 29 29 27 27 24 22 23 22 23 26 26 28 29 30 29 30 30 30 28 28 28 28 29 28 27 27 27 26 25 24 22 22 22 23 21 21 22 25 25 24 24 24 24 24 21
27 26 26 26 26 28 24 23 22 21 21 23 24 26 27 26 26 26 26 27 28 28 28 27 30 29 29 29 30 29 29 29 29 28 27 25 25 25 26 23 24 26 28 29 27 27 27 26 24
26 25 25 25 25 23 22 21 21 22 22 25 25 26 25 25 25 24 23 25 26 28 27 27 29 30 30 30 30 30 30 31 32 30 30 30 29 29 31 30 27 28 30 33 32 31 30 28 27
25 25 26 25 25 22 23 21 18 21 21 24 24 23 21 19 19 18 19 20 21 22 24 26 27 29 31 33 33 31 31 30 31 32 32 32 32 32 33 34 32 31 33 36 35 34 35 34 33
25 24 26 26 25 24 24 21 18 20 23 22 23 23 22 23 24 23 23 24 27 28 31 29 29 31 33 33 35 34 33 31 32 35 35 35 34 34 36 37 36 35 37 39 39 43 42 37 38
26 26 26 26 28 28 27 25 24 27 27 28 28 29 30 30 31 30 29 29 29 30 32 34 34 35 36 37 38 38 37 35 35 37 37 37 37 38 38 38 39 37 39 40 43 43 46 46 44
30 28 28 29 33 33 32 33 33 34 34 33 35 35 36 37 38 37 37 36 36 35 35 35 37 37 40 41 41 41 42 41 40 40 41 40 40 41 41 42 41 40 41 41 43 45 44 42 50
31 32 31 33 36 37 37 39 39 40 40 40 42 43 45 45 46 47 47 49 47 47 47 47 46 43 43 44 45 46 48 47 46 47 47 48 45 45 44 45 45 44 42 44 47 47 45 45 43
35 36 35 36 37 39 39 44 45 47 46 47 51 51 51 53 53 53 55 56 57 57 55 51 52 52 48 46 45 46 48 48 47 47 48 50 49 47 49 47 47 48 47 47 49 51 41 46 46
37 38 38 39 38 40 42 45 46 47 49 54 57 57 59 60 62 62 57 52 50 53 55 54 51 49 48 49 49 49 49 50 50 49 50 52 54 56 52 53 54 55 54 49 52 45 52 52 49
39 40 40 44 41 45 48 49 51 53 54 51 51 55 57 56 53 52 53 49 48 47 47 48 50 51 52 53 52 54 54 55 55 56 56 56 57 59 60 59 60 62 61 59 56 55 56 53 48
42 39 43 45 45 43 44 47 51 51 51 51 49 48 48 48 48 47 47 47 48 48 49 48 50 52 54 56 58 60 62 63 63 62 64 64 64 64 65 66 65 66 67 66 65 61 59 54 54
43 43 45 45 45 45 46 47 49 51 50 47 47 48 47 47 47 48 49 51 51 51 52 54 55 57 59 61 62 64 66 68 69 67 67 67 68 69 71 71 71 71 73 71 70 65 64 59 54
41 44 43 45 47 46 47 46 45 45 47 49 49 49 49 48 48 50 51 52 53 54 56 57 59 60 61 63 66 67 68 69 69 70 68 63 60 63 67 70 73 74 73 75 73 71 66 65 58
44 44 45 45 47 47 46 46 46 45 45 46 46 48 49 50 52 53 54 55 55 54 55 57 58 60 61 62 60 58 58 58 59 63 64 60 58 57 64 66 68 70 71 71 71 70 67 64 60
45 45 46 47 48 49 49 49 49 48 50 51 50 49 49 51 52 51 51 53 55 55 54 54 56 55 56 55 53 53 54 53 53 53 55 58 60 59 57 64 69 67 66 67 67 67 67 63 59
44 44 46 47 49 51 52 52 52 51 53 52 51 51 50 49 48 49 50 51 51 52 52 53 53 53 52 51 48 46 48 49 49 49 51 53 55 55 61 60 65 67 67 67 64 64 65 68 63
45 46 48 51 51 53 52 52 49 52 54 51 49 49 48 47 45 45 45 43 44 45 46 47 47 49 48 47 46 47 47 46 48 47 48 49 50 53 56 55 54 58 63 64 61 64 57 61 64
47 49 48 51 52 50 52 52 49 51 49 47 45 42 41 41 40 39 40 41 43 44 46 46 49 48 45 43 44 46 44 44 49 49 44 41 44 45 48 50 49 50 53 51 50 49 49 50 47
45 45 46 46 46 45 53 51 50 47 45 44 39 36 35 36 38 39 42 43 44 45 47 50 49 49 44 40 41 42 40 42 40 41 43 39 40 41 38 40 47 49 45 50 47 41 47 51 50
44 41 40 42 43 46 48 47 50 43 40 36 33 32 33 36 39 41 41 43 45 46 46 45 45 45 42 41 39 39 37 40 34 27 30 32 34 36 39 43 45 42 40 43 44 44 45 47 51
38 38 37 35 34 33 34 36 38 44 39 29 32 33 36 37 39 39 39 42 46 46 46 43 42 41 41 41 42 43 38 40 43 43 41 34 32 34 33 34 42 42 42 47 46 47 48 48 49
37 34 34 37 39 40 36 34 38 44 40 35 35 36 36 39 39 40 42 44 47 44 43 44 42 41 41 41 39 41 41 41 41 39 37 38 37 37 36 34 38 45 47 47 52 52 53 54 55
36 33 32 37 35 37 37 31 38 37 37 38 40 40 39 38 39 41 44 45 46 40 39 40 41 40 39 40 39 38 39 40 41 38 36 35 40 41 42 43 43 45 48 52 56 55 49 49 50

GFSSGP_500_spd_135.txt.gz
Wind_Speed
25 23 23 22 21 21 13 27 25 30 30 26 21 19 19 23 21 27 23 20 19 20 21 19 18 17 18 18 15 13 12 12 13 14 15 16 16 16 12 11 11 10 11 12 11 11 12 13 14
24 23 23 21 18 11 19 31 31 30 30 26 21 20 23 26 27 26 24 21 19 19 20 19 19 19 17 18 17 16 15 14 13 14 15 16 17 18 18 15 15 14 12 13 13 13 13 14 14
24 23 22 20 20 13 21 37 32 31 27 24 21 24 26 26 27 26 25 23 21 20 22 22 21 22 20 18 18 17 17 17 16 16 15 16 17 18 19 19 18 18 17 15 15 15 15 16 15
24 23 23 21 14 23 27 33 32 31 25 22 20 27 26 27 27 26 24 23 22 22 22 24 25 24 23 21 20 20 19 19 19 18 17 18 17 19 20 21 20 19 19 19 18 17 17 17 18
25 25 23 25 27 30 29 30 30 28 23 21 21 29 26 27 26 24 24 23 24 26 27 27 29 28 26 25 24 23 23 22 22 20 18 18 20 19 20 22 22 23 21 21 21 19 18 19 19
26 25 21 14 21 31 31 29 25 25 24 20 23 27 26 27 25 26 27 28 29 30 30 30 33 32 29 28 26 25 25 25 24 23 22 20 20 21 20 21 23 24 25 24 23 22 22 21 21
27 24 21 20 24 33 29 25 24 22 26 20 22 29 26 27 27 29 31 30 31 32 33 31 30 31 30 28 28 26 26 26 26 25 24 23 24 23 23 23 23 26 26 27 26 25 24 23 24
26 24 22 25 24 27 25 25 22 22 27 22 24 32 34 20 28 30 29 29 30 31 31 31 31 30 30 30 29 28 28 29 27 27 28 27 27 26 26 25 25 28 29 28 28 28 26 25 26
24 22 23 19 26 33 24 26 25 23 26 24 24 29 28 25 27 27 27 28 28 30 31 31 31 31 30 31 30 29 29 30 30 30 30 32 30 30 29 29 28 31 31 33 31 30 30 30 30
21 23 28 29 29 31 26 26 26 25 26 23 25 24 24 23 23 23 23 24 24 26 25 26 26 27 28 31 32 32 32 31 31 31 32 33 32 31 32 33 33 34 35 36 35 35 34 33 34
24 26 28 29 28 29 27 27 27 27 25 27 21 23 21 21 22 23 24 24 27 28 28 28 30 32 33 35 34 36 35 35 33 33 33 34 34 33 33 34 34 35 37 38 38 38 36 37 39
29 29 28 32 30 30 30 29 29 31 30 27 30 28 27 27 28 29 30 30 30 32 31 32 33 34 34 36 38 39 38 39 39 39 39 37 37 35 36 36 36 36 37 39 39 39 38 38 38
30 30 29 32 31 32 32 33 33 35 35 32 36 34 35 35 36 36 38 39 39 39 39 40 39 40 40 40 40 41 43 44 44 45 45 44 43 41 40 38 40 39 40 42 43 42 41 40 38
29 31 30 32 32 34 34 36 37 41 40 39 43 43 40 42 44 45 45 46 47 47 47 50 51 52 50 48 49 48 50 49 48 49 49 51 51 49 49 47 45 45 44 44 47 48 50 45 41
31 31 32 33 33 37 36 37 41 45 43 43 49 56 44 48 52 54 56 55 54 55 57 59 56 55 57 55 55 55 53 53 51 50 51 52 52 51 49 49 50 48 46 46 49 49 54 46 41
32 33 33 39 33 38 37 36 48 42 43 45 49 55 51 49 55 57 57 59 60 59 53 47 50 47 46 48 50 53 52 49 50 51 52 53 54 55 54 53 53 53 52 52 55 47 46 29 51
33 35 37 38 39 40 39 41 45 50 50 47 53 56 55 56 54 53 51 50 50 47 46 45 45 44 45 45 46 46 48 51 50 51 52 55 55 56 57 58 59 59 58 59 63 61 63 59 56
31 36 37 37 42 42 40 43 45 48 48 48 50 54 52 52 50 46 46 48 48 47 47 46 47 48 49 50 51 51 51 52 53 54 56 57 57 58 58 60 63 65 67 67 67 68 65 66 63
32 34 37 40 43 45 44 42 45 46 50 50 50 49 47 47 48 48 48 47 47 47 48 48 49 50 51 53 54 55 56 56 57 57 58 59 61 62 64 66 67 68 71 72 73 72 72 71 68
34 35 37 40 44 47 47 45 47 46 52 47 48 49 48 47 47 47 47 48 48 48 49 51 52 53 53 53 53 54 56 58 58 59 60 60 61 61 62 65 68 71 74 76 78 79 77 77 74
37 40 41 43 47 48 49 48 49 52 48 48 48 50 51 52 52 51 52 51 51 51 51 52 51 51 51 51 51 52 54 54 54 53 54 55 57 59 61 60 62 67 69 73 75 78 78 76 72
44 46 48 47 49 52 53 53 49 52 55 55 56 54 53 53 54 54 53 52 52 51 51 51 50 51 50 50 51 50 51 50 50 50 50 52 55 58 59 60 60 62 66 72 75 76 75 77 71
48 50 50 52 53 53 53 53 48 55 56 59 58 58 55 54 53 52 51 51 51 50 49 48 46 46 47 48 49 50 50 48 48 47 48 49 50 52 53 55 57 58 60 62 71 71 74 72 69
52 52 53 53 52 53 53 50 53 31 49 51 58 51 52 51 49 48 48 48 47 46 45 44 44 45 46 47 48 49 50 50 49 47 48 48 51 51 51 46 48 52 58 63 65 67 69 67 68
53 52 52 46 40 46 34 47 52 37 49 53 54 53 50 48 47 43 42 42 42 41 42 42 42 43 45 48 49 50 52 50 47 47 48 51 46 46 52 48 47 48 51 52 55 60 63 63 65
55 53 52 39 36 33 29 44 39 43 41 50 47 44 43 43 39 40 39 38 40 40 39 39 41 43 45 48 48 47 46 45 46 47 44 45 45 47 47 49 48 47 48 49 48 49 53 57 56
43 47 43 40 51 44 52 46 45 49 49 50 45 41 39 38 36 36 38 38 39 39 38 40 41 44 45 47 46 45 43 42 44 48 46 43 43 38 36 38 41 43 41 42 41 44 48 50 52
43 42 41 40 34 34 29 30 27 39 40 43 38 28 35 36 36 37 38 39 39 39 39 41 43 47 47 47 45 44 42 42 41 43 45 43 43 46 46 47 45 42 43 43 42 43 43 43 44
30 40 38 35 40 40 36 33 30 40 37 44 48 44 38 37 39 39 40 39 39 40 42 43 46 49 47 45 42 41 41 41 41 41 43 43 43 42 43 42 44 40 42 44 43 47 47 47 50
32 29 31 38 39 38 41 37 31 43 40 42 42 41 45 44 39 40 39 41 44 45 47 47 48 49 45 42 41 40 39 39 38 37 37 36 34 36 38 37 40 41 42 43 43 44 49 56 57